Wetterdaten: aktuell Sonntag, 25.02.2018 21:58
Datum Zeit Temp. A. Temp. A. min Temp. A. max Feuchte A. Luftdruck Regen Wind Richtung Richtung Sonne ET UV Solar Taupunkt Windchill Windben
25.02.2018 21:58 -0,1 C -0,1 C -0,1 C 32 % 1022,8 hPa 0,0 l/m 2,8 km/h (1 Bft) N-NO 25 0 min 0,000 mm 0,0 UV-I 60 W/m -14,8 C -0,1 C 9,7 km/h (2 Bft)
25.02.2018 21:56 -0,1 C -0,1 C -0,1 C 32 % 1022,8 hPa 0,0 l/m 7,7 km/h (2 Bft) O 80 0 min 0,000 mm 0,0 UV-I 60 W/m -14,8 C -1,5 C 17,7 km/h (3 Bft)
25.02.2018 21:54 -0,1 C -0,1 C -0,1 C 32 % 1022,9 hPa 0,0 l/m 3,3 km/h (1 Bft) O-NO 58 0 min 0,000 mm 0,0 UV-I 60 W/m -14,8 C -0,1 C 8,0 km/h (2 Bft)
25.02.2018 21:52 -0,1 C -0,1 C -0,1 C 32 % 1022,9 hPa 0,0 l/m 3,4 km/h (1 Bft) O-NO 67 0 min 0,000 mm 0,0 UV-I 60 W/m -14,8 C -0,1 C 8,0 km/h (2 Bft)
25.02.2018 21:50 -0,1 C -0,1 C -0,1 C 32 % 1022,9 hPa 0,0 l/m 8,3 km/h (2 Bft) O-NO 66 0 min 0,000 mm 0,0 UV-I 60 W/m -14,8 C -2,0 C 16,1 km/h (3 Bft)
25.02.2018 21:48 -0,1 C -0,1 C -0,1 C 32 % 1022,8 hPa 0,0 l/m 10,4 km/h (2 Bft) O 91 0 min 0,000 mm 0,0 UV-I 60 W/m -14,8 C -3,9 C 19,3 km/h (3 Bft)
25.02.2018 21:46 -0,1 C -0,1 C -0,1 C 32 % 1022,8 hPa 0,0 l/m 6,8 km/h (2 Bft) O-SO 102 0 min 0,000 mm 0,0 UV-I 60 W/m -14,8 C -0,5 C 11,3 km/h (2 Bft)
25.02.2018 21:44 -0,1 C -0,1 C -0,1 C 32 % 1022,7 hPa 0,0 l/m 7,2 km/h (2 Bft) O-NO 64 0 min 0,000 mm 0,0 UV-I 60 W/m -14,8 C -0,9 C 11,3 km/h (2 Bft)
25.02.2018 21:42 -0,1 C -0,1 C -0,1 C 32 % 1022,8 hPa 0,0 l/m 6,1 km/h (2 Bft) O 79 0 min 0,000 mm 0,0 UV-I 60 W/m -14,8 C -0,1 C 9,7 km/h (2 Bft)
25.02.2018 21:40 -0,1 C -0,1 C -0,1 C 32 % 1022,8 hPa 0,0 l/m 6,5 km/h (2 Bft) O 85 0 min 0,000 mm 0,0 UV-I 60 W/m -14,8 C -0,2 C 14,5 km/h (3 Bft)
25.02.2018 21:38 -0,1 C -0,1 C -0,1 C 32 % 1022,7 hPa 0,0 l/m 4,8 km/h (1 Bft) O 92 0 min 0,000 mm 0,0 UV-I 60 W/m -14,8 C -0,1 C 11,3 km/h (2 Bft)
25.02.2018 21:36 -0,1 C -0,1 C -0,1 C 32 % 1022,7 hPa 0,0 l/m 9,7 km/h (2 Bft) O-NO 61 0 min 0,000 mm 0,0 UV-I 60 W/m -14,8 C -3,3 C 22,5 km/h (4 Bft)
25.02.2018 21:34 -0,1 C -0,1 C -0,1 C 32 % 1022,7 hPa 0,0 l/m 10,0 km/h (2 Bft) O 92 0 min 0,000 mm 0,0 UV-I 60 W/m -14,8 C -3,6 C 19,3 km/h (3 Bft)
25.02.2018 21:32 -0,1 C -0,1 C -0,1 C 32 % 1022,7 hPa 0,0 l/m 10,0 km/h (2 Bft) NO 53 0 min 0,000 mm 0,0 UV-I 60 W/m -14,8 C -3,6 C 19,3 km/h (3 Bft)
25.02.2018 21:30 -0,1 C -0,1 C -0,1 C 32 % 1022,8 hPa 0,0 l/m 6,1 km/h (2 Bft) O 84 0 min 0,000 mm 0,0 UV-I 60 W/m -14,8 C -0,1 C 9,7 km/h (2 Bft)
25.02.2018 21:28 -0,1 C -0,1 C -0,1 C 32 % 1022,7 hPa 0,0 l/m 8,3 km/h (2 Bft) O-SO 102 0 min 0,000 mm 0,0 UV-I 60 W/m -14,8 C -2,0 C 14,5 km/h (3 Bft)
25.02.2018 21:26 -0,1 C -0,1 C -0,1 C 32 % 1022,7 hPa 0,0 l/m 6,6 km/h (2 Bft) O 98 0 min 0,000 mm 0,0 UV-I 60 W/m -14,8 C -0,3 C 11,3 km/h (2 Bft)
25.02.2018 21:24 -0,1 C -0,1 C -0,1 C 32 % 1022,7 hPa 0,0 l/m 5,5 km/h (2 Bft) O 93 0 min 0,000 mm 0,0 UV-I 60 W/m -14,8 C -0,1 C 9,7 km/h (2 Bft)
25.02.2018 21:22 -0,1 C -0,1 C -0,1 C 32 % 1022,8 hPa 0,0 l/m 6,7 km/h (2 Bft) O-NO 71 0 min 0,000 mm 0,0 UV-I 60 W/m -14,8 C -0,4 C 14,5 km/h (3 Bft)
25.02.2018 21:20 -0,1 C -0,1 C -0,1 C 32 % 1022,8 hPa 0,0 l/m 6,3 km/h (2 Bft) O 101 0 min 0,000 mm 0,0 UV-I 60 W/m -14,8 C -0,1 C 11,3 km/h (2 Bft)
25.02.2018 21:18 -0,1 C -0,1 C -0,1 C 32 % 1022,8 hPa 0,0 l/m 5,8 km/h (2 Bft) O-NO 65 0 min 0,000 mm 0,0 UV-I 60 W/m -14,8 C -0,1 C 11,3 km/h (2 Bft)
25.02.2018 21:16 -0,1 C -0,1 C -0,1 C 32 % 1022,8 hPa 0,0 l/m 3,6 km/h (1 Bft) O-NO 67 0 min 0,000 mm 0,0 UV-I 60 W/m -14,8 C -0,1 C 8,0 km/h (2 Bft)
25.02.2018 21:14 -0,1 C -0,1 C -0,1 C 32 % 1022,7 hPa 0,0 l/m 5,6 km/h (2 Bft) O-NO 57 0 min 0,000 mm 0,0 UV-I 60 W/m -14,8 C -0,1 C 9,7 km/h (2 Bft)
25.02.2018 21:12 -0,1 C -0,1 C -0,1 C 32 % 1022,8 hPa 0,0 l/m 7,4 km/h (2 Bft) NO 53 0 min 0,000 mm 0,0 UV-I 60 W/m -14,8 C -1,1 C 17,7 km/h (3 Bft)
25.02.2018 21:10 -0,1 C -0,1 C -0,1 C 32 % 1022,7 hPa 0,0 l/m 6,1 km/h (2 Bft) O 91 0 min 0,000 mm 0,0 UV-I 60 W/m -14,8 C -0,1 C 16,1 km/h (3 Bft)
25.02.2018 21:08 -0,1 C -0,1 C -0,1 C 32 % 1022,6 hPa 0,0 l/m 5,3 km/h (1 Bft) O-NO 73 0 min 0,000 mm 0,0 UV-I 60 W/m -14,8 C -0,1 C 11,3 km/h (2 Bft)
25.02.2018 21:06 -0,1 C -0,1 C -0,1 C 32 % 1022,7 hPa 0,0 l/m 3,2 km/h (1 Bft) NO 48 0 min 0,000 mm 0,0 UV-I 60 W/m -14,8 C -0,1 C 9,7 km/h (2 Bft)
25.02.2018 21:04 -0,1 C -0,1 C -0,1 C 32 % 1022,7 hPa 0,0 l/m 3,7 km/h (1 Bft) NO 55 0 min 0,000 mm 0,0 UV-I 60 W/m -14,8 C -0,1 C 11,3 km/h (2 Bft)
25.02.2018 21:02 -0,1 C -0,1 C -0,1 C 32 % 1022,7 hPa 0,0 l/m 7,3 km/h (2 Bft) O-NO 76 0 min 0,000 mm 0,0 UV-I 60 W/m -14,8 C -1,0 C 14,5 km/h (3 Bft)
25.02.2018 21:00 -0,1 C -0,1 C -0,1 C 32 % 1022,6 hPa 0,0 l/m 7,5 km/h (2 Bft) O-NO 65 0 min 0,000 mm 0,0 UV-I 60 W/m -14,8 C -1,2 C 16,1 km/h (3 Bft)
25.02.2018 20:58 -0,1 C -0,1 C -0,1 C 32 % 1022,6 hPa 0,0 l/m 8,6 km/h (2 Bft) O-NO 77 0 min 0,000 mm 0,0 UV-I 60 W/m -14,8 C -2,3 C 12,9 km/h (3 Bft)
25.02.2018 20:56 -0,1 C -0,1 C -0,1 C 32 % 1022,6 hPa 0,0 l/m 6,4 km/h (2 Bft) O-NO 57 0 min 0,000 mm 0,0 UV-I 60 W/m -14,8 C -0,1 C 11,3 km/h (2 Bft)
25.02.2018 20:54 -0,1 C -0,1 C -0,1 C 32 % 1022,5 hPa 0,0 l/m 6,8 km/h (2 Bft) O 90 0 min 0,000 mm 0,0 UV-I 60 W/m -14,8 C -0,5 C 11,3 km/h (2 Bft)
25.02.2018 20:52 -0,1 C -0,1 C -0,1 C 32 % 1022,5 hPa 0,0 l/m 6,1 km/h (2 Bft) O 95 0 min 0,000 mm 0,0 UV-I 60 W/m -14,8 C -0,1 C 11,3 km/h (2 Bft)
25.02.2018 20:50 -0,1 C -0,1 C -0,1 C 32 % 1022,5 hPa 0,0 l/m 3,5 km/h (1 Bft) O 88 0 min 0,000 mm 0,0 UV-I 60 W/m -14,8 C -0,1 C 8,0 km/h (2 Bft)
25.02.2018 20:48 -0,1 C -0,1 C -0,1 C 32 % 1022,5 hPa 0,0 l/m 6,4 km/h (2 Bft) O 94 0 min 0,000 mm 0,0 UV-I 60 W/m -14,8 C -0,1 C 16,1 km/h (3 Bft)
25.02.2018 20:46 -0,1 C -0,1 C -0,1 C 32 % 1022,5 hPa 0,0 l/m 11,1 km/h (2 Bft) NO 53 0 min 0,000 mm 0,0 UV-I 60 W/m -14,8 C -4,4 C 20,9 km/h (4 Bft)
25.02.2018 20:44 -0,1 C -0,1 C -0,1 C 32 % 1022,6 hPa 0,0 l/m 6,0 km/h (2 Bft) O 92 0 min 0,000 mm 0,0 UV-I 60 W/m -14,8 C -0,1 C 11,3 km/h (2 Bft)
25.02.2018 20:42 -0,1 C -0,1 C -0,1 C 32 % 1022,5 hPa 0,0 l/m 7,4 km/h (2 Bft) O 90 0 min 0,000 mm 0,0 UV-I 60 W/m -14,8 C -1,1 C 11,3 km/h (2 Bft)
25.02.2018 20:40 -0,1 C -0,1 C -0,1 C 32 % 1022,5 hPa 0,0 l/m 7,5 km/h (2 Bft) O-NO 57 0 min 0,000 mm 0,0 UV-I 60 W/m -14,8 C -1,2 C 19,3 km/h (3 Bft)
25.02.2018 20:38 -0,1 C -0,1 C -0,1 C 32 % 1022,5 hPa 0,0 l/m 4,5 km/h (1 Bft) O-NO 73 0 min 0,000 mm 0,0 UV-I 60 W/m -14,8 C -0,1 C 8,0 km/h (2 Bft)
25.02.2018 20:36 -0,1 C -0,1 C -0,1 C 32 % 1022,6 hPa 0,0 l/m 7,1 km/h (2 Bft) O-NO 57 0 min 0,000 mm 0,0 UV-I 60 W/m -14,8 C -0,8 C 11,3 km/h (2 Bft)
25.02.2018 20:34 -0,1 C -0,1 C -0,1 C 32 % 1022,5 hPa 0,0 l/m 7,4 km/h (2 Bft) O 86 0 min 0,000 mm 0,0 UV-I 60 W/m -14,8 C -1,1 C 16,1 km/h (3 Bft)
25.02.2018 20:32 -0,1 C -0,1 C -0,1 C 32 % 1022,6 hPa 0,0 l/m 8,4 km/h (2 Bft) O-NO 75 0 min 0,000 mm 0,0 UV-I 60 W/m -14,8 C -2,1 C 16,1 km/h (3 Bft)
25.02.2018 20:30 -0,1 C -0,1 C -0,1 C 32 % 1022,5 hPa 0,0 l/m 7,5 km/h (2 Bft) NO 39 0 min 0,000 mm 0,0 UV-I 60 W/m -14,8 C -1,2 C 14,5 km/h (3 Bft)
25.02.2018 20:28 -0,1 C -0,1 C -0,1 C 32 % 1022,6 hPa 0,0 l/m 6,5 km/h (2 Bft) O-NO 74 0 min 0,000 mm 0,0 UV-I 60 W/m -14,8 C -0,2 C 11,3 km/h (2 Bft)
25.02.2018 20:26 -0,1 C -0,1 C -0,1 C 32 % 1022,5 hPa 0,0 l/m 4,4 km/h (1 Bft) O-NO 63 0 min 0,000 mm 0,0 UV-I 60 W/m -14,8 C -0,1 C 8,0 km/h (2 Bft)
25.02.2018 20:24 -0,1 C -0,1 C -0,1 C 32 % 1022,5 hPa 0,0 l/m 9,5 km/h (2 Bft) O 94 0 min 0,000 mm 0,0 UV-I 60 W/m -14,8 C -3,1 C 16,1 km/h (3 Bft)
25.02.2018 20:22 -0,1 C -0,1 C -0,1 C 32 % 1022,5 hPa 0,0 l/m 7,6 km/h (2 Bft) NO 48 0 min 0,000 mm 0,0 UV-I 60 W/m -14,8 C -1,4 C 17,7 km/h (3 Bft)
25.02.2018 20:20 -0,1 C -0,1 C -0,1 C 32 % 1022,5 hPa 0,0 l/m 7,5 km/h (2 Bft) O-NO 76 0 min 0,000 mm 0,0 UV-I 60 W/m -14,8 C -1,2 C 11,3 km/h (2 Bft)
25.02.2018 20:18 -0,1 C -0,1 C -0,1 C 32 % 1022,6 hPa 0,0 l/m 6,0 km/h (2 Bft) O 101 0 min 0,000 mm 0,0 UV-I 60 W/m -14,8 C -0,1 C 14,5 km/h (3 Bft)
25.02.2018 20:16 -0,1 C -0,1 C -0,1 C 32 % 1022,5 hPa 0,0 l/m 6,4 km/h (2 Bft) O 85 0 min 0,000 mm 0,0 UV-I 60 W/m -14,8 C -0,1 C 11,3 km/h (2 Bft)
25.02.2018 20:14 -0,1 C -0,1 C -0,1 C 32 % 1022,5 hPa 0,0 l/m 3,4 km/h (1 Bft) O-NO 59 0 min 0,000 mm 0,0 UV-I 60 W/m -14,8 C -0,1 C 9,7 km/h (2 Bft)
25.02.2018 20:12 -0,1 C -0,1 C -0,1 C 32 % 1022,5 hPa 0,0 l/m 5,9 km/h (2 Bft) O-SO 103 0 min 0,000 mm 0,0 UV-I 60 W/m -14,8 C -0,1 C 11,3 km/h (2 Bft)
25.02.2018 20:10 -0,1 C -0,1 C -0,1 C 32 % 1022,5 hPa 0,0 l/m 7,6 km/h (2 Bft) NO 52 0 min 0,000 mm 0,0 UV-I 60 W/m -14,8 C -1,4 C 19,3 km/h (3 Bft)
25.02.2018 20:08 -0,1 C -0,1 C -0,1 C 32 % 1022,5 hPa 0,0 l/m 6,1 km/h (2 Bft) O-SO 103 0 min 0,000 mm 0,0 UV-I 60 W/m -14,8 C -0,1 C 11,3 km/h (2 Bft)
25.02.2018 20:06 -0,1 C -0,1 C -0,1 C 32 % 1022,5 hPa 0,0 l/m 3,8 km/h (1 Bft) O-NO 74 0 min 0,000 mm 0,0 UV-I 60 W/m -14,8 C -0,1 C 6,4 km/h (2 Bft)
25.02.2018 20:04 -0,1 C -0,1 C -0,1 C 32 % 1022,5 hPa 0,0 l/m 5,3 km/h (1 Bft) O 99 0 min 0,000 mm 0,0 UV-I 60 W/m -14,8 C -0,1 C 8,0 km/h (2 Bft)
25.02.2018 20:02 -0,1 C -0,1 C -0,1 C 32 % 1022,5 hPa 0,0 l/m 6,4 km/h (2 Bft) NO 53 0 min 0,000 mm 0,0 UV-I 60 W/m -14,8 C -0,1 C 11,3 km/h (2 Bft)
25.02.2018 20:00 -0,1 C -0,1 C -0,1 C 32 % 1022,5 hPa 0,0 l/m 7,2 km/h (2 Bft) O 80 0 min 0,000 mm 0,0 UV-I 60 W/m -14,8 C -0,9 C 14,5 km/h (3 Bft)
25.02.2018 19:58 -0,1 C -0,1 C -0,1 C 32 % 1022,5 hPa 0,0 l/m 3,0 km/h (1 Bft) O-NO 70 0 min 0,000 mm 0,0 UV-I 60 W/m -14,8 C -0,1 C 6,4 km/h (2 Bft)
25.02.2018 19:56 -0,1 C -0,1 C -0,1 C 32 % 1022,5 hPa 0,0 l/m 6,1 km/h (2 Bft) O 98 0 min 0,000 mm 0,0 UV-I 60 W/m -14,8 C -0,1 C 9,7 km/h (2 Bft)
25.02.2018 19:54 -0,1 C -0,1 C -0,1 C 32 % 1022,5 hPa 0,0 l/m 4,3 km/h (1 Bft) O 79 0 min 0,000 mm 0,0 UV-I 60 W/m -14,8 C -0,1 C 8,0 km/h (2 Bft)
25.02.2018 19:52 -0,1 C -0,1 C -0,1 C 32 % 1022,5 hPa 0,0 l/m 5,9 km/h (2 Bft) NO 39 0 min 0,000 mm 0,0 UV-I 60 W/m -14,8 C -0,1 C 11,3 km/h (2 Bft)
25.02.2018 19:50 -0,1 C -0,1 C -0,1 C 32 % 1022,5 hPa 0,0 l/m 5,6 km/h (2 Bft) O-NO 67 0 min 0,000 mm 0,0 UV-I 60 W/m -14,8 C -0,1 C 9,7 km/h (2 Bft)
25.02.2018 19:48 -0,1 C -0,1 C -0,1 C 32 % 1022,5 hPa 0,0 l/m 6,7 km/h (2 Bft) O-NO 71 0 min 0,000 mm 0,0 UV-I 60 W/m -14,8 C -0,4 C 11,3 km/h (2 Bft)
25.02.2018 19:46 -0,1 C -0,1 C -0,1 C 32 % 1022,6 hPa 0,0 l/m 5,0 km/h (1 Bft) NO 55 0 min 0,000 mm 0,0 UV-I 60 W/m -14,8 C -0,1 C 9,7 km/h (2 Bft)
25.02.2018 19:44 -0,1 C -0,1 C -0,1 C 32 % 1022,6 hPa 0,0 l/m 6,2 km/h (2 Bft) NO 55 0 min 0,000 mm 0,0 UV-I 60 W/m -14,8 C -0,1 C 11,3 km/h (2 Bft)
25.02.2018 19:42 -0,1 C -0,1 C -0,1 C 32 % 1022,5 hPa 0,0 l/m 8,2 km/h (2 Bft) O-NO 73 0 min 0,000 mm 0,0 UV-I 60 W/m -14,8 C -1,9 C 19,3 km/h (3 Bft)
25.02.2018 19:40 -0,1 C -0,1 C -0,1 C 32 % 1022,5 hPa 0,0 l/m 7,3 km/h (2 Bft) NO 52 0 min 0,000 mm 0,0 UV-I 60 W/m -14,8 C -1,0 C 12,9 km/h (3 Bft)
25.02.2018 19:38 -0,1 C -0,1 C -0,1 C 32 % 1022,5 hPa 0,0 l/m 4,8 km/h (1 Bft) O-NO 71 0 min 0,000 mm 0,0 UV-I 60 W/m -14,8 C -0,1 C 8,0 km/h (2 Bft)
25.02.2018 19:36 -0,1 C -0,1 C -0,1 C 32 % 1022,5 hPa 0,0 l/m 6,7 km/h (2 Bft) O-NO 77 0 min 0,000 mm 0,0 UV-I 60 W/m -14,8 C -0,4 C 11,3 km/h (2 Bft)
25.02.2018 19:34 -0,1 C -0,1 C -0,1 C 32 % 1022,5 hPa 0,0 l/m 8,4 km/h (2 Bft) O-NO 63 0 min 0,000 mm 0,0 UV-I 60 W/m -14,8 C -2,1 C 17,7 km/h (3 Bft)
25.02.2018 19:32 -0,1 C -0,1 C -0,1 C 32 % 1022,5 hPa 0,0 l/m 7,3 km/h (2 Bft) O-NO 72 0 min 0,000 mm 0,0 UV-I 60 W/m -14,8 C -1,0 C 14,5 km/h (3 Bft)
25.02.2018 19:30 -0,1 C -0,1 C -0,1 C 32 % 1022,5 hPa 0,0 l/m 7,2 km/h (2 Bft) O-NO 65 0 min 0,000 mm 0,0 UV-I 60 W/m -14,8 C -0,9 C 12,9 km/h (3 Bft)
25.02.2018 19:28 -0,1 C -0,1 C -0,1 C 32 % 1022,6 hPa 0,0 l/m 3,9 km/h (1 Bft) O-NO 71 0 min 0,000 mm 0,0 UV-I 60 W/m -14,8 C -0,1 C 9,7 km/h (2 Bft)
25.02.2018 19:26 -0,1 C -0,1 C -0,1 C 32 % 1022,6 hPa 0,0 l/m 6,9 km/h (2 Bft) O-NO 71 0 min 0,000 mm 0,0 UV-I 60 W/m -14,8 C -0,6 C 9,7 km/h (2 Bft)
25.02.2018 19:24 -0,1 C -0,1 C -0,1 C 32 % 1022,5 hPa 0,0 l/m 5,4 km/h (2 Bft) O-NO 68 0 min 0,000 mm 0,0 UV-I 60 W/m -14,8 C -0,1 C 14,5 km/h (3 Bft)
25.02.2018 19:22 -0,1 C -0,1 C -0,1 C 32 % 1022,5 hPa 0,0 l/m 5,7 km/h (2 Bft) NO 52 0 min 0,000 mm 0,0 UV-I 60 W/m -14,8 C -0,1 C 11,3 km/h (2 Bft)
25.02.2018 19:20 -0,1 C -0,1 C -0,1 C 32 % 1022,5 hPa 0,0 l/m 7,5 km/h (2 Bft) O-NO 78 0 min 0,000 mm 0,0 UV-I 60 W/m -14,8 C -1,2 C 11,3 km/h (2 Bft)
25.02.2018 19:18 -0,1 C -0,1 C -0,1 C 32 % 1022,5 hPa 0,0 l/m 6,6 km/h (2 Bft) O 90 0 min 0,000 mm 0,0 UV-I 60 W/m -14,8 C -0,3 C 17,7 km/h (3 Bft)
25.02.2018 19:16 -0,1 C -0,1 C -0,1 C 32 % 1022,5 hPa 0,0 l/m 5,4 km/h (2 Bft) O-NO 76 0 min 0,000 mm 0,0 UV-I 60 W/m -14,8 C -0,1 C 11,3 km/h (2 Bft)
25.02.2018 19:14 -0,1 C -0,1 C -0,1 C 32 % 1022,6 hPa 0,0 l/m 5,1 km/h (1 Bft) O-NO 66 0 min 0,000 mm 0,0 UV-I 60 W/m -14,8 C -0,1 C 11,3 km/h (2 Bft)
25.02.2018 19:12 -0,1 C -0,1 C -0,1 C 32 % 1022,6 hPa 0,0 l/m 7,9 km/h (2 Bft) NO 44 0 min 0,000 mm 0,0 UV-I 60 W/m -14,8 C -1,7 C 11,3 km/h (2 Bft)
25.02.2018 19:10 -0,1 C -0,1 C -0,1 C 32 % 1022,7 hPa 0,0 l/m 6,4 km/h (2 Bft) NO 56 0 min 0,000 mm 0,0 UV-I 60 W/m -14,8 C -0,1 C 12,9 km/h (3 Bft)
25.02.2018 19:08 -0,1 C -0,1 C -0,1 C 32 % 1022,5 hPa 0,0 l/m 6,7 km/h (2 Bft) NO 44 0 min 0,000 mm 0,0 UV-I 60 W/m -14,8 C -0,4 C 11,3 km/h (2 Bft)
25.02.2018 19:06 -0,1 C -0,1 C -0,1 C 32 % 1022,6 hPa 0,0 l/m 8,5 km/h (2 Bft) O-SO 108 0 min 0,000 mm 0,0 UV-I 60 W/m -14,8 C -2,2 C 16,1 km/h (3 Bft)
25.02.2018 19:04 -0,1 C -0,1 C -0,1 C 32 % 1022,5 hPa 0,0 l/m 6,4 km/h (2 Bft) O 83 0 min 0,000 mm 0,0 UV-I 60 W/m -14,8 C -0,1 C 12,9 km/h (3 Bft)
25.02.2018 19:02 -0,1 C -0,1 C -0,1 C 32 % 1022,5 hPa 0,0 l/m 6,9 km/h (2 Bft) O-NO 69 0 min 0,000 mm 0,0 UV-I 60 W/m -14,8 C -0,6 C 11,3 km/h (2 Bft)
25.02.2018 19:00 -0,1 C -0,1 C -0,1 C 32 % 1022,5 hPa 0,0 l/m 5,6 km/h (2 Bft) NO 48 0 min 0,000 mm 0,0 UV-I 60 W/m -14,8 C -0,1 C 9,7 km/h (2 Bft)
25.02.2018 18:58 -0,1 C -0,1 C -0,1 C 32 % 1022,5 hPa 0,0 l/m 4,4 km/h (1 Bft) O-NO 67 0 min 0,000 mm 0,0 UV-I 60 W/m -14,8 C -0,1 C 8,0 km/h (2 Bft)
25.02.2018 18:56 -0,1 C -0,1 C -0,1 C 32 % 1022,5 hPa 0,0 l/m 3,7 km/h (1 Bft) NO 40 0 min 0,000 mm 0,0 UV-I 60 W/m -14,8 C -0,1 C 8,0 km/h (2 Bft)
25.02.2018 18:54 -0,1 C -0,1 C -0,1 C 32 % 1022,6 hPa 0,0 l/m 6,0 km/h (2 Bft) O-NO 63 0 min 0,000 mm 0,0 UV-I 60 W/m -14,8 C -0,1 C 9,7 km/h (2 Bft)
25.02.2018 18:52 -0,1 C -0,1 C -0,1 C 32 % 1022,5 hPa 0,0 l/m 6,1 km/h (2 Bft) O-NO 68 0 min 0,000 mm 0,0 UV-I 60 W/m -14,8 C -0,1 C 12,9 km/h (3 Bft)
25.02.2018 18:50 -0,1 C -0,1 C -0,1 C 32 % 1022,4 hPa 0,0 l/m 5,4 km/h (2 Bft) O-NO 66 0 min 0,000 mm 0,0 UV-I 60 W/m -14,8 C -0,1 C 9,7 km/h (2 Bft)
25.02.2018 18:48 -0,1 C -0,1 C -0,1 C 32 % 1022,4 hPa 0,0 l/m 5,2 km/h (1 Bft) O-NO 71 0 min 0,000 mm 0,0 UV-I 60 W/m -14,8 C -0,1 C 8,0 km/h (2 Bft)
25.02.2018 18:46 -0,1 C -0,1 C -0,1 C 32 % 1022,4 hPa 0,0 l/m 5,2 km/h (1 Bft) O 83 0 min 0,000 mm 0,0 UV-I 60 W/m -14,8 C -0,1 C 9,7 km/h (2 Bft)
25.02.2018 18:44 -0,1 C -0,1 C -0,1 C 32 % 1022,4 hPa 0,0 l/m 6,3 km/h (2 Bft) O 87 0 min 0,000 mm 0,0 UV-I 60 W/m -14,8 C -0,1 C 11,3 km/h (2 Bft)
25.02.2018 18:42 -0,1 C -0,1 C -0,1 C 32 % 1022,5 hPa 0,0 l/m 3,6 km/h (1 Bft) O 94 0 min 0,000 mm 0,0 UV-I 60 W/m -14,8 C -0,1 C 8,0 km/h (2 Bft)
25.02.2018 18:40 -0,1 C -0,1 C -0,1 C 32 % 1022,5 hPa 0,0 l/m 3,2 km/h (1 Bft) O-NO 63 0 min 0,000 mm 0,0 UV-I 60 W/m -14,8 C -0,1 C 8,0 km/h (2 Bft)
25.02.2018 18:38 -0,1 C -0,1 C -0,1 C 32 % 1022,5 hPa 0,0 l/m 4,3 km/h (1 Bft) O 85 0 min 0,000 mm 0,0 UV-I 60 W/m -14,8 C -0,1 C 8,0 km/h (2 Bft)
25.02.2018 18:36 -0,1 C -0,1 C -0,1 C 32 % 1022,5 hPa 0,0 l/m 7,5 km/h (2 Bft) NO 51 0 min 0,000 mm 0,0 UV-I 60 W/m -14,8 C -1,2 C 14,5 km/h (3 Bft)
25.02.2018 18:34 -0,1 C -0,1 C -0,1 C 32 % 1022,5 hPa 0,0 l/m 5,2 km/h (1 Bft) O 82 0 min 0,000 mm 0,0 UV-I 60 W/m -14,8 C -0,1 C 9,7 km/h (2 Bft)
25.02.2018 18:32 -0,1 C -0,1 C -0,1 C 32 % 1022,4 hPa 0,0 l/m 4,3 km/h (1 Bft) O 80 0 min 0,000 mm 0,0 UV-I 60 W/m -14,8 C -0,1 C 8,0 km/h (2 Bft)
25.02.2018 18:30 -0,1 C -0,1 C -0,1 C 32 % 1022,4 hPa 0,0 l/m 3,6 km/h (1 Bft) O 89 0 min 0,000 mm 0,0 UV-I 60 W/m -14,8 C -0,1 C 8,0 km/h (2 Bft)
25.02.2018 18:28 -0,1 C -0,1 C -0,1 C 32 % 1022,4 hPa 0,0 l/m 8,5 km/h (2 Bft) NO 43 0 min 0,000 mm 0,0 UV-I 60 W/m -14,8 C -2,2 C 17,7 km/h (3 Bft)
25.02.2018 18:26 -0,1 C -0,1 C -0,1 C 32 % 1022,5 hPa 0,0 l/m 8,5 km/h (2 Bft) O-NO 74 0 min 0,000 mm 0,0 UV-I 60 W/m -14,8 C -2,2 C 16,1 km/h (3 Bft)
25.02.2018 18:24 -0,1 C -0,1 C -0,1 C 32 % 1022,4 hPa 0,0 l/m 6,0 km/h (2 Bft) O-NO 67 0 min 0,000 mm 0,0 UV-I 60 W/m -14,8 C -0,1 C 11,3 km/h (2 Bft)
25.02.2018 18:22 -0,1 C -0,1 C -0,1 C 32 % 1022,4 hPa 0,0 l/m 6,3 km/h (2 Bft) NO 55 0 min 0,000 mm 0,0 UV-I 60 W/m -14,8 C -0,1 C 17,7 km/h (3 Bft)
25.02.2018 18:20 -0,1 C -0,1 C -0,1 C 32 % 1022,3 hPa 0,0 l/m 7,6 km/h (2 Bft) O-NO 61 0 min 0,000 mm 0,0 UV-I 60 W/m -14,8 C -1,4 C 12,9 km/h (3 Bft)
25.02.2018 18:18 -0,1 C -0,1 C -0,1 C 32 % 1022,3 hPa 0,0 l/m 6,0 km/h (2 Bft) O-NO 67 0 min 0,000 mm 0,0 UV-I 60 W/m -14,8 C -0,1 C 16,1 km/h (3 Bft)
25.02.2018 18:16 -0,1 C -0,1 C -0,1 C 32 % 1022,3 hPa 0,0 l/m 6,0 km/h (2 Bft) O-NO 75 0 min 0,000 mm 0,0 UV-I 60 W/m -14,8 C -0,1 C 11,3 km/h (2 Bft)
25.02.2018 18:14 -0,1 C -0,1 C -0,1 C 32 % 1022,2 hPa 0,0 l/m 8,7 km/h (2 Bft) NO 38 0 min 0,000 mm 0,0 UV-I 60 W/m -14,8 C -2,4 C 16,1 km/h (3 Bft)
25.02.2018 18:12 -0,1 C -0,1 C -0,1 C 32 % 1022,2 hPa 0,0 l/m 5,7 km/h (2 Bft) NO 56 0 min 0,000 mm 0,0 UV-I 60 W/m -14,8 C -0,1 C 11,3 km/h (2 Bft)
25.02.2018 18:10 -0,1 C -0,1 C -0,1 C 32 % 1022,1 hPa 0,0 l/m 7,0 km/h (2 Bft) O 83 0 min 0,000 mm 0,0 UV-I 60 W/m -14,8 C -0,7 C 17,7 km/h (3 Bft)
25.02.2018 18:08 -0,1 C -0,1 C -0,1 C 32 % 1022,2 hPa 0,0 l/m 6,4 km/h (2 Bft) O 82 0 min 0,000 mm 0,0 UV-I 60 W/m -14,8 C -0,1 C 14,5 km/h (3 Bft)
25.02.2018 18:06 -0,1 C -0,1 C -0,1 C 32 % 1022,1 hPa 0,0 l/m 4,1 km/h (1 Bft) O-NO 63 0 min 0,000 mm 0,0 UV-I 60 W/m -14,8 C -0,1 C 6,4 km/h (2 Bft)
25.02.2018 18:04 -0,1 C -0,1 C -0,1 C 32 % 1022,2 hPa 0,0 l/m 4,9 km/h (1 Bft) NO 54 0 min 0,000 mm 0,0 UV-I 60 W/m -14,8 C -0,1 C 9,7 km/h (2 Bft)
25.02.2018 18:02 -0,1 C -0,1 C -0,1 C 32 % 1022,1 hPa 0,0 l/m 4,8 km/h (1 Bft) O-NO 74 0 min 0,000 mm 0,0 UV-I 60 W/m -14,8 C -0,1 C 9,7 km/h (2 Bft)
25.02.2018 18:00 -0,1 C -0,1 C -0,1 C 32 % 1022,1 hPa 0,0 l/m 5,1 km/h (1 Bft) O 82 0 min 0,000 mm 0,0 UV-I 60 W/m -14,8 C -0,1 C 9,7 km/h (2 Bft)
25.02.2018 17:58 -0,1 C -0,1 C -0,1 C 32 % 1022,1 hPa 0,0 l/m 6,1 km/h (2 Bft) O-NO 73 0 min 0,000 mm 0,0 UV-I 60 W/m -14,8 C -0,1 C 9,7 km/h (2 Bft)
25.02.2018 17:56 -0,1 C -0,1 C -0,1 C 32 % 1022,1 hPa 0,0 l/m 3,3 km/h (1 Bft) O-SO 116 0 min 0,000 mm 0,0 UV-I 60 W/m -14,8 C -0,1 C 11,3 km/h (2 Bft)
25.02.2018 17:54 -0,1 C -0,1 C -0,1 C 32 % 1022,1 hPa 0,0 l/m 4,5 km/h (1 Bft) O-SO 107 0 min 0,000 mm 0,0 UV-I 60 W/m -14,8 C -0,1 C 9,7 km/h (2 Bft)
25.02.2018 17:52 -0,1 C -0,1 C -0,1 C 32 % 1022,1 hPa 0,0 l/m 4,8 km/h (1 Bft) O 89 2 min 0,000 mm 0,0 UV-I 60 W/m -14,8 C -0,1 C 9,7 km/h (2 Bft)
25.02.2018 17:50 -0,1 C -0,1 C -0,1 C 32 % 1022,2 hPa 0,0 l/m 4,7 km/h (1 Bft) O 92 2 min 0,000 mm 0,0 UV-I 60 W/m -14,8 C -0,1 C 14,5 km/h (3 Bft)
25.02.2018 17:48 -0,1 C -0,1 C -0,1 C 32 % 1021,9 hPa 0,0 l/m 6,9 km/h (2 Bft) N-NO 30 2 min 0,000 mm 0,0 UV-I 60 W/m -14,8 C -0,6 C 11,3 km/h (2 Bft)
25.02.2018 17:46 -0,1 C -0,1 C -0,1 C 32 % 1021,9 hPa 0,0 l/m 4,4 km/h (1 Bft) O 93 2 min 0,000 mm 0,0 UV-I 60 W/m -14,8 C -0,1 C 14,5 km/h (3 Bft)
25.02.2018 17:44 -0,1 C -0,1 C -0,1 C 32 % 1021,9 hPa 0,0 l/m 1,5 km/h (1 Bft) O-NO 71 2 min 0,000 mm 0,0 UV-I 60 W/m -14,8 C -0,1 C 6,4 km/h (2 Bft)
25.02.2018 17:42 -0,1 C -0,1 C -0,1 C 32 % 1022,0 hPa 0,0 l/m 3,7 km/h (1 Bft) O 95 2 min 0,000 mm 0,0 UV-I 60 W/m -14,8 C -0,1 C 8,0 km/h (2 Bft)
25.02.2018 17:40 -0,1 C -0,1 C -0,1 C 32 % 1022,0 hPa 0,0 l/m 3,0 km/h (1 Bft) O 90 2 min 0,000 mm 0,0 UV-I 60 W/m -14,8 C -0,1 C 6,4 km/h (2 Bft)
25.02.2018 17:38 -0,1 C -0,1 C -0,1 C 32 % 1022,0 hPa 0,0 l/m 6,3 km/h (2 Bft) SO 139 2 min 0,000 mm 0,0 UV-I 60 W/m -14,8 C -0,1 C 11,3 km/h (2 Bft)
25.02.2018 17:36 -0,1 C -0,1 C -0,1 C 32 % 1022,0 hPa 0,0 l/m 5,2 km/h (1 Bft) O-NO 62 2 min 0,000 mm 0,0 UV-I 60 W/m -14,8 C -0,1 C 12,9 km/h (3 Bft)
25.02.2018 17:34 -0,1 C -0,1 C -0,1 C 32 % 1021,9 hPa 0,0 l/m 1,7 km/h (1 Bft) O-SO 111 2 min 0,000 mm 0,0 UV-I 60 W/m -14,8 C -0,1 C 6,4 km/h (2 Bft)
25.02.2018 17:32 -0,1 C -0,1 C -0,1 C 32 % 1022,0 hPa 0,0 l/m 8,2 km/h (2 Bft) O-SO 107 2 min 0,000 mm 0,0 UV-I 60 W/m -14,8 C -1,9 C 14,5 km/h (3 Bft)
25.02.2018 17:30 -0,1 C -0,1 C -0,1 C 32 % 1021,9 hPa 0,0 l/m 8,1 km/h (2 Bft) O-NO 63 2 min 0,000 mm 0,0 UV-I 60 W/m -14,8 C -1,8 C 16,1 km/h (3 Bft)
25.02.2018 17:28 -0,1 C -0,1 C -0,1 C 32 % 1022,0 hPa 0,0 l/m 5,5 km/h (2 Bft) O 90 2 min 0,000 mm 0,0 UV-I 60 W/m -14,8 C -0,1 C 16,1 km/h (3 Bft)
25.02.2018 17:26 -0,1 C -0,1 C -0,1 C 32 % 1022,0 hPa 0,0 l/m 8,9 km/h (2 Bft) O-SO 105 2 min 0,000 mm 0,0 UV-I 60 W/m -14,8 C -2,6 C 19,3 km/h (3 Bft)
25.02.2018 17:24 -0,1 C -0,1 C -0,1 C 32 % 1022,0 hPa 0,0 l/m 10,3 km/h (2 Bft) O-SO 114 2 min 0,000 mm 0,0 UV-I 60 W/m -14,8 C -3,8 C 17,7 km/h (3 Bft)
25.02.2018 17:22 -0,1 C -0,1 C -0,1 C 32 % 1022,0 hPa 0,0 l/m 5,2 km/h (1 Bft) O-SO 105 2 min 0,000 mm 0,0 UV-I 60 W/m -14,8 C -0,1 C 16,1 km/h (3 Bft)
25.02.2018 17:20 -0,1 C -0,1 C -0,1 C 32 % 1021,9 hPa 0,0 l/m 8,8 km/h (2 Bft) O-SO 102 2 min 0,000 mm 0,0 UV-I 60 W/m -14,8 C -2,5 C 17,7 km/h (3 Bft)
25.02.2018 17:18 -0,1 C -0,1 C -0,1 C 32 % 1022,0 hPa 0,0 l/m 11,0 km/h (2 Bft) O 101 0 min 0,000 mm 0,0 UV-I 58 W/m -14,8 C -4,4 C 19,3 km/h (3 Bft)
25.02.2018 17:16 -0,1 C -0,1 C 0,0 C 33 % 1022,0 hPa 0,0 l/m 9,2 km/h (2 Bft) O 88 0 min 0,000 mm 0,0 UV-I 43 W/m -14,4 C -2,9 C 16,1 km/h (3 Bft)
25.02.2018 17:14 0,0 C 0,0 C 0,1 C 33 % 1022,0 hPa 0,0 l/m 7,5 km/h (2 Bft) O 94 0 min 0,000 mm 0,0 UV-I 39 W/m -14,3 C -1,1 C 12,9 km/h (3 Bft)
25.02.2018 17:12 0,1 C 0,1 C 0,1 C 33 % 1022,0 hPa 0,0 l/m 10,2 km/h (2 Bft) O 88 0 min 0,000 mm 0,0 UV-I 39 W/m -14,2 C -3,5 C 20,9 km/h (4 Bft)
25.02.2018 17:10 0,1 C 0,1 C 0,2 C 33 % 1022,0 hPa 0,0 l/m 5,2 km/h (1 Bft) O-SO 121 0 min 0,000 mm 0,0 UV-I 28 W/m -14,2 C 0,1 C 14,5 km/h (3 Bft)
25.02.2018 17:08 0,2 C 0,2 C 0,2 C 33 % 1022,0 hPa 0,0 l/m 4,5 km/h (1 Bft) O 80 0 min 0,000 mm 0,0 UV-I 37 W/m -14,1 C 0,2 C 8,0 km/h (2 Bft)
25.02.2018 17:06 0,2 C 0,2 C 0,3 C 32 % 1022,0 hPa 0,0 l/m 9,0 km/h (2 Bft) O-SO 104 2 min 0,000 mm 0,0 UV-I 83 W/m -14,5 C -2,4 C 19,3 km/h (3 Bft)
25.02.2018 17:04 0,3 C 0,3 C 0,3 C 32 % 1021,9 hPa 0,0 l/m 8,0 km/h (2 Bft) O-SO 121 2 min 0,000 mm 0,0 UV-I 103 W/m -14,4 C -1,3 C 14,5 km/h (3 Bft)
25.02.2018 17:02 0,3 C 0,3 C 0,4 C 32 % 1022,0 hPa 0,0 l/m 6,4 km/h (2 Bft) O-NO 78 2 min 0,000 mm 0,0 UV-I 115 W/m -14,4 C 0,3 C 16,1 km/h (3 Bft)
25.02.2018 17:00 0,4 C 0,4 C 0,5 C 32 % 1021,9 hPa 0,0 l/m 4,7 km/h (1 Bft) O-SO 118 2 min 0,127 mm 0,0 UV-I 120 W/m -14,3 C 0,4 C 9,7 km/h (2 Bft)
25.02.2018 16:58 0,5 C 0,5 C 0,6 C 31 % 1022,0 hPa 0,1 l/m 7,7 km/h (2 Bft) O-SO 102 2 min 0,000 mm 0,0 UV-I 123 W/m -14,6 C -0,8 C 11,3 km/h (2 Bft)
25.02.2018 16:56 0,6 C 0,6 C 0,7 C 31 % 1021,9 hPa 0,0 l/m 8,1 km/h (2 Bft) O 80 2 min 0,000 mm 0,0 UV-I 135 W/m -14,5 C -1,1 C 16,1 km/h (3 Bft)
25.02.2018 16:54 0,7 C 0,7 C 0,8 C 31 % 1021,8 hPa 0,0 l/m 6,3 km/h (2 Bft) O-NO 76 2 min 0,000 mm 0,0 UV-I 133 W/m -14,5 C 0,7 C 9,7 km/h (2 Bft)
25.02.2018 16:52 0,8 C 0,8 C 0,9 C 31 % 1021,9 hPa 0,0 l/m 9,7 km/h (2 Bft) NO 53 2 min 0,000 mm 0,3 UV-I 123 W/m -14,4 C -2,3 C 16,1 km/h (3 Bft)
25.02.2018 16:50 0,9 C 0,9 C 1,0 C 30 % 1021,9 hPa 0,0 l/m 6,3 km/h (2 Bft) SO 138 2 min 0,000 mm 0,5 UV-I 148 W/m -14,7 C 0,9 C 14,5 km/h (3 Bft)
25.02.2018 16:48 1,0 C 1,0 C 1,1 C 30 % 1022,0 hPa 0,0 l/m 13,1 km/h (3 Bft) O 96 2 min 0,000 mm 0,5 UV-I 146 W/m -14,6 C -4,6 C 19,3 km/h (3 Bft)
25.02.2018 16:46 1,1 C 1,1 C 1,1 C 30 % 1021,9 hPa 0,0 l/m 9,9 km/h (2 Bft) O-NO 75 2 min 0,000 mm 0,5 UV-I 156 W/m -14,5 C -2,2 C 16,1 km/h (3 Bft)
25.02.2018 16:44 1,1 C 1,1 C 1,2 C 31 % 1022,0 hPa 0,0 l/m 4,3 km/h (1 Bft) O 82 2 min 0,000 mm 0,5 UV-I 175 W/m -14,1 C 1,1 C 9,7 km/h (2 Bft)
25.02.2018 16:42 1,2 C 1,2 C 1,3 C 31 % 1021,8 hPa 0,0 l/m 7,1 km/h (2 Bft) O 93 2 min 0,000 mm 0,5 UV-I 172 W/m -14,0 C 0,5 C 12,9 km/h (3 Bft)
25.02.2018 16:40 1,3 C 1,3 C 1,4 C 31 % 1021,8 hPa 0,0 l/m 4,3 km/h (1 Bft) O-SO 104 2 min 0,000 mm 0,5 UV-I 183 W/m -13,9 C 1,3 C 8,0 km/h (2 Bft)
25.02.2018 16:38 1,4 C 1,4 C 1,4 C 31 % 1021,9 hPa 0,1 l/m 5,6 km/h (2 Bft) O 86 2 min 0,000 mm 0,5 UV-I 195 W/m -13,8 C 1,4 C 11,3 km/h (2 Bft)
25.02.2018 16:36 1,4 C 1,4 C 1,6 C 30 % 1021,8 hPa 0,0 l/m 9,9 km/h (2 Bft) NO 46 2 min 0,000 mm 0,5 UV-I 202 W/m -14,2 C -1,8 C 19,3 km/h (3 Bft)
25.02.2018 16:34 1,6 C 1,6 C 1,6 C 30 % 1022,0 hPa 0,0 l/m 12,7 km/h (3 Bft) O 90 2 min 0,000 mm 0,5 UV-I 208 W/m -14,1 C -3,6 C 19,3 km/h (3 Bft)
25.02.2018 16:32 1,6 C 1,6 C 1,6 C 31 % 1022,0 hPa 0,0 l/m 10,0 km/h (2 Bft) O 97 2 min 0,000 mm 0,6 UV-I 213 W/m -13,7 C -1,7 C 27,4 km/h (5 Bft)
25.02.2018 16:30 1,6 C 1,6 C 1,7 C 31 % 1021,9 hPa 0,0 l/m 4,9 km/h (1 Bft) O 98 2 min 0,000 mm 0,6 UV-I 219 W/m -13,7 C 1,6 C 9,7 km/h (2 Bft)
25.02.2018 16:28 1,7 C 1,6 C 1,7 C 31 % 1022,0 hPa 0,0 l/m 3,1 km/h (1 Bft) O 84 2 min 0,000 mm 0,6 UV-I 227 W/m -13,6 C 1,7 C 6,4 km/h (2 Bft)
25.02.2018 16:26 1,7 C 1,7 C 1,7 C 32 % 1022,0 hPa 0,0 l/m 5,8 km/h (2 Bft) O 100 2 min 0,000 mm 0,6 UV-I 232 W/m -13,2 C 1,7 C 11,3 km/h (2 Bft)
25.02.2018 16:24 1,7 C 1,7 C 1,8 C 31 % 1022,0 hPa 0,0 l/m 4,5 km/h (1 Bft) O 80 2 min 0,000 mm 0,6 UV-I 240 W/m -13,6 C 1,7 C 11,3 km/h (2 Bft)
25.02.2018 16:22 1,8 C 1,7 C 1,8 C 31 % 1022,0 hPa 0,0 l/m 8,0 km/h (2 Bft) O 88 2 min 0,000 mm 0,6 UV-I 246 W/m -13,5 C 0,2 C 14,5 km/h (3 Bft)
25.02.2018 16:20 1,8 C 1,8 C 1,8 C 31 % 1022,1 hPa 0,0 l/m 9,5 km/h (2 Bft) NO 51 2 min 0,000 mm 0,6 UV-I 253 W/m -13,5 C -1,1 C 17,7 km/h (3 Bft)
25.02.2018 16:18 1,8 C 1,8 C 1,8 C 31 % 1022,0 hPa 0,0 l/m 3,6 km/h (1 Bft) O-SO 103 2 min 0,000 mm 0,6 UV-I 259 W/m -13,5 C 1,8 C 6,4 km/h (2 Bft)
25.02.2018 16:16 1,8 C 1,8 C 1,8 C 31 % 1022,1 hPa 0,0 l/m 7,7 km/h (2 Bft) O-NO 62 2 min 0,000 mm 0,7 UV-I 266 W/m -13,5 C 0,5 C 17,7 km/h (3 Bft)
25.02.2018 16:14 1,8 C 1,8 C 1,8 C 30 % 1022,1 hPa 0,0 l/m 6,2 km/h (2 Bft) O 80 2 min 0,000 mm 0,7 UV-I 269 W/m -13,9 C 1,8 C 20,9 km/h (4 Bft)
25.02.2018 16:12 1,8 C 1,8 C 1,8 C 31 % 1022,1 hPa 0,0 l/m 6,6 km/h (2 Bft) O 79 2 min 0,000 mm 0,7 UV-I 275 W/m -13,5 C 1,6 C 16,1 km/h (3 Bft)
25.02.2018 16:10 1,8 C 1,8 C 1,8 C 31 % 1022,1 hPa 0,0 l/m 4,0 km/h (1 Bft) O-NO 75 2 min 0,000 mm 0,7 UV-I 281 W/m -13,5 C 1,8 C 8,0 km/h (2 Bft)
25.02.2018 16:08 1,8 C 1,8 C 1,9 C 30 % 1022,1 hPa 0,0 l/m 5,0 km/h (1 Bft) O 91 2 min 0,000 mm 0,7 UV-I 287 W/m -13,9 C 1,8 C 14,5 km/h (3 Bft)
25.02.2018 16:06 1,9 C 1,9 C 1,9 C 30 % 1022,1 hPa 0,0 l/m 5,9 km/h (2 Bft) O 91 2 min 0,000 mm 0,7 UV-I 292 W/m -13,8 C 1,9 C 12,9 km/h (3 Bft)
25.02.2018 16:04 1,9 C 1,9 C 2,0 C 30 % 1022,2 hPa 0,0 l/m 11,1 km/h (2 Bft) SO 124 2 min 0,000 mm 0,7 UV-I 289 W/m -13,8 C -2,2 C 20,9 km/h (4 Bft)
25.02.2018 16:02 2,0 C 2,0 C 2,0 C 31 % 1022,2 hPa 0,0 l/m 8,0 km/h (2 Bft) O 82 2 min 0,000 mm 0,7 UV-I 288 W/m -13,3 C 0,5 C 19,3 km/h (3 Bft)
25.02.2018 16:00 2,0 C 2,0 C 2,1 C 30 % 1022,2 hPa 0,0 l/m 12,0 km/h (2 Bft) O-NO 71 2 min 0,178 mm 0,7 UV-I 286 W/m -13,7 C -2,7 C 25,7 km/h (4 Bft)
25.02.2018 15:58 2,1 C 2,1 C 2,1 C 31 % 1022,2 hPa 0,0 l/m 8,3 km/h (2 Bft) O 79 2 min 0,000 mm 0,8 UV-I 293 W/m -13,2 C 0,3 C 14,5 km/h (3 Bft)
25.02.2018 15:56 2,1 C 2,1 C 2,2 C 30 % 1022,1 hPa 0,0 l/m 10,2 km/h (2 Bft) O-NO 75 2 min 0,000 mm 0,8 UV-I 315 W/m -13,6 C -1,3 C 22,5 km/h (4 Bft)
25.02.2018 15:54 2,1 C 2,1 C 2,2 C 31 % 1022,2 hPa 0,0 l/m 9,8 km/h (2 Bft) NO 42 2 min 0,000 mm 0,8 UV-I 320 W/m -13,2 C -1,0 C 17,7 km/h (3 Bft)
25.02.2018 15:52 2,2 C 2,1 C 2,2 C 31 % 1022,2 hPa 0,0 l/m 1,3 km/h (1 Bft) NO 34 2 min 0,000 mm 0,8 UV-I 324 W/m -13,1 C 2,2 C 4,8 km/h (1 Bft)
25.02.2018 15:50 2,1 C 2,1 C 2,2 C 31 % 1022,2 hPa 0,0 l/m 4,0 km/h (1 Bft) O 91 2 min 0,000 mm 0,8 UV-I 331 W/m -13,2 C 2,1 C 9,7 km/h (2 Bft)
25.02.2018 15:48 2,1 C 2,1 C 2,1 C 31 % 1022,2 hPa 0,0 l/m 8,8 km/h (2 Bft) O-NO 78 2 min 0,000 mm 0,8 UV-I 333 W/m -13,2 C -0,2 C 17,7 km/h (3 Bft)
25.02.2018 15:46 2,1 C 2,1 C 2,2 C 32 % 1022,2 hPa 0,0 l/m 3,8 km/h (1 Bft) O-SO 115 2 min 0,000 mm 0,9 UV-I 340 W/m -12,8 C 2,1 C 8,0 km/h (2 Bft)
25.02.2018 15:44 2,1 C 2,1 C 2,2 C 31 % 1022,3 hPa 0,0 l/m 10,3 km/h (2 Bft) O-NO 63 2 min 0,000 mm 0,9 UV-I 345 W/m -13,2 C -1,4 C 20,9 km/h (4 Bft)
25.02.2018 15:42 2,1 C 2,1 C 2,1 C 31 % 1022,2 hPa 0,0 l/m 7,9 km/h (2 Bft) O 91 2 min 0,000 mm 0,9 UV-I 347 W/m -13,2 C 0,7 C 14,5 km/h (3 Bft)
25.02.2018 15:40 2,1 C 2,1 C 2,1 C 32 % 1022,2 hPa 0,0 l/m 6,0 km/h (2 Bft) O-SO 110 2 min 0,000 mm 0,9 UV-I 353 W/m -12,8 C 2,1 C 14,5 km/h (3 Bft)
25.02.2018 15:38 2,1 C 2,1 C 2,1 C 32 % 1022,3 hPa 0,0 l/m 3,4 km/h (1 Bft) O-NO 69 2 min 0,000 mm 0,9 UV-I 356 W/m -12,8 C 2,1 C 8,0 km/h (2 Bft)
25.02.2018 15:36 2,1 C 2,1 C 2,1 C 31 % 1022,2 hPa 0,1 l/m 6,2 km/h (2 Bft) O-NO 69 2 min 0,000 mm 1,0 UV-I 360 W/m -13,2 C 2,1 C 11,3 km/h (2 Bft)
25.02.2018 15:34 2,1 C 2,1 C 2,1 C 31 % 1022,3 hPa 0,0 l/m 6,7 km/h (2 Bft) O-NO 57 2 min 0,000 mm 1,0 UV-I 365 W/m -13,2 C 1,8 C 14,5 km/h (3 Bft)
25.02.2018 15:32 2,1 C 2,1 C 2,1 C 31 % 1022,3 hPa 0,0 l/m 7,5 km/h (2 Bft) NO 46 2 min 0,000 mm 1,0 UV-I 369 W/m -13,2 C 1,0 C 14,5 km/h (3 Bft)
25.02.2018 15:30 2,1 C 2,1 C 2,1 C 31 % 1022,2 hPa 0,0 l/m 5,6 km/h (2 Bft) O-SO 107 2 min 0,000 mm 1,0 UV-I 375 W/m -13,2 C 2,1 C 11,3 km/h (2 Bft)
25.02.2018 15:28 2,1 C 2,1 C 2,1 C 31 % 1022,2 hPa 0,0 l/m 7,2 km/h (2 Bft) O 101 2 min 0,000 mm 1,0 UV-I 379 W/m -13,2 C 1,3 C 14,5 km/h (3 Bft)
25.02.2018 15:26 2,1 C 2,1 C 2,1 C 30 % 1022,4 hPa 0,0 l/m 7,8 km/h (2 Bft) O 97 2 min 0,000 mm 1,0 UV-I 383 W/m -13,6 C 0,7 C 16,1 km/h (3 Bft)
25.02.2018 15:24 2,1 C 2,1 C 2,1 C 30 % 1022,3 hPa 0,0 l/m 9,7 km/h (2 Bft) O-SO 113 2 min 0,000 mm 1,0 UV-I 387 W/m -13,6 C -0,9 C 19,3 km/h (3 Bft)
25.02.2018 15:22 2,1 C 2,1 C 2,1 C 31 % 1022,4 hPa 0,0 l/m 10,3 km/h (2 Bft) O-SO 105 2 min 0,000 mm 1,1 UV-I 389 W/m -13,2 C -1,4 C 19,3 km/h (3 Bft)
25.02.2018 15:20 2,1 C 2,1 C 2,1 C 31 % 1022,3 hPa 0,0 l/m 8,6 km/h (2 Bft) O-NO 69 2 min 0,000 mm 1,1 UV-I 395 W/m -13,2 C 0,0 C 17,7 km/h (3 Bft)
25.02.2018 15:18 2,1 C 2,1 C 2,2 C 32 % 1022,3 hPa 0,0 l/m 12,9 km/h (3 Bft) O-SO 108 2 min 0,000 mm 1,1 UV-I 400 W/m -12,8 C -3,2 C 22,5 km/h (4 Bft)
25.02.2018 15:16 2,2 C 2,1 C 2,2 C 32 % 1022,4 hPa 0,0 l/m 10,7 km/h (2 Bft) O 80 2 min 0,000 mm 1,1 UV-I 404 W/m -12,7 C -1,6 C 16,1 km/h (3 Bft)
25.02.2018 15:14 2,2 C 2,2 C 2,2 C 31 % 1022,3 hPa 0,0 l/m 9,1 km/h (2 Bft) O-NO 67 2 min 0,000 mm 1,1 UV-I 409 W/m -13,1 C -0,3 C 19,3 km/h (3 Bft)
25.02.2018 15:12 2,2 C 2,2 C 2,2 C 31 % 1022,2 hPa 0,0 l/m 6,8 km/h (2 Bft) O 98 2 min 0,000 mm 1,1 UV-I 412 W/m -13,1 C 1,8 C 16,1 km/h (3 Bft)
25.02.2018 15:10 2,2 C 2,2 C 2,2 C 32 % 1022,4 hPa 0,0 l/m 10,9 km/h (2 Bft) O-NO 71 2 min 0,000 mm 1,2 UV-I 417 W/m -12,7 C -1,7 C 20,9 km/h (4 Bft)
25.02.2018 15:08 2,2 C 2,2 C 2,3 C 32 % 1022,4 hPa 0,0 l/m 11,8 km/h (2 Bft) O-NO 72 2 min 0,000 mm 1,2 UV-I 418 W/m -12,7 C -2,3 C 29,0 km/h (5 Bft)
25.02.2018 15:06 2,3 C 2,3 C 2,3 C 32 % 1022,3 hPa 0,0 l/m 6,2 km/h (2 Bft) O-NO 61 2 min 0,000 mm 1,2 UV-I 422 W/m -12,7 C 2,3 C 16,1 km/h (3 Bft)
25.02.2018 15:04 2,3 C 2,3 C 2,3 C 32 % 1022,4 hPa 0,0 l/m 8,4 km/h (2 Bft) O-SO 105 2 min 0,000 mm 1,2 UV-I 426 W/m -12,7 C 0,4 C 19,3 km/h (3 Bft)
25.02.2018 15:02 2,3 C 2,3 C 2,3 C 32 % 1022,4 hPa 0,0 l/m 10,3 km/h (2 Bft) O 95 2 min 0,000 mm 1,2 UV-I 430 W/m -12,7 C -1,1 C 19,3 km/h (3 Bft)
25.02.2018 15:00 2,3 C 2,3 C 2,3 C 33 % 1022,3 hPa 0,0 l/m 7,9 km/h (2 Bft) O 84 2 min 0,229 mm 1,2 UV-I 435 W/m -12,3 C 0,9 C 14,5 km/h (3 Bft)
25.02.2018 14:58 2,3 C 2,3 C 2,3 C 32 % 1022,4 hPa 0,0 l/m 11,1 km/h (2 Bft) O-NO 60 2 min 0,000 mm 1,2 UV-I 438 W/m -12,7 C -1,7 C 16,1 km/h (3 Bft)
25.02.2018 14:56 2,3 C 2,3 C 2,3 C 32 % 1022,4 hPa 0,0 l/m 13,6 km/h (3 Bft) O-NO 67 2 min 0,000 mm 1,3 UV-I 442 W/m -12,7 C -3,4 C 20,9 km/h (4 Bft)
25.02.2018 14:54 2,3 C 2,3 C 2,4 C 32 % 1022,4 hPa 0,0 l/m 9,1 km/h (2 Bft) O 86 2 min 0,000 mm 1,3 UV-I 445 W/m -12,7 C -0,2 C 17,7 km/h (3 Bft)
25.02.2018 14:52 2,4 C 2,3 C 2,4 C 33 % 1022,4 hPa 0,1 l/m 12,3 km/h (2 Bft) O-SO 112 2 min 0,000 mm 1,3 UV-I 448 W/m -12,2 C -2,4 C 27,4 km/h (5 Bft)
25.02.2018 14:50 2,3 C 2,3 C 2,3 C 33 % 1022,4 hPa 0,0 l/m 7,7 km/h (2 Bft) O 101 2 min 0,000 mm 1,3 UV-I 452 W/m -12,3 C 1,0 C 19,3 km/h (3 Bft)
25.02.2018 14:48 2,3 C 2,3 C 2,4 C 33 % 1022,5 hPa 0,0 l/m 7,7 km/h (2 Bft) O 91 2 min 0,000 mm 1,3 UV-I 455 W/m -12,3 C 1,0 C 11,3 km/h (2 Bft)
25.02.2018 14:46 2,4 C 2,4 C 2,4 C 32 % 1022,4 hPa 0,0 l/m 11,7 km/h (2 Bft) O-NO 74 2 min 0,000 mm 1,3 UV-I 458 W/m -12,6 C -2,0 C 20,9 km/h (4 Bft)
25.02.2018 14:44 2,4 C 2,4 C 2,4 C 33 % 1022,5 hPa 0,0 l/m 13,3 km/h (3 Bft) SO 137 2 min 0,000 mm 1,3 UV-I 461 W/m -12,2 C -3,1 C 25,7 km/h (4 Bft)
25.02.2018 14:42 2,4 C 2,4 C 2,4 C 33 % 1022,5 hPa 0,0 l/m 11,1 km/h (2 Bft) O-SO 103 2 min 0,000 mm 1,3 UV-I 462 W/m -12,2 C -1,6 C 20,9 km/h (4 Bft)
25.02.2018 14:40 2,4 C 2,4 C 2,4 C 33 % 1022,5 hPa 0,0 l/m 9,6 km/h (2 Bft) O-NO 77 2 min 0,000 mm 1,4 UV-I 466 W/m -12,2 C -0,5 C 17,7 km/h (3 Bft)
25.02.2018 14:38 2,4 C 2,4 C 2,4 C 32 % 1022,5 hPa 0,0 l/m 8,1 km/h (2 Bft) O-SO 111 2 min 0,000 mm 1,4 UV-I 469 W/m -12,6 C 0,8 C 14,5 km/h (3 Bft)
25.02.2018 14:36 2,4 C 2,4 C 2,4 C 32 % 1022,5 hPa 0,0 l/m 9,9 km/h (2 Bft) NO 48 2 min 0,000 mm 1,4 UV-I 473 W/m -12,6 C -0,7 C 17,7 km/h (3 Bft)
25.02.2018 14:34 2,4 C 2,4 C 2,4 C 33 % 1022,5 hPa 0,0 l/m 8,6 km/h (2 Bft) SO 128 2 min 0,000 mm 1,4 UV-I 476 W/m -12,2 C 0,3 C 22,5 km/h (4 Bft)
25.02.2018 14:32 2,4 C 2,3 C 2,4 C 32 % 1022,5 hPa 0,0 l/m 10,3 km/h (2 Bft) O-NO 69 2 min 0,000 mm 1,4 UV-I 479 W/m -12,6 C -1,0 C 20,9 km/h (4 Bft)
25.02.2018 14:30 2,3 C 2,3 C 2,3 C 33 % 1022,5 hPa 0,0 l/m 12,7 km/h (3 Bft) O-NO 78 2 min 0,000 mm 1,4 UV-I 481 W/m -12,3 C -2,8 C 22,5 km/h (4 Bft)
25.02.2018 14:28 2,3 C 2,3 C 2,3 C 34 % 1022,5 hPa 0,0 l/m 4,6 km/h (1 Bft) NO 51 2 min 0,000 mm 1,4 UV-I 483 W/m -11,9 C 2,3 C 20,9 km/h (4 Bft)
25.02.2018 14:26 2,3 C 2,3 C 2,3 C 33 % 1022,5 hPa 0,0 l/m 10,2 km/h (2 Bft) O-SO 106 2 min 0,000 mm 1,5 UV-I 487 W/m -12,3 C -1,1 C 19,3 km/h (3 Bft)
25.02.2018 14:24 2,3 C 2,3 C 2,3 C 33 % 1022,6 hPa 0,0 l/m 11,4 km/h (2 Bft) O 89 2 min 0,000 mm 1,5 UV-I 490 W/m -12,3 C -1,9 C 17,7 km/h (3 Bft)
25.02.2018 14:22 2,3 C 2,3 C 2,3 C 33 % 1022,5 hPa 0,0 l/m 11,2 km/h (2 Bft) O 86 2 min 0,000 mm 1,5 UV-I 493 W/m -12,3 C -1,8 C 22,5 km/h (4 Bft)
25.02.2018 14:20 2,3 C 2,3 C 2,4 C 33 % 1022,6 hPa 0,0 l/m 9,5 km/h (2 Bft) O 86 2 min 0,000 mm 1,5 UV-I 495 W/m -12,3 C -0,5 C 19,3 km/h (3 Bft)
25.02.2018 14:18 2,4 C 2,4 C 2,4 C 33 % 1022,6 hPa 0,0 l/m 13,2 km/h (3 Bft) O 97 2 min 0,000 mm 1,5 UV-I 497 W/m -12,2 C -3,0 C 24,1 km/h (4 Bft)
25.02.2018 14:16 2,4 C 2,4 C 2,5 C 33 % 1022,5 hPa 0,0 l/m 9,2 km/h (2 Bft) O-NO 65 2 min 0,000 mm 1,5 UV-I 500 W/m -12,2 C -0,2 C 16,1 km/h (3 Bft)
25.02.2018 14:14 2,5 C 2,5 C 2,5 C 33 % 1022,6 hPa 0,0 l/m 7,3 km/h (2 Bft) O-NO 65 2 min 0,000 mm 1,5 UV-I 500 W/m -12,1 C 1,6 C 14,5 km/h (3 Bft)
25.02.2018 14:12 2,5 C 2,4 C 2,5 C 33 % 1022,6 hPa 0,0 l/m 9,2 km/h (2 Bft) O 85 2 min 0,000 mm 1,5 UV-I 503 W/m -12,1 C -0,1 C 19,3 km/h (3 Bft)
25.02.2018 14:10 2,4 C 2,4 C 2,4 C 33 % 1022,6 hPa 0,0 l/m 7,4 km/h (2 Bft) O-SO 109 2 min 0,000 mm 1,5 UV-I 507 W/m -12,2 C 1,4 C 16,1 km/h (3 Bft)
25.02.2018 14:08 2,4 C 2,4 C 2,4 C 34 % 1022,6 hPa 0,0 l/m 8,4 km/h (2 Bft) O 94 2 min 0,000 mm 1,6 UV-I 508 W/m -11,8 C 0,5 C 17,7 km/h (3 Bft)
25.02.2018 14:06 2,4 C 2,4 C 2,4 C 34 % 1022,6 hPa 0,0 l/m 13,7 km/h (3 Bft) O 96 2 min 0,000 mm 1,6 UV-I 510 W/m -11,8 C -3,3 C 24,1 km/h (4 Bft)
25.02.2018 14:04 2,4 C 2,4 C 2,4 C 34 % 1022,7 hPa 0,0 l/m 13,4 km/h (3 Bft) O 92 2 min 0,000 mm 1,6 UV-I 512 W/m -11,8 C -3,1 C 24,1 km/h (4 Bft)
25.02.2018 14:02 2,4 C 2,3 C 2,4 C 34 % 1022,6 hPa 0,0 l/m 6,9 km/h (2 Bft) O-SO 107 2 min 0,000 mm 1,6 UV-I 515 W/m -11,8 C 1,9 C 12,9 km/h (3 Bft)
25.02.2018 14:00 2,4 C 2,4 C 2,4 C 33 % 1022,7 hPa 0,0 l/m 12,6 km/h (3 Bft) O-SO 106 2 min 0,254 mm 1,6 UV-I 516 W/m -12,2 C -2,6 C 24,1 km/h (4 Bft)
25.02.2018 13:58 2,4 C 2,4 C 2,5 C 33 % 1022,7 hPa 0,0 l/m 14,8 km/h (3 Bft) O-SO 121 2 min 0,000 mm 1,6 UV-I 518 W/m -12,2 C -4,0 C 25,7 km/h (4 Bft)
25.02.2018 13:56 2,5 C 2,4 C 2,5 C 33 % 1022,7 hPa 0,0 l/m 7,9 km/h (2 Bft) O-NO 59 2 min 0,000 mm 1,6 UV-I 518 W/m -12,1 C 1,1 C 14,5 km/h (3 Bft)
25.02.2018 13:54 2,4 C 2,4 C 2,4 C 34 % 1022,7 hPa 0,0 l/m 9,7 km/h (2 Bft) O-SO 105 2 min 0,000 mm 1,6 UV-I 520 W/m -11,8 C -0,6 C 19,3 km/h (3 Bft)
25.02.2018 13:52 2,4 C 2,4 C 2,4 C 34 % 1022,7 hPa 0,0 l/m 11,3 km/h (2 Bft) O 94 2 min 0,000 mm 1,7 UV-I 524 W/m -11,8 C -1,8 C 20,9 km/h (4 Bft)
25.02.2018 13:50 2,4 C 2,4 C 2,4 C 33 % 1022,7 hPa 0,0 l/m 11,6 km/h (2 Bft) SO 128 2 min 0,000 mm 1,7 UV-I 524 W/m -12,2 C -2,0 C 19,3 km/h (3 Bft)
25.02.2018 13:48 2,4 C 2,4 C 2,5 C 34 % 1022,7 hPa 0,0 l/m 9,8 km/h (2 Bft) O 96 2 min 0,000 mm 1,7 UV-I 527 W/m -11,8 C -0,6 C 17,7 km/h (3 Bft)
25.02.2018 13:46 2,5 C 2,4 C 2,5 C 33 % 1022,7 hPa 0,0 l/m 9,2 km/h (2 Bft) O-NO 63 2 min 0,000 mm 1,7 UV-I 529 W/m -12,1 C -0,1 C 25,7 km/h (4 Bft)
25.02.2018 13:44 2,4 C 2,4 C 2,4 C 33 % 1022,8 hPa 0,0 l/m 10,8 km/h (2 Bft) O-SO 106 2 min 0,000 mm 1,7 UV-I 529 W/m -12,2 C -1,4 C 17,7 km/h (3 Bft)
25.02.2018 13:42 2,4 C 2,3 C 2,4 C 34 % 1022,9 hPa 0,0 l/m 10,8 km/h (2 Bft) O-SO 114 2 min 0,000 mm 1,7 UV-I 532 W/m -11,8 C -1,4 C 22,5 km/h (4 Bft)
25.02.2018 13:40 2,3 C 2,3 C 2,3 C 34 % 1022,8 hPa 0,0 l/m 5,4 km/h (2 Bft) O-SO 119 2 min 0,000 mm 1,7 UV-I 534 W/m -11,9 C 2,3 C 16,1 km/h (3 Bft)
25.02.2018 13:38 2,3 C 2,3 C 2,4 C 34 % 1022,8 hPa 0,0 l/m 8,2 km/h (2 Bft) O 98 2 min 0,000 mm 1,7 UV-I 534 W/m -11,9 C 0,6 C 17,7 km/h (3 Bft)
25.02.2018 13:36 2,4 C 2,4 C 2,4 C 34 % 1022,9 hPa 0,0 l/m 11,9 km/h (2 Bft) NO 55 2 min 0,000 mm 1,7 UV-I 534 W/m -11,8 C -2,2 C 17,7 km/h (3 Bft)
25.02.2018 13:34 2,4 C 2,4 C 2,4 C 33 % 1022,9 hPa 0,0 l/m 15,4 km/h (3 Bft) O-SO 111 2 min 0,000 mm 1,7 UV-I 538 W/m -12,2 C -4,3 C 27,4 km/h (5 Bft)
25.02.2018 13:32 2,4 C 2,4 C 2,4 C 33 % 1022,9 hPa 0,0 l/m 13,1 km/h (3 Bft) NO 55 2 min 0,000 mm 1,7 UV-I 540 W/m -12,2 C -3,0 C 25,7 km/h (4 Bft)
25.02.2018 13:30 2,4 C 2,3 C 2,4 C 34 % 1022,9 hPa 0,1 l/m 12,3 km/h (2 Bft) O 99 2 min 0,000 mm 1,7 UV-I 542 W/m -11,8 C -2,4 C 22,5 km/h (4 Bft)
25.02.2018 13:28 2,4 C 2,3 C 2,4 C 33 % 1023,0 hPa 0,0 l/m 9,2 km/h (2 Bft) O-SO 114 2 min 0,000 mm 1,8 UV-I 543 W/m -12,2 C -0,2 C 19,3 km/h (3 Bft)
25.02.2018 13:26 2,3 C 2,3 C 2,3 C 34 % 1023,0 hPa 0,0 l/m 9,9 km/h (2 Bft) O 82 2 min 0,000 mm 1,8 UV-I 544 W/m -11,9 C -0,8 C 19,3 km/h (3 Bft)
25.02.2018 13:24 2,3 C 2,2 C 2,3 C 35 % 1023,0 hPa 0,0 l/m 7,2 km/h (2 Bft) O-NO 68 2 min 0,000 mm 1,8 UV-I 545 W/m -11,6 C 1,5 C 16,1 km/h (3 Bft)
25.02.2018 13:22 2,3 C 2,3 C 2,3 C 32 % 1023,0 hPa 0,0 l/m 9,9 km/h (2 Bft) NO 53 2 min 0,000 mm 1,8 UV-I 547 W/m -12,7 C -0,8 C 22,5 km/h (4 Bft)
25.02.2018 13:20 2,3 C 2,3 C 2,4 C 32 % 1023,1 hPa 0,0 l/m 14,9 km/h (3 Bft) O-SO 119 2 min 0,000 mm 1,8 UV-I 547 W/m -12,7 C -4,1 C 24,1 km/h (4 Bft)
25.02.2018 13:18 2,4 C 2,4 C 2,4 C 32 % 1023,2 hPa 0,0 l/m 8,5 km/h (2 Bft) O 82 2 min 0,000 mm 1,8 UV-I 547 W/m -12,6 C 0,4 C 12,9 km/h (3 Bft)
25.02.2018 13:16 2,4 C 2,3 C 2,4 C 32 % 1023,3 hPa 0,0 l/m 13,8 km/h (3 Bft) O-NO 73 2 min 0,000 mm 1,8 UV-I 550 W/m -12,6 C -3,4 C 24,1 km/h (4 Bft)
25.02.2018 13:14 2,3 C 2,3 C 2,3 C 33 % 1023,2 hPa 0,0 l/m 8,6 km/h (2 Bft) O 99 2 min 0,000 mm 1,8 UV-I 550 W/m -12,3 C 0,2 C 22,5 km/h (4 Bft)
25.02.2018 13:12 2,3 C 2,3 C 2,3 C 33 % 1023,2 hPa 0,0 l/m 11,8 km/h (2 Bft) O-SO 105 2 min 0,000 mm 1,8 UV-I 551 W/m -12,3 C -2,2 C 22,5 km/h (4 Bft)
25.02.2018 13:10 2,3 C 2,3 C 2,3 C 33 % 1023,3 hPa 0,0 l/m 9,3 km/h (2 Bft) O-SO 117 2 min 0,000 mm 1,8 UV-I 554 W/m -12,3 C -0,4 C 17,7 km/h (3 Bft)
25.02.2018 13:08 2,3 C 2,3 C 2,3 C 33 % 1023,3 hPa 0,0 l/m 12,0 km/h (2 Bft) SO 126 2 min 0,000 mm 1,8 UV-I 553 W/m -12,3 C -2,4 C 19,3 km/h (3 Bft)
25.02.2018 13:06 2,3 C 2,3 C 2,4 C 33 % 1023,3 hPa 0,0 l/m 9,5 km/h (2 Bft) NO 37 2 min 0,000 mm 1,8 UV-I 551 W/m -12,3 C -0,5 C 16,1 km/h (3 Bft)
25.02.2018 13:04 2,4 C 2,3 C 2,4 C 34 % 1023,3 hPa 0,0 l/m 13,7 km/h (3 Bft) O-SO 104 2 min 0,000 mm 1,8 UV-I 553 W/m -11,8 C -3,3 C 25,7 km/h (4 Bft)
25.02.2018 13:02 2,3 C 2,3 C 2,3 C 33 % 1023,2 hPa 0,0 l/m 10,9 km/h (2 Bft) O-SO 113 2 min 0,000 mm 1,8 UV-I 554 W/m -12,3 C -1,6 C 22,5 km/h (4 Bft)
25.02.2018 13:00 2,3 C 2,2 C 2,3 C 34 % 1023,2 hPa 0,0 l/m 9,8 km/h (2 Bft) O 82 2 min 0,228 mm 1,8 UV-I 554 W/m -11,9 C -0,8 C 16,1 km/h (3 Bft)
25.02.2018 12:58 2,2 C 2,2 C 2,2 C 35 % 1023,3 hPa 0,0 l/m 10,4 km/h (2 Bft) SO 146 2 min 0,000 mm 1,8 UV-I 552 W/m -11,6 C -1,3 C 20,9 km/h (4 Bft)
25.02.2018 12:56 2,2 C 2,1 C 2,2 C 35 % 1023,3 hPa 0,0 l/m 7,0 km/h (2 Bft) O-NO 62 2 min 0,000 mm 1,8 UV-I 553 W/m -11,6 C 1,6 C 19,3 km/h (3 Bft)
25.02.2018 12:54 2,1 C 1,9 C 2,1 C 36 % 1023,3 hPa 0,1 l/m 7,5 km/h (2 Bft) O 95 2 min 0,000 mm 1,8 UV-I 553 W/m -11,4 C 1,0 C 11,3 km/h (2 Bft)
25.02.2018 12:52 1,9 C 1,9 C 1,9 C 36 % 1023,3 hPa 0,0 l/m 9,5 km/h (2 Bft) O-SO 111 2 min 0,000 mm 1,8 UV-I 554 W/m -11,6 C -1,0 C 24,1 km/h (4 Bft)
25.02.2018 12:50 1,9 C 1,8 C 1,9 C 36 % 1023,3 hPa 0,0 l/m 12,7 km/h (3 Bft) O 93 2 min 0,000 mm 1,8 UV-I 552 W/m -11,6 C -3,3 C 22,5 km/h (4 Bft)
25.02.2018 12:48 1,9 C 1,8 C 1,9 C 35 % 1023,3 hPa 0,0 l/m 9,7 km/h (2 Bft) SO 144 2 min 0,000 mm 1,8 UV-I 552 W/m -11,9 C -1,1 C 17,7 km/h (3 Bft)
25.02.2018 12:46 1,9 C 1,9 C 1,9 C 36 % 1023,4 hPa 0,0 l/m 12,7 km/h (3 Bft) O 82 2 min 0,000 mm 1,8 UV-I 551 W/m -11,6 C -3,3 C 20,9 km/h (4 Bft)
25.02.2018 12:44 1,9 C 1,8 C 1,9 C 36 % 1023,3 hPa 0,0 l/m 11,8 km/h (2 Bft) O 93 2 min 0,000 mm 1,8 UV-I 552 W/m -11,6 C -2,7 C 24,1 km/h (4 Bft)
25.02.2018 12:42 1,9 C 1,8 C 1,9 C 36 % 1023,4 hPa 0,0 l/m 9,8 km/h (2 Bft) O 94 2 min 0,000 mm 1,8 UV-I 551 W/m -11,6 C -1,2 C 16,1 km/h (3 Bft)
25.02.2018 12:40 1,8 C 1,8 C 1,8 C 36 % 1023,4 hPa 0,0 l/m 9,1 km/h (2 Bft) O 94 2 min 0,000 mm 1,8 UV-I 550 W/m -11,6 C -0,7 C 17,7 km/h (3 Bft)
25.02.2018 12:38 1,8 C 1,8 C 1,8 C 37 % 1023,5 hPa 0,0 l/m 11,7 km/h (2 Bft) O-SO 121 2 min 0,000 mm 1,8 UV-I 549 W/m -11,3 C -2,7 C 20,9 km/h (4 Bft)
25.02.2018 12:36 1,8 C 1,8 C 1,8 C 37 % 1023,5 hPa 0,0 l/m 7,9 km/h (2 Bft) O-SO 107 2 min 0,000 mm 1,8 UV-I 547 W/m -11,3 C 0,3 C 19,3 km/h (3 Bft)
25.02.2018 12:34 1,8 C 1,7 C 1,8 C 37 % 1023,5 hPa 0,0 l/m 6,6 km/h (2 Bft) O-SO 109 2 min 0,000 mm 1,8 UV-I 548 W/m -11,3 C 1,6 C 16,1 km/h (3 Bft)
25.02.2018 12:32 1,8 C 1,7 C 1,8 C 37 % 1023,5 hPa 0,0 l/m 10,9 km/h (2 Bft) SO 128 2 min 0,000 mm 1,8 UV-I 548 W/m -11,3 C -2,1 C 20,9 km/h (4 Bft)
25.02.2018 12:30 1,7 C 1,7 C 1,7 C 37 % 1023,6 hPa 0,0 l/m 11,5 km/h (2 Bft) O-SO 113 2 min 0,000 mm 1,8 UV-I 547 W/m -11,4 C -2,7 C 25,7 km/h (4 Bft)
25.02.2018 12:28 1,7 C 1,7 C 1,7 C 38 % 1023,5 hPa 0,0 l/m 14,3 km/h (3 Bft) NO 56 2 min 0,000 mm 1,8 UV-I 546 W/m -11,1 C -4,5 C 22,5 km/h (4 Bft)
25.02.2018 12:26 1,7 C 1,7 C 1,7 C 38 % 1023,5 hPa 0,0 l/m 9,6 km/h (2 Bft) O 85 2 min 0,000 mm 1,8 UV-I 545 W/m -11,1 C -1,3 C 17,7 km/h (3 Bft)
25.02.2018 12:24 1,7 C 1,6 C 1,7 C 37 % 1023,5 hPa 0,0 l/m 11,6 km/h (2 Bft) O-SO 111 2 min 0,000 mm 1,8 UV-I 544 W/m -11,4 C -2,8 C 24,1 km/h (4 Bft)
25.02.2018 12:22 1,6 C 1,6 C 1,6 C 38 % 1023,6 hPa 0,0 l/m 11,8 km/h (2 Bft) O 88 2 min 0,000 mm 1,8 UV-I 543 W/m -11,2 C -3,0 C 17,7 km/h (3 Bft)
25.02.2018 12:20 1,6 C 1,4 C 1,6 C 39 % 1023,6 hPa 0,0 l/m 7,9 km/h (2 Bft) O 98 2 min 0,000 mm 1,7 UV-I 543 W/m -10,8 C 0,1 C 19,3 km/h (3 Bft)
25.02.2018 12:18 1,4 C 1,3 C 1,4 C 40 % 1023,6 hPa 0,0 l/m 7,1 km/h (2 Bft) O 96 2 min 0,000 mm 1,7 UV-I 541 W/m -10,7 C 0,7 C 17,7 km/h (3 Bft)
25.02.2018 12:16 1,3 C 1,3 C 1,3 C 40 % 1023,6 hPa 0,0 l/m 11,8 km/h (2 Bft) O 96 2 min 0,000 mm 1,7 UV-I 540 W/m -10,8 C -3,4 C 22,5 km/h (4 Bft)
25.02.2018 12:14 1,3 C 1,2 C 1,3 C 40 % 1023,7 hPa 0,0 l/m 12,7 km/h (3 Bft) O-SO 111 2 min 0,000 mm 1,7 UV-I 540 W/m -10,8 C -4,0 C 20,9 km/h (4 Bft)
25.02.2018 12:12 1,2 C 1,1 C 1,2 C 41 % 1023,6 hPa 0,0 l/m 11,4 km/h (2 Bft) SO 127 2 min 0,000 mm 1,7 UV-I 538 W/m -10,6 C -3,2 C 19,3 km/h (3 Bft)
25.02.2018 12:10 1,1 C 1,0 C 1,1 C 42 % 1023,6 hPa 0,0 l/m 6,5 km/h (2 Bft) O 93 2 min 0,000 mm 1,7 UV-I 536 W/m -10,4 C 1,0 C 12,9 km/h (3 Bft)
25.02.2018 12:08 1,0 C 1,0 C 1,0 C 41 % 1023,7 hPa 0,0 l/m 8,5 km/h (2 Bft) O-NO 59 2 min 0,000 mm 1,7 UV-I 538 W/m -10,7 C -1,1 C 17,7 km/h (3 Bft)
25.02.2018 12:06 1,0 C 0,9 C 1,0 C 42 % 1023,9 hPa 0,0 l/m 16,5 km/h (3 Bft) O 89 2 min 0,000 mm 1,7 UV-I 534 W/m -10,4 C -6,6 C 22,5 km/h (4 Bft)
25.02.2018 12:04 0,9 C 0,8 C 0,9 C 43 % 1023,8 hPa 0,0 l/m 14,7 km/h (3 Bft) O 100 2 min 0,000 mm 1,7 UV-I 532 W/m -10,2 C -5,7 C 25,7 km/h (4 Bft)
25.02.2018 12:02 0,8 C 0,7 C 0,8 C 43 % 1023,8 hPa 0,0 l/m 5,6 km/h (2 Bft) O-SO 109 2 min 0,000 mm 1,7 UV-I 532 W/m -10,3 C 0,8 C 11,3 km/h (2 Bft)
25.02.2018 12:00 0,7 C 0,6 C 0,7 C 43 % 1023,8 hPa 0,0 l/m 5,4 km/h (2 Bft) O-NO 63 2 min 0,204 mm 1,7 UV-I 531 W/m -10,4 C 0,7 C 16,1 km/h (3 Bft)
25.02.2018 11:58 0,6 C 0,5 C 0,6 C 43 % 1023,9 hPa 0,0 l/m 9,8 km/h (2 Bft) NO 55 2 min 0,000 mm 1,7 UV-I 527 W/m -10,5 C -2,6 C 14,5 km/h (3 Bft)
25.02.2018 11:56 0,5 C 0,4 C 0,5 C 44 % 1023,9 hPa 0,0 l/m 12,6 km/h (3 Bft) O-SO 102 2 min 0,000 mm 1,6 UV-I 527 W/m -10,3 C -4,8 C 20,9 km/h (4 Bft)
25.02.2018 11:54 0,4 C 0,3 C 0,4 C 44 % 1024,0 hPa 0,0 l/m 9,5 km/h (2 Bft) O 98 2 min 0,000 mm 1,6 UV-I 521 W/m -10,4 C -2,6 C 19,3 km/h (3 Bft)
25.02.2018 11:52 0,3 C 0,3 C 0,3 C 44 % 1024,0 hPa 0,0 l/m 7,7 km/h (2 Bft) SO 126 2 min 0,000 mm 1,6 UV-I 521 W/m -10,5 C -1,0 C 16,1 km/h (3 Bft)
25.02.2018 11:50 0,3 C 0,3 C 0,3 C 44 % 1024,1 hPa 0,0 l/m 12,8 km/h (3 Bft) O 87 2 min 0,000 mm 1,6 UV-I 519 W/m -10,5 C -5,2 C 30,6 km/h (5 Bft)
25.02.2018 11:48 0,3 C 0,2 C 0,3 C 45 % 1024,1 hPa 0,0 l/m 14,8 km/h (3 Bft) O 96 2 min 0,000 mm 1,6 UV-I 518 W/m -10,2 C -6,5 C 20,9 km/h (4 Bft)
25.02.2018 11:46 0,2 C 0,2 C 0,2 C 45 % 1024,1 hPa 0,0 l/m 10,2 km/h (2 Bft) SO 131 2 min 0,000 mm 1,6 UV-I 514 W/m -10,3 C -3,4 C 25,7 km/h (4 Bft)
25.02.2018 11:44 0,2 C 0,1 C 0,2 C 46 % 1024,1 hPa 0,1 l/m 8,0 km/h (2 Bft) O-SO 110 2 min 0,000 mm 1,6 UV-I 512 W/m -10,0 C -1,4 C 17,7 km/h (3 Bft)
25.02.2018 11:42 0,1 C 0,1 C 0,1 C 45 % 1024,1 hPa 0,0 l/m 9,4 km/h (2 Bft) O 100 2 min 0,000 mm 1,6 UV-I 510 W/m -10,4 C -2,8 C 20,9 km/h (4 Bft)
25.02.2018 11:40 0,1 C 0,0 C 0,1 C 46 % 1024,1 hPa 0,0 l/m 9,6 km/h (2 Bft) NO 41 2 min 0,000 mm 1,6 UV-I 507 W/m -10,1 C -3,0 C 16,1 km/h (3 Bft)
25.02.2018 11:38 0,0 C -0,1 C 0,0 C 46 % 1024,2 hPa 0,0 l/m 6,9 km/h (2 Bft) SO 135 2 min 0,000 mm 1,5 UV-I 505 W/m -10,2 C -0,5 C 11,3 km/h (2 Bft)
25.02.2018 11:36 0,0 C -0,1 C 0,0 C 45 % 1024,1 hPa 0,0 l/m 12,1 km/h (2 Bft) O-NO 69 2 min 0,000 mm 1,5 UV-I 502 W/m -10,5 C -5,1 C 16,1 km/h (3 Bft)
25.02.2018 11:34 -0,1 C -0,1 C -0,1 C 46 % 1024,1 hPa 0,0 l/m 10,6 km/h (2 Bft) O-NO 57 2 min 0,000 mm 1,5 UV-I 501 W/m -10,3 C -4,1 C 25,7 km/h (4 Bft)
25.02.2018 11:32 -0,1 C -0,2 C -0,1 C 47 % 1024,1 hPa 0,0 l/m 7,0 km/h (2 Bft) O-NO 59 2 min 0,000 mm 1,5 UV-I 501 W/m -10,0 C -0,7 C 14,5 km/h (3 Bft)
25.02.2018 11:30 -0,2 C -0,3 C -0,2 C 48 % 1024,2 hPa 0,0 l/m 11,1 km/h (2 Bft) O-SO 105 2 min 0,000 mm 1,5 UV-I 495 W/m -9,9 C -4,6 C 22,5 km/h (4 Bft)
25.02.2018 11:28 -0,3 C -0,4 C -0,3 C 48 % 1024,1 hPa 0,0 l/m 9,9 km/h (2 Bft) O-SO 102 2 min 0,000 mm 1,5 UV-I 496 W/m -9,9 C -3,7 C 20,9 km/h (4 Bft)
25.02.2018 11:26 -0,4 C -0,6 C -0,4 C 49 % 1024,2 hPa 0,0 l/m 10,9 km/h (2 Bft) O-SO 104 2 min 0,000 mm 1,5 UV-I 492 W/m -9,8 C -4,6 C 16,1 km/h (3 Bft)
25.02.2018 11:24 -0,6 C -0,7 C -0,6 C 49 % 1024,2 hPa 0,0 l/m 7,8 km/h (2 Bft) O-SO 115 2 min 0,000 mm 1,5 UV-I 491 W/m -10,0 C -2,1 C 16,1 km/h (3 Bft)
25.02.2018 11:22 -0,7 C -0,9 C -0,7 C 49 % 1024,1 hPa 0,0 l/m 9,0 km/h (2 Bft) O 86 2 min 0,000 mm 1,5 UV-I 487 W/m -10,1 C -3,3 C 14,5 km/h (3 Bft)
25.02.2018 11:20 -0,9 C -1,0 C -0,9 C 49 % 1024,2 hPa 0,0 l/m 7,0 km/h (2 Bft) O-SO 123 2 min 0,000 mm 1,5 UV-I 483 W/m -10,2 C -1,5 C 14,5 km/h (3 Bft)
25.02.2018 11:18 -1,0 C -1,1 C -1,0 C 50 % 1024,2 hPa 0,0 l/m 10,0 km/h (2 Bft) O-NO 76 2 min 0,000 mm 1,5 UV-I 482 W/m -10,1 C -4,6 C 19,3 km/h (3 Bft)
25.02.2018 11:16 -1,1 C -1,2 C -1,1 C 50 % 1024,2 hPa 0,0 l/m 11,2 km/h (2 Bft) O 80 2 min 0,000 mm 1,4 UV-I 478 W/m -10,2 C -5,7 C 20,9 km/h (4 Bft)
25.02.2018 11:14 -1,2 C -1,2 C -1,2 C 51 % 1024,2 hPa 0,0 l/m 6,6 km/h (2 Bft) O-NO 58 2 min 0,000 mm 1,4 UV-I 475 W/m -10,0 C -1,4 C 11,3 km/h (2 Bft)
25.02.2018 11:12 -1,2 C -1,3 C -1,2 C 51 % 1024,2 hPa 0,0 l/m 10,7 km/h (2 Bft) O 92 2 min 0,000 mm 1,4 UV-I 474 W/m -10,0 C -5,4 C 16,1 km/h (3 Bft)
25.02.2018 11:10 -1,3 C -1,4 C -1,3 C 51 % 1024,1 hPa 0,0 l/m 5,1 km/h (1 Bft) O-SO 104 2 min 0,000 mm 1,4 UV-I 471 W/m -10,1 C -1,3 C 9,7 km/h (2 Bft)
25.02.2018 11:08 -1,4 C -1,4 C -1,3 C 51 % 1024,2 hPa 0,0 l/m 11,2 km/h (2 Bft) O 101 2 min 0,000 mm 1,4 UV-I 466 W/m -10,2 C -6,0 C 20,9 km/h (4 Bft)
25.02.2018 11:06 -1,3 C -1,4 C -1,3 C 51 % 1024,1 hPa 0,0 l/m 13,8 km/h (3 Bft) O 96 2 min 0,000 mm 1,4 UV-I 466 W/m -10,1 C -7,8 C 24,1 km/h (4 Bft)
25.02.2018 11:04 -1,4 C -1,5 C -1,4 C 52 % 1024,1 hPa 0,0 l/m 14,3 km/h (3 Bft) O-NO 76 2 min 0,000 mm 1,4 UV-I 463 W/m -10,0 C -8,2 C 22,5 km/h (4 Bft)
25.02.2018 11:02 -1,5 C -1,7 C -1,5 C 52 % 1024,1 hPa 0,0 l/m 7,6 km/h (2 Bft) O 100 2 min 0,000 mm 1,4 UV-I 459 W/m -10,0 C -2,8 C 22,5 km/h (4 Bft)
25.02.2018 11:00 -1,7 C -1,8 C -1,7 C 52 % 1024,1 hPa 0,0 l/m 4,8 km/h (1 Bft) O-SO 113 2 min 0,152 mm 1,3 UV-I 455 W/m -10,2 C -1,7 C 9,7 km/h (2 Bft)
25.02.2018 10:58 -1,8 C -1,8 C -1,7 C 52 % 1024,2 hPa 0,0 l/m 4,4 km/h (1 Bft) O-SO 121 2 min 0,000 mm 1,3 UV-I 454 W/m -10,3 C -1,8 C 11,3 km/h (2 Bft)
25.02.2018 10:56 -1,7 C -1,8 C -1,7 C 53 % 1024,2 hPa 0,0 l/m 11,2 km/h (2 Bft) O-NO 73 2 min 0,000 mm 1,3 UV-I 448 W/m -10,0 C -6,3 C 20,9 km/h (4 Bft)
25.02.2018 10:54 -1,8 C -1,8 C -1,8 C 53 % 1024,2 hPa 0,0 l/m 15,7 km/h (3 Bft) SO 128 2 min 0,000 mm 1,3 UV-I 446 W/m -10,1 C -9,6 C 33,8 km/h (5 Bft)
25.02.2018 10:52 -1,8 C -2,0 C -1,8 C 53 % 1024,2 hPa 0,0 l/m 13,3 km/h (3 Bft) O-SO 110 2 min 0,000 mm 1,3 UV-I 441 W/m -10,1 C -8,0 C 20,9 km/h (4 Bft)
25.02.2018 10:50 -2,0 C -2,1 C -2,0 C 54 % 1024,1 hPa 0,1 l/m 6,4 km/h (2 Bft) O-SO 113 2 min 0,000 mm 1,3 UV-I 438 W/m -10,0 C -2,0 C 16,1 km/h (3 Bft)
25.02.2018 10:48 -2,1 C -2,2 C -2,1 C 54 % 1024,2 hPa 0,0 l/m 7,4 km/h (2 Bft) O-SO 109 2 min 0,000 mm 1,3 UV-I 433 W/m -10,1 C -3,2 C 16,1 km/h (3 Bft)
25.02.2018 10:46 -2,2 C -2,3 C -2,2 C 54 % 1024,2 hPa 0,0 l/m 6,2 km/h (2 Bft) O 99 2 min 0,000 mm 1,3 UV-I 431 W/m -10,2 C -2,2 C 11,3 km/h (2 Bft)
25.02.2018 10:44 -2,3 C -2,4 C -2,3 C 54 % 1024,2 hPa 0,0 l/m 10,3 km/h (2 Bft) O-SO 115 2 min 0,000 mm 1,3 UV-I 429 W/m -10,3 C -6,3 C 20,9 km/h (4 Bft)
25.02.2018 10:42 -2,4 C -2,4 C -2,4 C 54 % 1024,2 hPa 0,0 l/m 9,9 km/h (2 Bft) O 98 2 min 0,000 mm 1,3 UV-I 423 W/m -10,4 C -6,0 C 19,3 km/h (3 Bft)
25.02.2018 10:40 -2,4 C -2,4 C -2,4 C 54 % 1024,2 hPa 0,0 l/m 12,9 km/h (3 Bft) O-NO 65 2 min 0,000 mm 1,2 UV-I 420 W/m -10,4 C -8,4 C 25,7 km/h (4 Bft)
25.02.2018 10:38 -2,4 C -2,6 C -2,4 C 55 % 1024,2 hPa 0,0 l/m 11,2 km/h (2 Bft) O 83 2 min 0,000 mm 1,2 UV-I 418 W/m -10,2 C -7,1 C 22,5 km/h (4 Bft)
25.02.2018 10:36 -2,6 C -2,6 C -2,6 C 55 % 1024,2 hPa 0,0 l/m 12,3 km/h (2 Bft) O 101 2 min 0,000 mm 1,2 UV-I 413 W/m -10,4 C -8,2 C 24,1 km/h (4 Bft)
25.02.2018 10:34 -2,6 C -2,6 C -2,6 C 55 % 1024,2 hPa 0,0 l/m 10,3 km/h (2 Bft) O-NO 57 2 min 0,000 mm 1,2 UV-I 410 W/m -10,4 C -6,6 C 19,3 km/h (3 Bft)
25.02.2018 10:32 -2,6 C -2,6 C -2,6 C 55 % 1024,2 hPa 0,0 l/m 12,7 km/h (3 Bft) O 101 2 min 0,000 mm 1,2 UV-I 406 W/m -10,4 C -8,5 C 22,5 km/h (4 Bft)
25.02.2018 10:30 -2,6 C -2,6 C -2,6 C 55 % 1024,3 hPa 0,0 l/m 15,4 km/h (3 Bft) O-SO 103 2 min 0,000 mm 1,2 UV-I 400 W/m -10,4 C -10,4 C 27,4 km/h (5 Bft)
25.02.2018 10:28 -2,6 C -2,7 C -2,6 C 55 % 1024,2 hPa 0,0 l/m 16,6 km/h (3 Bft) O-SO 117 2 min 0,000 mm 1,2 UV-I 396 W/m -10,4 C -11,1 C 27,4 km/h (5 Bft)
25.02.2018 10:26 -2,7 C -2,7 C -2,6 C 55 % 1024,2 hPa 0,0 l/m 10,9 km/h (2 Bft) O 90 2 min 0,000 mm 1,2 UV-I 393 W/m -10,5 C -7,2 C 20,9 km/h (4 Bft)
25.02.2018 10:24 -2,7 C -2,7 C -2,6 C 55 % 1024,2 hPa 0,0 l/m 15,5 km/h (3 Bft) O 96 2 min 0,000 mm 1,1 UV-I 387 W/m -10,5 C -10,6 C 27,4 km/h (5 Bft)
25.02.2018 10:22 -2,7 C -2,7 C -2,6 C 56 % 1024,2 hPa 0,0 l/m 13,3 km/h (3 Bft) O 100 2 min 0,000 mm 1,1 UV-I 386 W/m -10,2 C -9,1 C 20,9 km/h (4 Bft)
25.02.2018 10:20 -2,7 C -2,7 C -2,6 C 56 % 1024,2 hPa 0,0 l/m 12,9 km/h (3 Bft) O-SO 106 2 min 0,000 mm 1,1 UV-I 378 W/m -10,2 C -8,8 C 24,1 km/h (4 Bft)
25.02.2018 10:18 -2,7 C -2,8 C -2,7 C 56 % 1024,2 hPa 0,0 l/m 4,6 km/h (1 Bft) O-SO 103 2 min 0,000 mm 1,1 UV-I 374 W/m -10,2 C -2,7 C 11,3 km/h (2 Bft)
25.02.2018 10:16 -2,8 C -2,9 C -2,8 C 57 % 1024,2 hPa 0,0 l/m 7,8 km/h (2 Bft) O-SO 117 2 min 0,000 mm 1,1 UV-I 372 W/m -10,1 C -4,4 C 11,3 km/h (2 Bft)
25.02.2018 10:14 -2,9 C -3,0 C -2,9 C 57 % 1024,1 hPa 0,0 l/m 11,7 km/h (2 Bft) NO 55 2 min 0,000 mm 1,1 UV-I 368 W/m -10,2 C -8,1 C 22,5 km/h (4 Bft)
25.02.2018 10:12 -3,0 C -3,1 C -3,0 C 58 % 1024,2 hPa 0,0 l/m 14,0 km/h (3 Bft) O-SO 112 2 min 0,000 mm 1,0 UV-I 364 W/m -10,1 C -9,9 C 24,1 km/h (4 Bft)
25.02.2018 10:10 -3,1 C -3,2 C -3,1 C 57 % 1024,1 hPa 0,0 l/m 7,0 km/h (2 Bft) O 94 2 min 0,000 mm 1,0 UV-I 358 W/m -10,4 C -3,8 C 16,1 km/h (3 Bft)
25.02.2018 10:08 -3,2 C -3,2 C -3,1 C 57 % 1024,2 hPa 0,0 l/m 13,2 km/h (3 Bft) S 187 2 min 0,000 mm 1,0 UV-I 354 W/m -10,5 C -9,6 C 25,7 km/h (4 Bft)
25.02.2018 10:06 -3,1 C -3,1 C -3,1 C 57 % 1024,1 hPa 0,0 l/m 16,5 km/h (3 Bft) O 99 2 min 0,000 mm 1,0 UV-I 351 W/m -10,4 C -11,7 C 27,4 km/h (5 Bft)
25.02.2018 10:04 -3,1 C -3,1 C -3,1 C 57 % 1024,2 hPa 0,0 l/m 15,1 km/h (3 Bft) O 95 2 min 0,000 mm 1,0 UV-I 347 W/m -10,4 C -10,8 C 22,5 km/h (4 Bft)
25.02.2018 10:02 -3,1 C -3,1 C -3,1 C 58 % 1024,1 hPa 0,0 l/m 15,5 km/h (3 Bft) O 85 2 min 0,000 mm 1,0 UV-I 340 W/m -10,2 C -11,1 C 24,1 km/h (4 Bft)
25.02.2018 10:00 -3,1 C -3,1 C -3,1 C 58 % 1024,2 hPa 0,0 l/m 10,5 km/h (2 Bft) O-SO 106 2 min 0,102 mm 0,9 UV-I 336 W/m -10,2 C -7,3 C 22,5 km/h (4 Bft)
25.02.2018 09:58 -3,1 C -3,1 C -3,1 C 58 % 1024,2 hPa 0,0 l/m 13,8 km/h (3 Bft) SO 129 2 min 0,000 mm 0,9 UV-I 332 W/m -10,2 C -9,9 C 24,1 km/h (4 Bft)
25.02.2018 09:56 -3,1 C -3,1 C -3,1 C 59 % 1024,2 hPa 0,0 l/m 14,5 km/h (3 Bft) O-SO 108 2 min 0,000 mm 0,9 UV-I 327 W/m -10,0 C -10,4 C 22,5 km/h (4 Bft)
25.02.2018 09:54 -3,1 C -3,2 C -3,1 C 59 % 1024,2 hPa 0,0 l/m 13,6 km/h (3 Bft) O 89 2 min 0,000 mm 0,9 UV-I 324 W/m -10,0 C -9,8 C 22,5 km/h (4 Bft)
25.02.2018 09:52 -3,2 C -3,3 C -3,2 C 60 % 1024,2 hPa 0,0 l/m 10,6 km/h (2 Bft) O-SO 120 2 min 0,000 mm 0,9 UV-I 320 W/m -9,8 C -7,5 C 19,3 km/h (3 Bft)
25.02.2018 09:50 -3,3 C -3,3 C -3,3 C 60 % 1024,2 hPa 0,0 l/m 5,3 km/h (1 Bft) SO 138 2 min 0,000 mm 0,9 UV-I 318 W/m -9,9 C -3,3 C 22,5 km/h (4 Bft)
25.02.2018 09:48 -3,3 C -3,4 C -3,3 C 60 % 1024,2 hPa 0,0 l/m 7,3 km/h (2 Bft) O-SO 115 2 min 0,000 mm 0,8 UV-I 312 W/m -9,9 C -4,3 C 12,9 km/h (3 Bft)
25.02.2018 09:46 -3,4 C -3,4 C -3,4 C 61 % 1024,2 hPa 0,0 l/m 11,1 km/h (2 Bft) O 90 2 min 0,000 mm 0,8 UV-I 306 W/m -9,8 C -8,2 C 19,3 km/h (3 Bft)
25.02.2018 09:44 -3,4 C -3,5 C -3,4 C 60 % 1024,2 hPa 0,0 l/m 7,9 km/h (2 Bft) O-SO 103 2 min 0,000 mm 0,8 UV-I 302 W/m -10,0 C -5,1 C 19,3 km/h (3 Bft)
25.02.2018 09:42 -3,5 C -3,6 C -3,5 C 61 % 1024,2 hPa 0,0 l/m 8,3 km/h (2 Bft) NO 49 2 min 0,000 mm 0,8 UV-I 298 W/m -9,9 C -5,6 C 17,7 km/h (3 Bft)
25.02.2018 09:40 -3,6 C -3,7 C -3,6 C 61 % 1024,2 hPa 0,0 l/m 6,9 km/h (2 Bft) O 82 2 min 0,000 mm 0,8 UV-I 294 W/m -10,0 C -4,2 C 12,9 km/h (3 Bft)
25.02.2018 09:38 -3,7 C -3,8 C -3,7 C 62 % 1024,2 hPa 0,0 l/m 6,8 km/h (2 Bft) O 96 2 min 0,000 mm 0,8 UV-I 289 W/m -9,9 C -4,1 C 14,5 km/h (3 Bft)
25.02.2018 09:36 -3,8 C -3,8 C -3,8 C 62 % 1024,2 hPa 0,0 l/m 8,8 km/h (2 Bft) O 98 2 min 0,000 mm 0,8 UV-I 284 W/m -10,0 C -6,5 C 14,5 km/h (3 Bft)
25.02.2018 09:34 -3,8 C -3,9 C -3,8 C 62 % 1024,3 hPa 0,0 l/m 11,0 km/h (2 Bft) O-SO 123 2 min 0,000 mm 0,8 UV-I 279 W/m -10,0 C -8,5 C 25,7 km/h (4 Bft)
25.02.2018 09:32 -3,9 C -4,0 C -3,9 C 63 % 1024,3 hPa 0,0 l/m 11,4 km/h (2 Bft) O-NO 66 2 min 0,000 mm 0,8 UV-I 281 W/m -9,9 C -9,0 C 25,7 km/h (4 Bft)
25.02.2018 09:30 -4,0 C -4,1 C -4,0 C 63 % 1024,3 hPa 0,0 l/m 8,5 km/h (2 Bft) O-SO 114 2 min 0,000 mm 0,8 UV-I 287 W/m -10,0 C -6,4 C 27,4 km/h (5 Bft)
25.02.2018 09:28 -4,1 C -4,1 C -4,1 C 63 % 1024,2 hPa 0,0 l/m 6,9 km/h (2 Bft) O-NO 71 2 min 0,000 mm 0,8 UV-I 287 W/m -10,1 C -4,7 C 16,1 km/h (3 Bft)
25.02.2018 09:26 -4,1 C -4,1 C -4,1 C 63 % 1024,2 hPa 0,0 l/m 10,4 km/h (2 Bft) NO 34 2 min 0,000 mm 0,7 UV-I 283 W/m -10,1 C -8,3 C 16,1 km/h (3 Bft)
25.02.2018 09:24 -4,1 C -4,1 C -4,1 C 63 % 1024,2 hPa 0,0 l/m 11,6 km/h (2 Bft) O 84 2 min 0,000 mm 0,7 UV-I 277 W/m -10,1 C -9,4 C 17,7 km/h (3 Bft)
25.02.2018 09:22 -4,1 C -4,1 C -4,1 C 63 % 1024,2 hPa 0,0 l/m 12,2 km/h (2 Bft) O 90 2 min 0,000 mm 0,7 UV-I 270 W/m -10,1 C -9,9 C 20,9 km/h (4 Bft)
25.02.2018 09:20 -4,1 C -4,1 C -4,1 C 63 % 1024,2 hPa 0,0 l/m 10,2 km/h (2 Bft) O-SO 110 2 min 0,000 mm 0,7 UV-I 263 W/m -10,1 C -8,2 C 20,9 km/h (4 Bft)
25.02.2018 09:18 -4,1 C -4,2 C -4,1 C 64 % 1024,3 hPa 0,0 l/m 13,6 km/h (3 Bft) O-SO 109 2 min 0,000 mm 0,7 UV-I 259 W/m -9,9 C -11,0 C 22,5 km/h (4 Bft)
25.02.2018 09:16 -4,2 C -4,2 C -4,2 C 65 % 1024,2 hPa 0,0 l/m 15,3 km/h (3 Bft) SO 127 2 min 0,000 mm 0,7 UV-I 242 W/m -9,8 C -12,3 C 19,3 km/h (3 Bft)
25.02.2018 09:14 -4,2 C -4,3 C -4,2 C 65 % 1024,2 hPa 0,0 l/m 10,4 km/h (2 Bft) O-NO 69 2 min 0,000 mm 0,7 UV-I 223 W/m -9,8 C -8,5 C 16,1 km/h (3 Bft)
25.02.2018 09:12 -4,3 C -4,4 C -4,3 C 66 % 1024,2 hPa 0,0 l/m 11,5 km/h (2 Bft) O-SO 104 2 min 0,000 mm 0,6 UV-I 218 W/m -9,7 C -9,5 C 19,3 km/h (3 Bft)
25.02.2018 09:10 -4,4 C -4,5 C -4,4 C 66 % 1024,2 hPa 0,0 l/m 9,7 km/h (2 Bft) O-SO 103 2 min 0,000 mm 0,6 UV-I 212 W/m -9,8 C -8,0 C 19,3 km/h (3 Bft)
25.02.2018 09:08 -4,5 C -4,6 C -4,5 C 67 % 1024,3 hPa 0,0 l/m 11,1 km/h (2 Bft) O 97 2 min 0,000 mm 0,6 UV-I 205 W/m -9,7 C -9,4 C 17,7 km/h (3 Bft)
25.02.2018 09:06 -4,6 C -4,7 C -4,6 C 67 % 1024,2 hPa 0,0 l/m 10,1 km/h (2 Bft) O-NO 68 2 min 0,000 mm 0,6 UV-I 199 W/m -9,8 C -8,6 C 17,7 km/h (3 Bft)
25.02.2018 09:04 -4,7 C -4,8 C -4,7 C 68 % 1024,1 hPa 0,0 l/m 6,9 km/h (2 Bft) O-NO 65 2 min 0,000 mm 0,6 UV-I 193 W/m -9,7 C -5,3 C 16,1 km/h (3 Bft)
25.02.2018 09:02 -4,8 C -4,9 C -4,8 C 68 % 1024,1 hPa 0,0 l/m 10,6 km/h (2 Bft) O 91 2 min 0,000 mm 0,6 UV-I 187 W/m -9,8 C -9,3 C 20,9 km/h (4 Bft)
25.02.2018 09:00 -4,9 C -5,0 C -4,9 C 68 % 1024,2 hPa 0,0 l/m 7,8 km/h (2 Bft) SO 133 2 min 0,025 mm 0,6 UV-I 181 W/m -9,9 C -6,6 C 16,1 km/h (3 Bft)
25.02.2018 08:58 -5,0 C -5,1 C -5,0 C 68 % 1024,2 hPa 0,0 l/m 10,3 km/h (2 Bft) O-NO 77 2 min 0,000 mm 0,6 UV-I 175 W/m -10,0 C -9,3 C 22,5 km/h (4 Bft)
25.02.2018 08:56 -5,1 C -5,2 C -5,1 C 69 % 1024,2 hPa 0,0 l/m 10,5 km/h (2 Bft) O-SO 103 2 min 0,000 mm 0,6 UV-I 168 W/m -9,9 C -9,6 C 17,7 km/h (3 Bft)
25.02.2018 08:54 -5,2 C -5,3 C -5,2 C 70 % 1024,2 hPa 0,0 l/m 11,0 km/h (2 Bft) O-SO 104 2 min 0,000 mm 0,5 UV-I 162 W/m -9,8 C -10,1 C 17,7 km/h (3 Bft)
25.02.2018 08:52 -5,3 C -5,4 C -5,3 C 70 % 1024,2 hPa 0,0 l/m 9,0 km/h (2 Bft) O 95 2 min 0,000 mm 0,5 UV-I 156 W/m -9,9 C -8,3 C 17,7 km/h (3 Bft)
25.02.2018 08:50 -5,4 C -5,5 C -5,4 C 70 % 1024,2 hPa 0,0 l/m 5,4 km/h (2 Bft) O 93 2 min 0,000 mm 0,5 UV-I 149 W/m -10,0 C -5,4 C 6,4 km/h (2 Bft)
25.02.2018 08:48 -5,5 C -5,6 C -5,5 C 71 % 1024,2 hPa 0,0 l/m 5,9 km/h (2 Bft) O-NO 65 2 min 0,000 mm 0,5 UV-I 144 W/m -9,9 C -5,5 C 11,3 km/h (2 Bft)
25.02.2018 08:46 -5,6 C -5,7 C -5,6 C 71 % 1024,2 hPa 0,0 l/m 9,0 km/h (2 Bft) O-SO 105 2 min 0,000 mm 0,5 UV-I 139 W/m -10,0 C -8,6 C 16,1 km/h (3 Bft)
25.02.2018 08:44 -5,7 C -5,8 C -5,7 C 72 % 1024,2 hPa 0,0 l/m 11,8 km/h (2 Bft) O-SO 103 2 min 0,000 mm 0,5 UV-I 132 W/m -9,9 C -11,4 C 20,9 km/h (4 Bft)
25.02.2018 08:42 -5,8 C -5,9 C 1,8 C 72 % 1024,2 hPa 0,0 l/m 6,3 km/h (2 Bft) O 82 0 min 0,000 mm 0,3 UV-I 90 W/m -10,0 C -5,8 C 9,7 km/h (2 Bft)
25.02.2018 08:40 1,8 C 1,8 C 1,8 C 55 % 1024,2 hPa 0,0 l/m 5,0 km/h (1 Bft) O-NO 66 0 min 0,000 mm 0,0 UV-I 12 W/m -6,3 C 1,8 C 9,7 km/h (2 Bft)
25.02.2018 08:38 1,8 C 1,8 C 1,8 C 55 % 1024,2 hPa 0,0 l/m 3,7 km/h (1 Bft) O-SO 111 0 min 0,000 mm 0,0 UV-I 12 W/m -6,3 C 1,8 C 8,0 km/h (2 Bft)
25.02.2018 08:36 1,8 C 1,8 C 1,8 C 55 % 1024,2 hPa 0,0 l/m 7,7 km/h (2 Bft) O-SO 111 0 min 0,000 mm 0,0 UV-I 12 W/m -6,3 C 0,5 C 17,7 km/h (3 Bft)
25.02.2018 08:34 1,8 C 1,8 C 1,8 C 55 % 1024,3 hPa 0,0 l/m 9,5 km/h (2 Bft) O-SO 113 0 min 0,000 mm 0,0 UV-I 12 W/m -6,3 C -1,1 C 19,3 km/h (3 Bft)
25.02.2018 08:32 1,8 C 1,8 C 1,8 C 55 % 1024,3 hPa 0,0 l/m 8,0 km/h (2 Bft) O-SO 108 0 min 0,000 mm 0,0 UV-I 12 W/m -6,3 C 0,2 C 19,3 km/h (3 Bft)
25.02.2018 08:30 1,8 C 1,8 C 1,8 C 55 % 1024,3 hPa 0,0 l/m 3,0 km/h (1 Bft) O-NO 61 0 min 0,000 mm 0,0 UV-I 12 W/m -6,3 C 1,8 C 8,0 km/h (2 Bft)
25.02.2018 08:28 1,8 C 1,8 C 1,8 C 55 % 1024,3 hPa 0,0 l/m 7,0 km/h (2 Bft) O 91 0 min 0,000 mm 0,0 UV-I 12 W/m -6,3 C 1,2 C 14,5 km/h (3 Bft)
25.02.2018 08:26 1,8 C 1,8 C 1,8 C 55 % 1024,3 hPa 0,0 l/m 7,8 km/h (2 Bft) O-NO 59 0 min 0,000 mm 0,0 UV-I 12 W/m -6,3 C 0,4 C 19,3 km/h (3 Bft)
25.02.2018 08:24 1,8 C 1,8 C 1,8 C 55 % 1024,3 hPa 0,0 l/m 5,8 km/h (2 Bft) O 82 0 min 0,000 mm 0,0 UV-I 12 W/m -6,3 C 1,8 C 9,7 km/h (2 Bft)
25.02.2018 08:22 1,8 C 1,8 C 1,8 C 55 % 1024,3 hPa 0,0 l/m 7,6 km/h (2 Bft) SO 132 0 min 0,000 mm 0,0 UV-I 12 W/m -6,3 C 0,6 C 14,5 km/h (3 Bft)
25.02.2018 08:20 1,8 C 1,8 C 1,8 C 55 % 1024,2 hPa 0,0 l/m 6,2 km/h (2 Bft) O-SO 104 0 min 0,000 mm 0,0 UV-I 12 W/m -6,3 C 1,8 C 16,1 km/h (3 Bft)
25.02.2018 08:18 1,8 C 1,8 C 1,8 C 55 % 1024,2 hPa 0,0 l/m 4,2 km/h (1 Bft) O 92 0 min 0,000 mm 0,0 UV-I 12 W/m -6,3 C 1,8 C 9,7 km/h (2 Bft)
25.02.2018 08:16 1,8 C 1,8 C 1,8 C 55 % 1024,3 hPa 0,0 l/m 8,0 km/h (2 Bft) O 101 0 min 0,000 mm 0,0 UV-I 12 W/m -6,3 C 0,2 C 20,9 km/h (4 Bft)
25.02.2018 08:14 1,8 C 1,8 C 1,8 C 55 % 1024,3 hPa 0,0 l/m 7,9 km/h (2 Bft) O 88 0 min 0,000 mm 0,0 UV-I 12 W/m -6,3 C 0,3 C 14,5 km/h (3 Bft)
25.02.2018 08:12 1,8 C 1,8 C 1,8 C 55 % 1024,4 hPa 0,0 l/m 6,7 km/h (2 Bft) O 82 0 min 0,000 mm 0,0 UV-I 12 W/m -6,3 C 1,5 C 9,7 km/h (2 Bft)
25.02.2018 08:10 1,8 C 1,8 C 1,8 C 55 % 1024,3 hPa 0,0 l/m 6,4 km/h (2 Bft) O-SO 111 0 min 0,000 mm 0,0 UV-I 12 W/m -6,3 C 1,8 C 11,3 km/h (2 Bft)
25.02.2018 08:08 1,8 C 1,8 C 1,8 C 55 % 1024,3 hPa 0,0 l/m 5,1 km/h (1 Bft) O-NO 61 0 min 0,000 mm 0,0 UV-I 12 W/m -6,3 C 1,8 C 14,5 km/h (3 Bft)
25.02.2018 08:06 1,8 C 1,8 C 1,8 C 55 % 1024,3 hPa 0,0 l/m 7,6 km/h (2 Bft) O-SO 103 0 min 0,000 mm 0,0 UV-I 12 W/m -6,3 C 0,6 C 11,3 km/h (2 Bft)
25.02.2018 08:04 1,8 C 1,8 C 1,8 C 55 % 1024,3 hPa 0,0 l/m 6,3 km/h (2 Bft) O-NO 78 0 min 0,000 mm 0,0 UV-I 12 W/m -6,3 C 1,8 C 11,3 km/h (2 Bft)
25.02.2018 08:02 1,8 C 1,8 C 1,8 C 55 % 1024,3 hPa 0,0 l/m 6,1 km/h (2 Bft) O-NO 63 0 min 0,000 mm 0,0 UV-I 12 W/m -6,3 C 1,8 C 16,1 km/h (3 Bft)
25.02.2018 08:00 1,8 C 1,8 C 1,8 C 55 % 1024,2 hPa 0,0 l/m 4,8 km/h (1 Bft) O-NO 67 0 min 0,000 mm 0,0 UV-I 12 W/m -6,3 C 1,8 C 12,9 km/h (3 Bft)
25.02.2018 07:58 1,8 C 1,8 C 1,8 C 55 % 1024,3 hPa 0,0 l/m 8,6 km/h (2 Bft) O-NO 61 0 min 0,000 mm 0,0 UV-I 12 W/m -6,3 C -0,3 C 19,3 km/h (3 Bft)
25.02.2018 07:56 1,8 C 1,8 C 1,8 C 55 % 1024,4 hPa 0,0 l/m 6,6 km/h (2 Bft) O 85 0 min 0,000 mm 0,0 UV-I 12 W/m -6,3 C 1,6 C 14,5 km/h (3 Bft)
25.02.2018 07:54 1,8 C 1,8 C 1,8 C 55 % 1024,3 hPa 0,0 l/m 8,3 km/h (2 Bft) NO 46 0 min 0,000 mm 0,0 UV-I 12 W/m -6,3 C -0,0 C 14,5 km/h (3 Bft)
25.02.2018 07:52 1,8 C 1,8 C 1,8 C 55 % 1024,3 hPa 0,0 l/m 6,6 km/h (2 Bft) O-NO 76 0 min 0,000 mm 0,0 UV-I 12 W/m -6,3 C 1,6 C 11,3 km/h (2 Bft)
25.02.2018 07:50 1,8 C 1,8 C 1,8 C 55 % 1024,3 hPa 0,0 l/m 4,1 km/h (1 Bft) O-NO 61 0 min 0,000 mm 0,0 UV-I 12 W/m -6,3 C 1,8 C 11,3 km/h (2 Bft)
25.02.2018 07:48 1,8 C 1,8 C 1,8 C 55 % 1024,3 hPa 0,0 l/m 8,4 km/h (2 Bft) O-SO 109 0 min 0,000 mm 0,0 UV-I 12 W/m -6,3 C -0,1 C 14,5 km/h (3 Bft)
25.02.2018 07:46 1,8 C 1,8 C 1,8 C 55 % 1024,3 hPa 0,0 l/m 6,8 km/h (2 Bft) O-NO 68 0 min 0,000 mm 0,0 UV-I 12 W/m -6,3 C 1,4 C 11,3 km/h (2 Bft)
25.02.2018 07:44 1,8 C 1,8 C 1,8 C 55 % 1024,3 hPa 0,0 l/m 5,2 km/h (1 Bft) O-NO 69 0 min 0,000 mm 0,0 UV-I 12 W/m -6,3 C 1,8 C 11,3 km/h (2 Bft)
25.02.2018 07:42 1,8 C 1,8 C 1,8 C 55 % 1024,4 hPa 0,0 l/m 6,0 km/h (2 Bft) O-NO 67 0 min 0,000 mm 0,0 UV-I 12 W/m -6,3 C 1,8 C 11,3 km/h (2 Bft)
25.02.2018 07:40 1,8 C 1,8 C 1,8 C 55 % 1024,3 hPa 0,0 l/m 3,8 km/h (1 Bft) O-NO 62 0 min 0,000 mm 0,0 UV-I 12 W/m -6,3 C 1,8 C 6,4 km/h (2 Bft)
25.02.2018 07:38 1,8 C 1,8 C 1,8 C 55 % 1024,3 hPa 0,0 l/m 4,3 km/h (1 Bft) O-NO 58 0 min 0,000 mm 0,0 UV-I 12 W/m -6,3 C 1,8 C 9,7 km/h (2 Bft)
25.02.2018 07:36 1,8 C 1,8 C 1,8 C 55 % 1024,3 hPa 0,0 l/m 8,0 km/h (2 Bft) O-NO 68 0 min 0,000 mm 0,0 UV-I 12 W/m -6,3 C 0,2 C 16,1 km/h (3 Bft)
25.02.2018 07:34 1,8 C 1,8 C 1,8 C 55 % 1024,2 hPa 0,0 l/m 7,4 km/h (2 Bft) O-NO 78 0 min 0,000 mm 0,0 UV-I 12 W/m -6,3 C 0,8 C 12,9 km/h (3 Bft)
25.02.2018 07:32 1,8 C 1,8 C 1,8 C 55 % 1024,2 hPa 0,0 l/m 5,9 km/h (2 Bft) NO 48 2 min 0,000 mm 0,0 UV-I 12 W/m -6,3 C 1,8 C 11,3 km/h (2 Bft)
25.02.2018 07:30 1,8 C 1,8 C 1,8 C 55 % 1024,2 hPa 0,0 l/m 7,7 km/h (2 Bft) O-NO 76 2 min 0,000 mm 0,0 UV-I 12 W/m -6,3 C 0,5 C 11,3 km/h (2 Bft)
25.02.2018 07:28 1,8 C 1,8 C 1,8 C 55 % 1024,2 hPa 0,0 l/m 7,5 km/h (2 Bft) O-NO 63 0 min 0,000 mm 0,0 UV-I 12 W/m -6,3 C 0,7 C 11,3 km/h (2 Bft)
25.02.2018 07:26 1,8 C 1,8 C 1,8 C 55 % 1024,2 hPa 0,0 l/m 12,0 km/h (2 Bft) O-NO 65 0 min 0,000 mm 0,0 UV-I 12 W/m -6,3 C -2,9 C 17,7 km/h (3 Bft)
25.02.2018 07:24 1,8 C 1,8 C 1,8 C 55 % 1024,1 hPa 0,0 l/m 9,2 km/h (2 Bft) O-NO 62 0 min 0,000 mm 0,0 UV-I 12 W/m -6,3 C -0,8 C 16,1 km/h (3 Bft)
25.02.2018 07:22 1,8 C 1,8 C 1,8 C 55 % 1024,1 hPa 0,0 l/m 10,0 km/h (2 Bft) O 80 0 min 0,000 mm 0,0 UV-I 12 W/m -6,3 C -1,5 C 17,7 km/h (3 Bft)
25.02.2018 07:20 1,8 C 1,8 C 1,8 C 55 % 1024,1 hPa 0,0 l/m 7,5 km/h (2 Bft) O-NO 63 0 min 0,000 mm 0,0 UV-I 12 W/m -6,3 C 0,7 C 11,3 km/h (2 Bft)
25.02.2018 07:18 1,8 C 1,8 C 1,8 C 55 % 1024,0 hPa 0,0 l/m 8,9 km/h (2 Bft) O-NO 67 0 min 0,000 mm 0,0 UV-I 12 W/m -6,3 C -0,6 C 16,1 km/h (3 Bft)
25.02.2018 07:16 1,8 C 1,8 C 1,8 C 55 % 1024,1 hPa 0,0 l/m 7,5 km/h (2 Bft) O-NO 71 0 min 0,000 mm 0,0 UV-I 12 W/m -6,3 C 0,7 C 14,5 km/h (3 Bft)
25.02.2018 07:14 1,8 C 1,8 C 1,8 C 55 % 1024,1 hPa 0,0 l/m 8,5 km/h (2 Bft) O-NO 75 0 min 0,000 mm 0,0 UV-I 12 W/m -6,3 C -0,2 C 12,9 km/h (3 Bft)
25.02.2018 07:12 1,8 C 1,8 C 1,8 C 55 % 1024,1 hPa 0,0 l/m 11,0 km/h (2 Bft) O 81 0 min 0,000 mm 0,0 UV-I 12 W/m -6,3 C -2,2 C 17,7 km/h (3 Bft)
25.02.2018 07:10 1,8 C 1,8 C 1,8 C 55 % 1023,8 hPa 0,0 l/m 6,5 km/h (2 Bft) O-NO 77 0 min 0,000 mm 0,0 UV-I 12 W/m -6,3 C 1,7 C 14,5 km/h (3 Bft)
25.02.2018 07:08 1,8 C 1,8 C 1,8 C 55 % 1023,8 hPa 0,0 l/m 8,9 km/h (2 Bft) NO 55 0 min 0,000 mm 0,0 UV-I 12 W/m -6,3 C -0,6 C 16,1 km/h (3 Bft)
25.02.2018 07:06 1,8 C 1,8 C 1,8 C 55 % 1023,8 hPa 0,0 l/m 11,3 km/h (2 Bft) NO 56 0 min 0,000 mm 0,0 UV-I 12 W/m -6,3 C -2,4 C 19,3 km/h (3 Bft)
25.02.2018 07:04 1,8 C 1,8 C 1,8 C 55 % 1023,7 hPa 0,0 l/m 4,3 km/h (1 Bft) O-NO 70 0 min 0,000 mm 0,0 UV-I 12 W/m -6,3 C 1,8 C 8,0 km/h (2 Bft)
25.02.2018 07:02 1,8 C 1,8 C 1,8 C 55 % 1023,7 hPa 0,0 l/m 6,4 km/h (2 Bft) O 79 0 min 0,000 mm 0,0 UV-I 12 W/m -6,3 C 1,8 C 14,5 km/h (3 Bft)
25.02.2018 07:00 1,8 C 1,8 C 1,8 C 55 % 1023,8 hPa 0,0 l/m 9,3 km/h (2 Bft) NO 51 0 min 0,000 mm 0,0 UV-I 12 W/m -6,3 C -0,9 C 14,5 km/h (3 Bft)
25.02.2018 06:58 1,8 C 1,8 C 1,8 C 55 % 1023,6 hPa 0,0 l/m 10,3 km/h (2 Bft) NO 49 0 min 0,000 mm 0,0 UV-I 12 W/m -6,3 C -1,7 C 16,1 km/h (3 Bft)
25.02.2018 06:56 1,8 C 1,8 C 1,8 C 55 % 1023,7 hPa 0,0 l/m 9,6 km/h (2 Bft) O-NO 64 0 min 0,000 mm 0,0 UV-I 12 W/m -6,3 C -1,1 C 17,7 km/h (3 Bft)
25.02.2018 06:54 1,8 C 1,8 C 1,8 C 55 % 1023,6 hPa 0,0 l/m 10,6 km/h (2 Bft) O-NO 64 0 min 0,000 mm 0,0 UV-I 12 W/m -6,3 C -1,9 C 20,9 km/h (4 Bft)
25.02.2018 06:52 1,8 C 1,8 C 1,8 C 55 % 1023,6 hPa 0,0 l/m 7,7 km/h (2 Bft) O-NO 61 0 min 0,000 mm 0,0 UV-I 12 W/m -6,3 C 0,5 C 11,3 km/h (2 Bft)
25.02.2018 06:50 1,8 C 1,8 C 1,8 C 55 % 1023,7 hPa 0,0 l/m 8,3 km/h (2 Bft) O-NO 66 0 min 0,000 mm 0,0 UV-I 12 W/m -6,3 C -0,0 C 20,9 km/h (4 Bft)
25.02.2018 06:48 1,8 C 1,8 C 1,8 C 55 % 1023,6 hPa 0,0 l/m 8,6 km/h (2 Bft) O-NO 61 0 min 0,000 mm 0,0 UV-I 12 W/m -6,3 C -0,3 C 20,9 km/h (4 Bft)
25.02.2018 06:46 1,8 C 1,8 C 1,8 C 55 % 1023,5 hPa 0,0 l/m 12,6 km/h (3 Bft) O-NO 78 0 min 0,000 mm 0,0 UV-I 12 W/m -6,3 C -3,3 C 22,5 km/h (4 Bft)
25.02.2018 06:44 1,8 C 1,8 C 1,8 C 55 % 1023,5 hPa 0,0 l/m 8,9 km/h (2 Bft) O-NO 72 0 min 0,000 mm 0,0 UV-I 12 W/m -6,3 C -0,6 C 16,1 km/h (3 Bft)
25.02.2018 06:42 1,8 C 1,8 C 1,8 C 55 % 1023,5 hPa 0,0 l/m 8,3 km/h (2 Bft) O-NO 74 0 min 0,000 mm 0,0 UV-I 12 W/m -6,3 C -0,0 C 14,5 km/h (3 Bft)
25.02.2018 06:40 1,8 C 1,8 C 1,8 C 55 % 1023,5 hPa 0,0 l/m 7,5 km/h (2 Bft) O-NO 75 0 min 0,000 mm 0,0 UV-I 12 W/m -6,3 C 0,7 C 16,1 km/h (3 Bft)
25.02.2018 06:38 1,8 C 1,8 C 1,8 C 55 % 1023,5 hPa 0,0 l/m 8,4 km/h (2 Bft) O-NO 78 0 min 0,000 mm 0,0 UV-I 12 W/m -6,3 C -0,1 C 17,7 km/h (3 Bft)
25.02.2018 06:36 1,8 C 1,8 C 1,8 C 55 % 1023,5 hPa 0,0 l/m 5,9 km/h (2 Bft) O-NO 63 0 min 0,000 mm 0,0 UV-I 12 W/m -6,3 C 1,8 C 9,7 km/h (2 Bft)
25.02.2018 06:34 1,8 C 1,8 C 1,8 C 55 % 1023,5 hPa 0,0 l/m 9,8 km/h (2 Bft) O-NO 71 0 min 0,000 mm 0,0 UV-I 12 W/m -6,3 C -1,3 C 17,7 km/h (3 Bft)
25.02.2018 06:32 1,8 C 1,8 C 1,8 C 55 % 1023,4 hPa 0,0 l/m 8,5 km/h (2 Bft) O-NO 60 0 min 0,000 mm 0,0 UV-I 12 W/m -6,3 C -0,2 C 14,5 km/h (3 Bft)
25.02.2018 06:30 1,8 C 1,8 C 1,8 C 55 % 1023,4 hPa 0,0 l/m 8,5 km/h (2 Bft) O 79 0 min 0,000 mm 0,0 UV-I 12 W/m -6,3 C -0,2 C 17,7 km/h (3 Bft)
25.02.2018 06:28 1,8 C 1,8 C 1,8 C 55 % 1023,4 hPa 0,0 l/m 6,8 km/h (2 Bft) O-NO 74 0 min 0,000 mm 0,0 UV-I 12 W/m -6,3 C 1,4 C 14,5 km/h (3 Bft)
25.02.2018 06:26 1,8 C 1,8 C 1,8 C 55 % 1023,4 hPa 0,0 l/m 5,6 km/h (2 Bft) NO 53 0 min 0,000 mm 0,0 UV-I 12 W/m -6,3 C 1,8 C 11,3 km/h (2 Bft)
25.02.2018 06:24 1,8 C 1,8 C 1,8 C 55 % 1023,4 hPa 0,0 l/m 8,0 km/h (2 Bft) O-NO 73 0 min 0,000 mm 0,0 UV-I 12 W/m -6,3 C 0,2 C 16,1 km/h (3 Bft)
25.02.2018 06:22 1,8 C 1,8 C 1,8 C 55 % 1023,4 hPa 0,0 l/m 5,3 km/h (1 Bft) O-NO 57 0 min 0,000 mm 0,0 UV-I 12 W/m -6,3 C 1,8 C 9,7 km/h (2 Bft)
25.02.2018 06:20 1,8 C 1,8 C 1,8 C 55 % 1023,3 hPa 0,0 l/m 6,5 km/h (2 Bft) O-SO 102 0 min 0,000 mm 0,0 UV-I 12 W/m -6,3 C 1,7 C 11,3 km/h (2 Bft)
25.02.2018 06:18 1,8 C 1,8 C 1,8 C 55 % 1023,2 hPa 0,0 l/m 8,2 km/h (2 Bft) O-NO 60 0 min 0,000 mm 0,0 UV-I 12 W/m -6,3 C 0,1 C 11,3 km/h (2 Bft)
25.02.2018 06:16 1,8 C 1,8 C 1,8 C 55 % 1023,2 hPa 0,0 l/m 4,2 km/h (1 Bft) O 83 0 min 0,000 mm 0,0 UV-I 12 W/m -6,3 C 1,8 C 8,0 km/h (2 Bft)
25.02.2018 06:14 1,8 C 1,8 C 1,8 C 55 % 1023,3 hPa 0,0 l/m 8,3 km/h (2 Bft) O 95 0 min 0,000 mm 0,0 UV-I 12 W/m -6,3 C -0,0 C 19,3 km/h (3 Bft)
25.02.2018 06:12 1,8 C 1,8 C 1,8 C 55 % 1023,2 hPa 0,0 l/m 7,4 km/h (2 Bft) O-NO 65 0 min 0,000 mm 0,0 UV-I 12 W/m -6,3 C 0,8 C 16,1 km/h (3 Bft)
25.02.2018 06:10 1,8 C 1,8 C 1,8 C 55 % 1023,2 hPa 0,0 l/m 7,8 km/h (2 Bft) NO 51 0 min 0,000 mm 0,0 UV-I 12 W/m -6,3 C 0,4 C 14,5 km/h (3 Bft)
25.02.2018 06:08 1,8 C 1,8 C 1,8 C 55 % 1023,2 hPa 0,0 l/m 8,7 km/h (2 Bft) O-NO 68 0 min 0,000 mm 0,0 UV-I 12 W/m -6,3 C -0,4 C 14,5 km/h (3 Bft)
25.02.2018 06:06 1,8 C 1,8 C 1,8 C 55 % 1023,2 hPa 0,0 l/m 6,9 km/h (2 Bft) O-NO 74 0 min 0,000 mm 0,0 UV-I 12 W/m -6,3 C 1,3 C 9,7 km/h (2 Bft)
25.02.2018 06:04 1,8 C 1,8 C 1,8 C 55 % 1023,2 hPa 0,0 l/m 11,2 km/h (2 Bft) NO 50 0 min 0,000 mm 0,0 UV-I 12 W/m -6,3 C -2,4 C 17,7 km/h (3 Bft)
25.02.2018 06:02 1,8 C 1,8 C 1,8 C 55 % 1023,2 hPa 0,0 l/m 8,7 km/h (2 Bft) O-NO 75 0 min 0,000 mm 0,0 UV-I 12 W/m -6,3 C -0,4 C 17,7 km/h (3 Bft)
25.02.2018 06:00 1,8 C 1,8 C 1,8 C 55 % 1023,0 hPa 0,0 l/m 7,4 km/h (2 Bft) NO 55 0 min 0,000 mm 0,0 UV-I 12 W/m -6,3 C 0,8 C 11,3 km/h (2 Bft)
25.02.2018 05:58 1,8 C 1,8 C 1,8 C 55 % 1023,1 hPa 0,0 l/m 10,3 km/h (2 Bft) O-NO 57 0 min 0,000 mm 0,0 UV-I 12 W/m -6,3 C -1,7 C 17,7 km/h (3 Bft)
25.02.2018 05:56 1,8 C 1,8 C 1,8 C 55 % 1023,0 hPa 0,0 l/m 6,5 km/h (2 Bft) NO 52 0 min 0,000 mm 0,0 UV-I 12 W/m -6,3 C 1,7 C 11,3 km/h (2 Bft)
25.02.2018 05:54 1,8 C 1,8 C 1,8 C 55 % 1023,0 hPa 0,0 l/m 9,2 km/h (2 Bft) O-NO 57 0 min 0,000 mm 0,0 UV-I 12 W/m -6,3 C -0,8 C 19,3 km/h (3 Bft)
25.02.2018 05:52 1,8 C 1,8 C 1,8 C 55 % 1023,0 hPa 0,0 l/m 8,1 km/h (2 Bft) O-NO 74 0 min 0,000 mm 0,0 UV-I 12 W/m -6,3 C 0,2 C 14,5 km/h (3 Bft)
25.02.2018 05:50 1,8 C 1,8 C 1,8 C 55 % 1023,0 hPa 0,0 l/m 8,4 km/h (2 Bft) O-NO 73 0 min 0,000 mm 0,0 UV-I 12 W/m -6,3 C -0,1 C 14,5 km/h (3 Bft)
25.02.2018 05:48 1,8 C 1,8 C 1,8 C 55 % 1023,1 hPa 0,0 l/m 6,8 km/h (2 Bft) O-NO 68 0 min 0,000 mm 0,0 UV-I 12 W/m -6,3 C 1,4 C 14,5 km/h (3 Bft)
25.02.2018 05:46 1,8 C 1,8 C 1,8 C 55 % 1023,0 hPa 0,0 l/m 9,7 km/h (2 Bft) O 90 0 min 0,000 mm 0,0 UV-I 12 W/m -6,3 C -1,2 C 19,3 km/h (3 Bft)
25.02.2018 05:44 1,8 C 1,8 C 1,8 C 55 % 1023,0 hPa 0,0 l/m 6,0 km/h (2 Bft) NO 34 0 min 0,000 mm 0,0 UV-I 12 W/m -6,3 C 1,8 C 9,7 km/h (2 Bft)
25.02.2018 05:42 1,8 C 1,8 C 1,8 C 55 % 1023,0 hPa 0,0 l/m 6,8 km/h (2 Bft) O 82 0 min 0,000 mm 0,0 UV-I 12 W/m -6,3 C 1,4 C 14,5 km/h (3 Bft)
25.02.2018 05:40 1,8 C 1,8 C 1,8 C 55 % 1022,9 hPa 0,0 l/m 3,7 km/h (1 Bft) NO 51 0 min 0,000 mm 0,0 UV-I 12 W/m -6,3 C 1,8 C 6,4 km/h (2 Bft)
25.02.2018 05:38 1,8 C 1,8 C 1,8 C 55 % 1023,0 hPa 0,0 l/m 3,2 km/h (1 Bft) O-NO 57 0 min 0,000 mm 0,0 UV-I 12 W/m -6,3 C 1,8 C 9,7 km/h (2 Bft)
25.02.2018 05:36 1,8 C 1,8 C 1,8 C 55 % 1023,0 hPa 0,0 l/m 4,3 km/h (1 Bft) O 97 0 min 0,000 mm 0,0 UV-I 12 W/m -6,3 C 1,8 C 9,7 km/h (2 Bft)
25.02.2018 05:34 1,8 C 1,8 C 1,8 C 55 % 1022,9 hPa 0,0 l/m 4,0 km/h (1 Bft) O-NO 69 0 min 0,000 mm 0,0 UV-I 12 W/m -6,3 C 1,8 C 11,3 km/h (2 Bft)
25.02.2018 05:32 1,8 C 1,8 C 1,8 C 55 % 1023,0 hPa 0,0 l/m 5,2 km/h (1 Bft) O-NO 72 0 min 0,000 mm 0,0 UV-I 12 W/m -6,3 C 1,8 C 8,0 km/h (2 Bft)
25.02.2018 05:30 1,8 C 1,8 C 1,8 C 55 % 1022,9 hPa 0,0 l/m 4,9 km/h (1 Bft) O-NO 68 0 min 0,000 mm 0,0 UV-I 12 W/m -6,3 C 1,8 C 8,0 km/h (2 Bft)
25.02.2018 05:28 1,8 C 1,8 C 1,8 C 55 % 1022,8 hPa 0,0 l/m 7,7 km/h (2 Bft) O-NO 76 0 min 0,000 mm 0,0 UV-I 12 W/m -6,3 C 0,5 C 11,3 km/h (2 Bft)
25.02.2018 05:26 1,8 C 1,8 C 1,8 C 55 % 1022,9 hPa 0,0 l/m 6,8 km/h (2 Bft) O-NO 76 0 min 0,000 mm 0,0 UV-I 12 W/m -6,3 C 1,4 C 11,3 km/h (2 Bft)
25.02.2018 05:24 1,8 C 1,8 C 1,8 C 55 % 1022,8 hPa 0,0 l/m 7,1 km/h (2 Bft) O 99 0 min 0,000 mm 0,0 UV-I 12 W/m -6,3 C 1,1 C 12,9 km/h (3 Bft)
25.02.2018 05:22 1,8 C 1,8 C 1,8 C 55 % 1022,8 hPa 0,0 l/m 6,7 km/h (2 Bft) O-NO 67 0 min 0,000 mm 0,0 UV-I 12 W/m -6,3 C 1,5 C 11,3 km/h (2 Bft)
25.02.2018 05:20 1,8 C 1,8 C 1,8 C 55 % 1022,8 hPa 0,0 l/m 8,3 km/h (2 Bft) O 88 0 min 0,000 mm 0,0 UV-I 12 W/m -6,3 C -0,0 C 16,1 km/h (3 Bft)
25.02.2018 05:18 1,8 C 1,8 C 1,8 C 55 % 1022,7 hPa 0,0 l/m 5,6 km/h (2 Bft) O-NO 72 0 min 0,000 mm 0,0 UV-I 12 W/m -6,3 C 1,8 C 17,7 km/h (3 Bft)
25.02.2018 05:16 1,8 C 1,8 C 1,8 C 55 % 1022,8 hPa 0,0 l/m 8,5 km/h (2 Bft) NO 38 0 min 0,000 mm 0,0 UV-I 12 W/m -6,3 C -0,2 C 19,3 km/h (3 Bft)
25.02.2018 05:14 1,8 C 1,8 C 1,8 C 55 % 1022,7 hPa 0,0 l/m 5,7 km/h (2 Bft) NO 55 0 min 0,000 mm 0,0 UV-I 12 W/m -6,3 C 1,8 C 8,0 km/h (2 Bft)
25.02.2018 05:12 1,8 C 1,8 C 1,8 C 55 % 1022,7 hPa 0,0 l/m 8,2 km/h (2 Bft) O 93 0 min 0,000 mm 0,0 UV-I 12 W/m -6,3 C 0,1 C 17,7 km/h (3 Bft)
25.02.2018 05:10 1,8 C 1,8 C 1,8 C 55 % 1022,7 hPa 0,0 l/m 2,1 km/h (1 Bft) O 92 0 min 0,000 mm 0,0 UV-I 12 W/m -6,3 C 1,8 C 8,0 km/h (2 Bft)
25.02.2018 05:08 1,8 C 1,8 C 1,8 C 55 % 1022,6 hPa 0,0 l/m 6,9 km/h (2 Bft) O 92 0 min 0,000 mm 0,0 UV-I 12 W/m -6,3 C 1,3 C 19,3 km/h (3 Bft)
25.02.2018 05:06 1,8 C 1,8 C 1,8 C 55 % 1022,7 hPa 0,0 l/m 10,0 km/h (2 Bft) O 81 0 min 0,000 mm 0,0 UV-I 12 W/m -6,3 C -1,5 C 16,1 km/h (3 Bft)
25.02.2018 05:04 1,8 C 1,8 C 1,8 C 55 % 1022,7 hPa 0,0 l/m 9,6 km/h (2 Bft) O-NO 59 0 min 0,000 mm 0,0 UV-I 12 W/m -6,3 C -1,1 C 14,5 km/h (3 Bft)
25.02.2018 05:02 1,8 C 1,8 C 1,8 C 55 % 1022,7 hPa 0,0 l/m 6,7 km/h (2 Bft) O 90 0 min 0,000 mm 0,0 UV-I 12 W/m -6,3 C 1,5 C 14,5 km/h (3 Bft)
25.02.2018 05:00 1,8 C 1,8 C 1,8 C 55 % 1022,6 hPa 0,0 l/m 7,2 km/h (2 Bft) O 82 0 min 0,000 mm 0,0 UV-I 12 W/m -6,3 C 1,0 C 14,5 km/h (3 Bft)
25.02.2018 04:58 1,8 C 1,8 C 1,8 C 55 % 1022,6 hPa 0,0 l/m 6,6 km/h (2 Bft) O 100 0 min 0,000 mm 0,0 UV-I 12 W/m -6,3 C 1,6 C 9,7 km/h (2 Bft)
25.02.2018 04:56 1,8 C 1,8 C 1,8 C 55 % 1022,6 hPa 0,0 l/m 8,7 km/h (2 Bft) O-SO 103 0 min 0,000 mm 0,0 UV-I 12 W/m -6,3 C -0,4 C 17,7 km/h (3 Bft)
25.02.2018 04:54 1,8 C 1,8 C 1,8 C 55 % 1022,6 hPa 0,0 l/m 5,1 km/h (1 Bft) O-NO 78 0 min 0,000 mm 0,0 UV-I 12 W/m -6,3 C 1,8 C 9,7 km/h (2 Bft)
25.02.2018 04:52 1,8 C 1,8 C 1,8 C 55 % 1022,6 hPa 0,0 l/m 7,9 km/h (2 Bft) O 83 0 min 0,000 mm 0,0 UV-I 12 W/m -6,3 C 0,3 C 16,1 km/h (3 Bft)
25.02.2018 04:50 1,8 C 1,8 C 1,8 C 55 % 1022,6 hPa 0,0 l/m 7,4 km/h (2 Bft) NO 54 0 min 0,000 mm 0,0 UV-I 12 W/m -6,3 C 0,8 C 16,1 km/h (3 Bft)
25.02.2018 04:48 1,8 C 1,8 C 1,8 C 55 % 1022,7 hPa 0,0 l/m 8,7 km/h (2 Bft) O-NO 63 0 min 0,000 mm 0,0 UV-I 12 W/m -6,3 C -0,4 C 16,1 km/h (3 Bft)
25.02.2018 04:46 1,8 C 1,8 C 1,8 C 55 % 1022,7 hPa 0,0 l/m 7,5 km/h (2 Bft) O 82 0 min 0,000 mm 0,0 UV-I 12 W/m -6,3 C 0,7 C 14,5 km/h (3 Bft)
25.02.2018 04:44 1,8 C 1,8 C 1,8 C 55 % 1022,7 hPa 0,0 l/m 6,6 km/h (2 Bft) O-NO 77 0 min 0,000 mm 0,0 UV-I 12 W/m -6,3 C 1,6 C 14,5 km/h (3 Bft)
25.02.2018 04:42 1,8 C 1,8 C 1,8 C 55 % 1022,6 hPa 0,0 l/m 5,9 km/h (2 Bft) O 82 0 min 0,000 mm 0,0 UV-I 12 W/m -6,3 C 1,8 C 11,3 km/h (2 Bft)
25.02.2018 04:40 1,8 C 1,8 C 1,8 C 55 % 1022,6 hPa 0,0 l/m 2,1 km/h (1 Bft) O 94 0 min 0,000 mm 0,0 UV-I 12 W/m -6,3 C 1,8 C 6,4 km/h (2 Bft)
25.02.2018 04:38 1,8 C 1,8 C 1,8 C 55 % 1022,6 hPa 0,0 l/m 5,5 km/h (2 Bft) O 100 0 min 0,000 mm 0,0 UV-I 12 W/m -6,3 C 1,8 C 14,5 km/h (3 Bft)
25.02.2018 04:36 1,8 C 1,8 C 1,8 C 55 % 1022,7 hPa 0,0 l/m 7,5 km/h (2 Bft) O 96 0 min 0,000 mm 0,0 UV-I 12 W/m -6,3 C 0,7 C 11,3 km/h (2 Bft)
25.02.2018 04:34 1,8 C 1,8 C 1,8 C 55 % 1022,7 hPa 0,0 l/m 7,2 km/h (2 Bft) O 93 0 min 0,000 mm 0,0 UV-I 12 W/m -6,3 C 1,0 C 14,5 km/h (3 Bft)
25.02.2018 04:32 1,8 C 1,8 C 1,8 C 55 % 1022,6 hPa 0,0 l/m 5,3 km/h (1 Bft) O 83 0 min 0,000 mm 0,0 UV-I 12 W/m -6,3 C 1,8 C 11,3 km/h (2 Bft)
25.02.2018 04:30 1,8 C 1,8 C 1,8 C 55 % 1022,6 hPa 0,0 l/m 7,4 km/h (2 Bft) O 96 0 min 0,000 mm 0,0 UV-I 12 W/m -6,3 C 0,8 C 14,5 km/h (3 Bft)
25.02.2018 04:28 1,8 C 1,8 C 1,8 C 55 % 1022,6 hPa 0,0 l/m 8,3 km/h (2 Bft) O-SO 108 0 min 0,000 mm 0,0 UV-I 12 W/m -6,3 C -0,0 C 9,7 km/h (2 Bft)
25.02.2018 04:26 1,8 C 1,8 C 1,8 C 55 % 1022,7 hPa 0,0 l/m 6,4 km/h (2 Bft) NO 36 0 min 0,000 mm 0,0 UV-I 12 W/m -6,3 C 1,8 C 11,3 km/h (2 Bft)
25.02.2018 04:24 1,8 C 1,8 C 1,8 C 55 % 1022,5 hPa 0,0 l/m 4,5 km/h (1 Bft) O-SO 113 0 min 0,000 mm 0,0 UV-I 12 W/m -6,3 C 1,8 C 16,1 km/h (3 Bft)
25.02.2018 04:22 1,8 C 1,8 C 1,8 C 55 % 1022,6 hPa 0,0 l/m 3,6 km/h (1 Bft) O-SO 105 0 min 0,000 mm 0,0 UV-I 12 W/m -6,3 C 1,8 C 8,0 km/h (2 Bft)
25.02.2018 04:20 1,8 C 1,8 C 1,8 C 55 % 1022,5 hPa 0,0 l/m 9,6 km/h (2 Bft) O-NO 76 0 min 0,000 mm 0,0 UV-I 12 W/m -6,3 C -1,1 C 17,7 km/h (3 Bft)
25.02.2018 04:18 1,8 C 1,8 C 1,8 C 55 % 1022,6 hPa 0,0 l/m 1,9 km/h (1 Bft) O 92 0 min 0,000 mm 0,0 UV-I 12 W/m -6,3 C 1,8 C 8,0 km/h (2 Bft)
25.02.2018 04:16 1,8 C 1,8 C 1,8 C 55 % 1022,6 hPa 0,0 l/m 4,3 km/h (1 Bft) O-SO 107 0 min 0,000 mm 0,0 UV-I 12 W/m -6,3 C 1,8 C 8,0 km/h (2 Bft)
25.02.2018 04:14 1,8 C 1,8 C 1,8 C 55 % 1022,6 hPa 0,0 l/m 4,4 km/h (1 Bft) O-NO 78 0 min 0,000 mm 0,0 UV-I 12 W/m -6,3 C 1,8 C 9,7 km/h (2 Bft)
25.02.2018 04:12 1,8 C 1,8 C 1,8 C 55 % 1022,5 hPa 0,0 l/m 5,2 km/h (1 Bft) O 101 0 min 0,000 mm 0,0 UV-I 12 W/m -6,3 C 1,8 C 8,0 km/h (2 Bft)
25.02.2018 04:11 1,8 C 1,8 C 1,8 C 55 % 1022,5 hPa 0,0 l/m 3,5 km/h (1 Bft) O 85 0 min 0,000 mm 0,0 UV-I 12 W/m -6,3 C 1,8 C 14,5 km/h (3 Bft)
25.02.2018 04:00 1,8 C 1,8 C 1,8 C 55 % 1022,6 hPa 0,0 l/m 9,0 km/h (2 Bft) O 80 0 min 0,000 mm 0,0 UV-I 12 W/m -6,3 C -0,6 C 20,9 km/h (4 Bft)
25.02.2018 03:58 1,8 C 1,8 C 1,8 C 55 % 1022,6 hPa 0,0 l/m 6,9 km/h (2 Bft) O-SO 111 0 min 0,000 mm 0,0 UV-I 12 W/m -6,3 C 1,3 C 14,5 km/h (3 Bft)
25.02.2018 03:56 1,8 C 1,8 C 1,8 C 55 % 1022,6 hPa 0,0 l/m 7,9 km/h (2 Bft) O-SO 120 0 min 0,000 mm 0,0 UV-I 12 W/m -6,3 C 0,3 C 17,7 km/h (3 Bft)
25.02.2018 03:54 1,8 C 1,8 C 1,8 C 55 % 1022,5 hPa 0,0 l/m 7,8 km/h (2 Bft) O 80 0 min 0,000 mm 0,0 UV-I 12 W/m -6,3 C 0,4 C 19,3 km/h (3 Bft)
25.02.2018 03:52 1,8 C 1,8 C 1,8 C 55 % 1022,5 hPa 0,0 l/m 8,7 km/h (2 Bft) O 91 0 min 0,000 mm 0,0 UV-I 12 W/m -6,3 C -0,4 C 20,9 km/h (4 Bft)
25.02.2018 03:50 1,8 C 1,8 C 1,8 C 55 % 1022,5 hPa 0,0 l/m 6,7 km/h (2 Bft) O-SO 104 0 min 0,000 mm 0,0 UV-I 12 W/m -6,3 C 1,5 C 14,5 km/h (3 Bft)
25.02.2018 03:48 1,8 C 1,8 C 1,8 C 55 % 1022,5 hPa 0,0 l/m 8,7 km/h (2 Bft) O 81 0 min 0,000 mm 0,0 UV-I 12 W/m -6,3 C -0,4 C 16,1 km/h (3 Bft)
25.02.2018 03:46 1,8 C 1,8 C 1,8 C 55 % 1022,6 hPa 0,0 l/m 5,4 km/h (2 Bft) O-NO 76 0 min 0,000 mm 0,0 UV-I 12 W/m -6,3 C 1,8 C 14,5 km/h (3 Bft)
25.02.2018 03:44 1,8 C 1,8 C 1,8 C 55 % 1022,5 hPa 0,0 l/m 5,7 km/h (2 Bft) O-SO 111 0 min 0,000 mm 0,0 UV-I 12 W/m -6,3 C 1,8 C 9,7 km/h (2 Bft)
25.02.2018 03:42 1,8 C 1,8 C 1,8 C 55 % 1022,4 hPa 0,0 l/m 6,0 km/h (2 Bft) O 96 0 min 0,000 mm 0,0 UV-I 12 W/m -6,3 C 1,8 C 12,9 km/h (3 Bft)
25.02.2018 03:40 1,8 C 1,8 C 1,8 C 55 % 1022,5 hPa 0,0 l/m 3,8 km/h (1 Bft) O-NO 69 0 min 0,000 mm 0,0 UV-I 12 W/m -6,3 C 1,8 C 9,7 km/h (2 Bft)
25.02.2018 03:38 1,8 C 1,8 C 1,8 C 55 % 1022,4 hPa 0,0 l/m 5,5 km/h (2 Bft) N 355 0 min 0,000 mm 0,0 UV-I 12 W/m -6,3 C 1,8 C 11,3 km/h (2 Bft)
25.02.2018 03:36 1,8 C 1,8 C 1,8 C 55 % 1022,5 hPa 0,0 l/m 8,8 km/h (2 Bft) NO 53 0 min 0,000 mm 0,0 UV-I 12 W/m -6,3 C -0,5 C 16,1 km/h (3 Bft)
25.02.2018 03:34 1,8 C 1,8 C 1,8 C 55 % 1022,5 hPa 0,0 l/m 4,6 km/h (1 Bft) O 90 0 min 0,000 mm 0,0 UV-I 12 W/m -6,3 C 1,8 C 8,0 km/h (2 Bft)
25.02.2018 03:32 1,8 C 1,8 C 1,8 C 55 % 1022,5 hPa 0,0 l/m 5,6 km/h (2 Bft) O-NO 78 0 min 0,000 mm 0,0 UV-I 12 W/m -6,3 C 1,8 C 9,7 km/h (2 Bft)
25.02.2018 03:30 1,8 C 1,8 C 1,8 C 55 % 1022,5 hPa 0,0 l/m 4,3 km/h (1 Bft) O-SO 120 0 min 0,000 mm 0,0 UV-I 12 W/m -6,3 C 1,8 C 9,7 km/h (2 Bft)
25.02.2018 03:28 1,8 C 1,8 C 1,8 C 55 % 1022,4 hPa 0,0 l/m 4,7 km/h (1 Bft) O-NO 67 0 min 0,000 mm 0,0 UV-I 12 W/m -6,3 C 1,8 C 9,7 km/h (2 Bft)
25.02.2018 03:26 1,8 C 1,8 C 1,8 C 55 % 1022,5 hPa 0,0 l/m 6,7 km/h (2 Bft) O 82 0 min 0,000 mm 0,0 UV-I 12 W/m -6,3 C 1,5 C 11,3 km/h (2 Bft)
25.02.2018 03:24 1,8 C 1,8 C 1,8 C 55 % 1022,5 hPa 0,0 l/m 7,4 km/h (2 Bft) O-SO 123 0 min 0,000 mm 0,0 UV-I 12 W/m -6,3 C 0,8 C 14,5 km/h (3 Bft)
25.02.2018 03:22 1,8 C 1,8 C 1,8 C 55 % 1022,4 hPa 0,0 l/m 7,3 km/h (2 Bft) NO 55 0 min 0,000 mm 0,0 UV-I 12 W/m -6,3 C 0,9 C 17,7 km/h (3 Bft)
25.02.2018 03:20 1,8 C 1,8 C 1,8 C 55 % 1022,4 hPa 0,0 l/m 4,8 km/h (1 Bft) O 79 0 min 0,000 mm 0,0 UV-I 12 W/m -6,3 C 1,8 C 9,7 km/h (2 Bft)
25.02.2018 03:18 1,8 C 1,8 C 1,8 C 55 % 1022,5 hPa 0,0 l/m 3,0 km/h (1 Bft) O 91 0 min 0,000 mm 0,0 UV-I 12 W/m -6,3 C 1,8 C 6,4 km/h (2 Bft)
25.02.2018 03:16 1,8 C 1,8 C 1,8 C 55 % 1022,4 hPa 0,0 l/m 4,4 km/h (1 Bft) O 93 0 min 0,000 mm 0,0 UV-I 12 W/m -6,3 C 1,8 C 14,5 km/h (3 Bft)
25.02.2018 03:14 1,8 C 1,8 C 1,8 C 55 % 1022,5 hPa 0,0 l/m 3,1 km/h (1 Bft) O-NO 78 0 min 0,000 mm 0,0 UV-I 12 W/m -6,3 C 1,8 C 14,5 km/h (3 Bft)
25.02.2018 03:12 1,8 C 1,8 C 1,8 C 55 % 1022,5 hPa 0,0 l/m 4,8 km/h (1 Bft) O-NO 68 0 min 0,000 mm 0,0 UV-I 12 W/m -6,3 C 1,8 C 11,3 km/h (2 Bft)
25.02.2018 03:10 1,8 C 1,8 C 1,8 C 55 % 1022,4 hPa 0,0 l/m 5,0 km/h (1 Bft) O-SO 107 0 min 0,000 mm 0,0 UV-I 12 W/m -6,3 C 1,8 C 9,7 km/h (2 Bft)
25.02.2018 03:08 1,8 C 1,8 C 1,8 C 55 % 1022,4 hPa 0,0 l/m 4,5 km/h (1 Bft) NO 55 0 min 0,000 mm 0,0 UV-I 12 W/m -6,3 C 1,8 C 8,0 km/h (2 Bft)
25.02.2018 03:06 1,8 C 1,8 C 1,8 C 55 % 1022,5 hPa 0,0 l/m 0,6 km/h (0 Bft) O-SO 105 0 min 0,000 mm 0,0 UV-I 12 W/m -6,3 C 1,8 C 4,8 km/h (1 Bft)
25.02.2018 03:04 1,8 C 1,8 C 1,8 C 55 % 1022,5 hPa 0,0 l/m 2,4 km/h (1 Bft) O-SO 107 0 min 0,000 mm 0,0 UV-I 12 W/m -6,3 C 1,8 C 11,3 km/h (2 Bft)
25.02.2018 03:02 1,8 C 1,8 C 1,8 C 55 % 1022,4 hPa 0,0 l/m 1,0 km/h (0 Bft) O 79 0 min 0,000 mm 0,0 UV-I 12 W/m -6,3 C 1,8 C 6,4 km/h (2 Bft)
25.02.2018 03:00 1,8 C 1,8 C 1,8 C 55 % 1022,5 hPa 0,0 l/m 0,4 km/h (0 Bft) O-SO 104 0 min 0,000 mm 0,0 UV-I 12 W/m -6,3 C 1,8 C 1,6 km/h (1 Bft)
25.02.2018 02:58 1,8 C 1,8 C 1,8 C 55 % 1022,5 hPa 0,0 l/m 0,3 km/h (0 Bft) O-SO 104 0 min 0,000 mm 0,0 UV-I 12 W/m -6,3 C 1,8 C 3,2 km/h (1 Bft)
25.02.2018 02:56 1,8 C 1,8 C 1,8 C 55 % 1022,6 hPa 0,0 l/m 1,0 km/h (0 Bft) O-SO 105 0 min 0,000 mm 0,0 UV-I 12 W/m -6,3 C 1,8 C 4,8 km/h (1 Bft)
25.02.2018 02:54 1,8 C 1,8 C 1,8 C 55 % 1022,4 hPa 0,0 l/m 3,3 km/h (1 Bft) O-SO 103 0 min 0,000 mm 0,0 UV-I 12 W/m -6,3 C 1,8 C 9,7 km/h (2 Bft)
25.02.2018 02:52 1,8 C 1,8 C 1,8 C 55 % 1022,4 hPa 0,0 l/m 7,0 km/h (2 Bft) O 98 0 min 0,000 mm 0,0 UV-I 12 W/m -6,3 C 1,2 C 11,3 km/h (2 Bft)
25.02.2018 02:50 1,8 C 1,8 C 1,8 C 55 % 1022,6 hPa 0,0 l/m 6,5 km/h (2 Bft) O 82 0 min 0,000 mm 0,0 UV-I 12 W/m -6,3 C 1,7 C 12,9 km/h (3 Bft)
25.02.2018 02:48 1,8 C 1,8 C 1,8 C 55 % 1022,5 hPa 0,0 l/m 7,0 km/h (2 Bft) O 88 0 min 0,000 mm 0,0 UV-I 12 W/m -6,3 C 1,2 C 14,5 km/h (3 Bft)
25.02.2018 02:46 1,8 C 1,8 C 1,8 C 55 % 1022,5 hPa 0,0 l/m 4,3 km/h (1 Bft) O 82 0 min 0,000 mm 0,0 UV-I 12 W/m -6,3 C 1,8 C 9,7 km/h (2 Bft)
25.02.2018 02:44 1,8 C 1,8 C 1,8 C 55 % 1022,6 hPa 0,0 l/m 8,0 km/h (2 Bft) O 85 0 min 0,000 mm 0,0 UV-I 12 W/m -6,3 C 0,2 C 16,1 km/h (3 Bft)
25.02.2018 02:42 1,8 C 1,8 C 1,8 C 55 % 1022,6 hPa 0,0 l/m 9,5 km/h (2 Bft) O-NO 74 0 min 0,000 mm 0,0 UV-I 12 W/m -6,3 C -1,1 C 17,7 km/h (3 Bft)
25.02.2018 02:40 1,8 C 1,8 C 1,8 C 55 % 1022,6 hPa 0,0 l/m 9,3 km/h (2 Bft) O 96 0 min 0,000 mm 0,0 UV-I 12 W/m -6,3 C -0,9 C 14,5 km/h (3 Bft)
25.02.2018 02:38 1,8 C 1,8 C 1,8 C 55 % 1022,6 hPa 0,0 l/m 3,1 km/h (1 Bft) O 79 0 min 0,000 mm 0,0 UV-I 12 W/m -6,3 C 1,8 C 6,4 km/h (2 Bft)
25.02.2018 02:36 1,8 C 1,8 C 1,8 C 55 % 1022,5 hPa 0,0 l/m 4,9 km/h (1 Bft) O 85 0 min 0,000 mm 0,0 UV-I 12 W/m -6,3 C 1,8 C 9,7 km/h (2 Bft)
25.02.2018 02:34 1,8 C 1,8 C 1,8 C 55 % 1022,4 hPa 0,0 l/m 6,8 km/h (2 Bft) O-NO 76 0 min 0,000 mm 0,0 UV-I 12 W/m -6,3 C 1,4 C 11,3 km/h (2 Bft)
25.02.2018 02:32 1,8 C 1,8 C 1,8 C 55 % 1022,5 hPa 0,0 l/m 4,6 km/h (1 Bft) NO 55 0 min 0,000 mm 0,0 UV-I 12 W/m -6,3 C 1,8 C 11,3 km/h (2 Bft)
25.02.2018 02:30 1,8 C 1,8 C 1,8 C 55 % 1022,5 hPa 0,0 l/m 9,4 km/h (2 Bft) SO 128 0 min 0,000 mm 0,0 UV-I 12 W/m -6,3 C -1,0 C 17,7 km/h (3 Bft)
25.02.2018 02:28 1,8 C 1,8 C 1,8 C 55 % 1022,5 hPa 0,0 l/m 4,4 km/h (1 Bft) O-NO 61 0 min 0,000 mm 0,0 UV-I 12 W/m -6,3 C 1,8 C 16,1 km/h (3 Bft)
25.02.2018 02:26 1,8 C 1,8 C 1,8 C 55 % 1022,5 hPa 0,0 l/m 4,9 km/h (1 Bft) O 86 0 min 0,000 mm 0,0 UV-I 12 W/m -6,3 C 1,8 C 14,5 km/h (3 Bft)
25.02.2018 02:24 1,8 C 1,8 C 1,8 C 55 % 1022,6 hPa 0,0 l/m 7,1 km/h (2 Bft) O-SO 107 0 min 0,000 mm 0,0 UV-I 12 W/m -6,3 C 1,1 C 9,7 km/h (2 Bft)
25.02.2018 02:22 1,8 C 1,8 C 1,8 C 55 % 1022,4 hPa 0,0 l/m 8,7 km/h (2 Bft) O 80 0 min 0,000 mm 0,0 UV-I 12 W/m -6,3 C -0,4 C 17,7 km/h (3 Bft)
25.02.2018 02:20 1,8 C 1,8 C 1,8 C 55 % 1022,5 hPa 0,0 l/m 5,9 km/h (2 Bft) O-SO 105 0 min 0,000 mm 0,0 UV-I 12 W/m -6,3 C 1,8 C 11,3 km/h (2 Bft)
25.02.2018 02:18 1,8 C 1,8 C 1,8 C 55 % 1022,4 hPa 0,0 l/m 8,7 km/h (2 Bft) O-NO 57 0 min 0,000 mm 0,0 UV-I 12 W/m -6,3 C -0,4 C 17,7 km/h (3 Bft)
25.02.2018 02:16 1,8 C 1,8 C 1,8 C 55 % 1022,4 hPa 0,0 l/m 5,1 km/h (1 Bft) O 94 0 min 0,000 mm 0,0 UV-I 12 W/m -6,3 C 1,8 C 8,0 km/h (2 Bft)
25.02.2018 02:14 1,8 C 1,8 C 1,8 C 55 % 1022,4 hPa 0,0 l/m 8,9 km/h (2 Bft) NO 55 0 min 0,000 mm 0,0 UV-I 12 W/m -6,3 C -0,6 C 19,3 km/h (3 Bft)
25.02.2018 02:12 1,8 C 1,8 C 1,8 C 55 % 1022,4 hPa 0,0 l/m 6,4 km/h (2 Bft) O 86 0 min 0,000 mm 0,0 UV-I 12 W/m -6,3 C 1,8 C 14,5 km/h (3 Bft)
25.02.2018 02:10 1,8 C 1,8 C 1,8 C 55 % 1022,5 hPa 0,0 l/m 3,9 km/h (1 Bft) SO 125 0 min 0,000 mm 0,0 UV-I 12 W/m -6,3 C 1,8 C 11,3 km/h (2 Bft)
25.02.2018 02:08 1,8 C 1,8 C 1,8 C 55 % 1022,4 hPa 0,0 l/m 10,8 km/h (2 Bft) O-NO 74 0 min 0,000 mm 0,0 UV-I 12 W/m -6,3 C -2,1 C 17,7 km/h (3 Bft)
25.02.2018 02:06 1,8 C 1,8 C 1,8 C 55 % 1022,4 hPa 0,0 l/m 8,0 km/h (2 Bft) O 96 0 min 0,000 mm 0,0 UV-I 12 W/m -6,3 C 0,2 C 11,3 km/h (2 Bft)
25.02.2018 02:04 1,8 C 1,8 C 1,8 C 55 % 1022,4 hPa 0,0 l/m 11,9 km/h (2 Bft) O 88 0 min 0,000 mm 0,0 UV-I 12 W/m -6,3 C -2,9 C 22,5 km/h (4 Bft)
25.02.2018 02:02 1,8 C 1,8 C 1,8 C 55 % 1022,5 hPa 0,0 l/m 7,8 km/h (2 Bft) O 92 0 min 0,000 mm 0,0 UV-I 12 W/m -6,3 C 0,4 C 14,5 km/h (3 Bft)
25.02.2018 02:00 1,8 C 1,8 C 1,8 C 55 % 1022,5 hPa 0,0 l/m 7,9 km/h (2 Bft) O 93 0 min 0,000 mm 0,0 UV-I 12 W/m -6,3 C 0,3 C 16,1 km/h (3 Bft)
25.02.2018 01:58 1,8 C 1,8 C 1,8 C 55 % 1022,5 hPa 0,0 l/m 5,9 km/h (2 Bft) O 95 0 min 0,000 mm 0,0 UV-I 12 W/m -6,3 C 1,8 C 11,3 km/h (2 Bft)
25.02.2018 01:56 1,8 C 1,8 C 1,8 C 55 % 1022,5 hPa 0,0 l/m 5,9 km/h (2 Bft) O 95 0 min 0,000 mm 0,0 UV-I 12 W/m -6,3 C 1,8 C 11,3 km/h (2 Bft)
25.02.2018 01:54 1,8 C 1,8 C 1,8 C 55 % 1022,6 hPa 0,0 l/m 6,2 km/h (2 Bft) O 82 0 min 0,000 mm 0,0 UV-I 12 W/m -6,3 C 1,8 C 16,1 km/h (3 Bft)
25.02.2018 01:52 1,8 C 1,8 C 1,8 C 55 % 1022,6 hPa 0,0 l/m 7,9 km/h (2 Bft) O-NO 77 0 min 0,000 mm 0,0 UV-I 12 W/m -6,3 C 0,3 C 11,3 km/h (2 Bft)
25.02.2018 01:50 1,8 C 1,8 C 1,8 C 55 % 1022,6 hPa 0,0 l/m 4,1 km/h (1 Bft) O 95 0 min 0,000 mm 0,0 UV-I 12 W/m -6,3 C 1,8 C 11,3 km/h (2 Bft)
25.02.2018 01:48 1,8 C 1,8 C 1,8 C 55 % 1022,6 hPa 0,0 l/m 5,1 km/h (1 Bft) O 90 0 min 0,000 mm 0,0 UV-I 12 W/m -6,3 C 1,8 C 14,5 km/h (3 Bft)
25.02.2018 01:46 1,8 C 1,8 C 1,8 C 55 % 1022,5 hPa 0,0 l/m 8,9 km/h (2 Bft) O-NO 72 0 min 0,000 mm 0,0 UV-I 12 W/m -6,3 C -0,6 C 16,1 km/h (3 Bft)
25.02.2018 01:44 1,8 C 1,8 C 1,8 C 55 % 1022,5 hPa 0,0 l/m 7,2 km/h (2 Bft) O 98 0 min 0,000 mm 0,0 UV-I 12 W/m -6,3 C 1,0 C 16,1 km/h (3 Bft)
25.02.2018 01:42 1,8 C 1,8 C 1,8 C 55 % 1022,6 hPa 0,0 l/m 5,5 km/h (2 Bft) O 81 0 min 0,000 mm 0,0 UV-I 12 W/m -6,3 C 1,8 C 11,3 km/h (2 Bft)
25.02.2018 01:40 1,8 C 1,8 C 1,8 C 55 % 1022,5 hPa 0,0 l/m 6,2 km/h (2 Bft) O-NO 73 0 min 0,000 mm 0,0 UV-I 12 W/m -6,3 C 1,8 C 16,1 km/h (3 Bft)
25.02.2018 01:38 1,8 C 1,8 C 1,8 C 55 % 1022,5 hPa 0,0 l/m 7,6 km/h (2 Bft) O-SO 103 0 min 0,000 mm 0,0 UV-I 12 W/m -6,3 C 0,6 C 11,3 km/h (2 Bft)
25.02.2018 01:36 1,8 C 1,8 C 1,8 C 55 % 1022,4 hPa 0,0 l/m 5,4 km/h (2 Bft) O 86 0 min 0,000 mm 0,0 UV-I 12 W/m -6,3 C 1,8 C 8,0 km/h (2 Bft)
25.02.2018 01:34 1,8 C 1,8 C 1,8 C 55 % 1022,3 hPa 0,0 l/m 5,4 km/h (2 Bft) O 98 0 min 0,000 mm 0,0 UV-I 12 W/m -6,3 C 1,8 C 11,3 km/h (2 Bft)
25.02.2018 01:32 1,8 C 1,8 C 1,8 C 55 % 1022,3 hPa 0,0 l/m 9,5 km/h (2 Bft) O 86 0 min 0,000 mm 0,0 UV-I 12 W/m -6,3 C -1,1 C 19,3 km/h (3 Bft)
25.02.2018 01:30 1,8 C 1,8 C 1,8 C 55 % 1022,3 hPa 0,0 l/m 7,2 km/h (2 Bft) NO 50 0 min 0,000 mm 0,0 UV-I 12 W/m -6,3 C 1,0 C 14,5 km/h (3 Bft)
25.02.2018 01:28 1,8 C 1,8 C 1,8 C 55 % 1022,4 hPa 0,0 l/m 6,4 km/h (2 Bft) O 80 0 min 0,000 mm 0,0 UV-I 12 W/m -6,3 C 1,8 C 14,5 km/h (3 Bft)
25.02.2018 01:26 1,8 C 1,8 C 1,8 C 55 % 1022,4 hPa 0,0 l/m 6,2 km/h (2 Bft) O-SO 107 0 min 0,000 mm 0,0 UV-I 12 W/m -6,3 C 1,8 C 16,1 km/h (3 Bft)
25.02.2018 01:24 1,8 C 1,8 C 1,8 C 55 % 1022,4 hPa 0,0 l/m 8,3 km/h (2 Bft) O-NO 76 0 min 0,000 mm 0,0 UV-I 12 W/m -6,3 C -0,0 C 16,1 km/h (3 Bft)
25.02.2018 01:22 1,8 C 1,8 C 1,8 C 55 % 1022,5 hPa 0,0 l/m 5,8 km/h (2 Bft) O 82 0 min 0,000 mm 0,0 UV-I 12 W/m -6,3 C 1,8 C 11,3 km/h (2 Bft)
25.02.2018 01:20 1,8 C 1,8 C 1,8 C 55 % 1022,5 hPa 0,0 l/m 4,6 km/h (1 Bft) O 100 0 min 0,000 mm 0,0 UV-I 12 W/m -6,3 C 1,8 C 14,5 km/h (3 Bft)
25.02.2018 01:18 1,8 C 1,8 C 1,8 C 55 % 1022,4 hPa 0,0 l/m 12,7 km/h (3 Bft) NO 55 0 min 0,000 mm 0,0 UV-I 12 W/m -6,3 C -3,4 C 22,5 km/h (4 Bft)
25.02.2018 01:16 1,8 C 1,8 C 1,8 C 55 % 1022,2 hPa 0,0 l/m 6,5 km/h (2 Bft) O 81 0 min 0,000 mm 0,0 UV-I 12 W/m -6,3 C 1,7 C 11,3 km/h (2 Bft)
25.02.2018 01:14 1,8 C 1,8 C 1,8 C 55 % 1022,3 hPa 0,0 l/m 5,8 km/h (2 Bft) O 88 0 min 0,000 mm 0,0 UV-I 12 W/m -6,3 C 1,8 C 17,7 km/h (3 Bft)
25.02.2018 01:12 1,8 C 1,8 C 1,8 C 55 % 1022,4 hPa 0,0 l/m 10,4 km/h (2 Bft) O 97 0 min 0,000 mm 0,0 UV-I 12 W/m -6,3 C -1,8 C 19,3 km/h (3 Bft)
25.02.2018 01:10 1,8 C 1,8 C 1,8 C 55 % 1022,2 hPa 0,0 l/m 7,4 km/h (2 Bft) O 80 0 min 0,000 mm 0,0 UV-I 12 W/m -6,3 C 0,8 C 17,7 km/h (3 Bft)
25.02.2018 01:08 1,8 C 1,8 C 1,8 C 55 % 1022,3 hPa 0,0 l/m 5,7 km/h (2 Bft) O 82 0 min 0,000 mm 0,0 UV-I 12 W/m -6,3 C 1,8 C 11,3 km/h (2 Bft)
25.02.2018 01:06 1,8 C 1,8 C 1,8 C 55 % 1022,2 hPa 0,0 l/m 5,3 km/h (1 Bft) O 89 0 min 0,000 mm 0,0 UV-I 12 W/m -6,3 C 1,8 C 8,0 km/h (2 Bft)
25.02.2018 01:04 1,8 C 1,8 C 1,8 C 55 % 1022,2 hPa 0,0 l/m 6,5 km/h (2 Bft) O 83 0 min 0,000 mm 0,0 UV-I 12 W/m -6,3 C 1,7 C 17,7 km/h (3 Bft)
25.02.2018 01:02 1,8 C 1,8 C 1,8 C 55 % 1022,2 hPa 0,0 l/m 9,2 km/h (2 Bft) O-NO 65 0 min 0,000 mm 0,0 UV-I 12 W/m -6,3 C -0,8 C 29,0 km/h (5 Bft)
25.02.2018 01:00 1,8 C 1,8 C 1,8 C 55 % 1022,2 hPa 0,0 l/m 7,1 km/h (2 Bft) O-SO 109 0 min 0,000 mm 0,0 UV-I 12 W/m -6,3 C 1,1 C 11,3 km/h (2 Bft)
25.02.2018 00:58 1,8 C 1,8 C 1,8 C 55 % 1022,1 hPa 0,0 l/m 6,7 km/h (2 Bft) O 92 0 min 0,000 mm 0,0 UV-I 12 W/m -6,3 C 1,5 C 11,3 km/h (2 Bft)
25.02.2018 00:56 1,8 C 1,8 C 1,8 C 55 % 1022,1 hPa 0,0 l/m 5,6 km/h (2 Bft) O 90 0 min 0,000 mm 0,0 UV-I 12 W/m -6,3 C 1,8 C 11,3 km/h (2 Bft)
25.02.2018 00:54 1,8 C 1,8 C 1,8 C 55 % 1022,1 hPa 0,0 l/m 8,5 km/h (2 Bft) O-SO 105 0 min 0,000 mm 0,0 UV-I 12 W/m -6,3 C -0,2 C 17,7 km/h (3 Bft)
25.02.2018 00:52 1,8 C 1,8 C 1,8 C 55 % 1022,1 hPa 0,0 l/m 8,1 km/h (2 Bft) O-NO 78 0 min 0,000 mm 0,0 UV-I 12 W/m -6,3 C 0,2 C 16,1 km/h (3 Bft)
25.02.2018 00:50 1,8 C 1,8 C 1,8 C 55 % 1022,1 hPa 0,0 l/m 4,1 km/h (1 Bft) O 101 0 min 0,000 mm 0,0 UV-I 12 W/m -6,3 C 1,8 C 17,7 km/h (3 Bft)
25.02.2018 00:48 1,8 C 1,8 C 1,8 C 55 % 1022,0 hPa 0,0 l/m 1,8 km/h (1 Bft) O 98 0 min 0,000 mm 0,0 UV-I 12 W/m -6,3 C 1,8 C 4,8 km/h (1 Bft)
25.02.2018 00:46 1,8 C 1,8 C 1,8 C 55 % 1022,0 hPa 0,0 l/m 3,3 km/h (1 Bft) O 96 0 min 0,000 mm 0,0 UV-I 12 W/m -6,3 C 1,8 C 8,0 km/h (2 Bft)
25.02.2018 00:44 1,8 C 1,8 C 1,8 C 55 % 1021,9 hPa 0,0 l/m 5,0 km/h (1 Bft) O 87 0 min 0,000 mm 0,0 UV-I 12 W/m -6,3 C 1,8 C 11,3 km/h (2 Bft)
25.02.2018 00:42 1,8 C 1,8 C 1,8 C 55 % 1022,0 hPa 0,0 l/m 1,4 km/h (1 Bft) O 90 0 min 0,000 mm 0,0 UV-I 12 W/m -6,3 C 1,8 C 6,4 km/h (2 Bft)
25.02.2018 00:40 1,8 C 1,8 C 1,8 C 55 % 1022,1 hPa 0,0 l/m 4,3 km/h (1 Bft) O 100 0 min 0,000 mm 0,0 UV-I 12 W/m -6,3 C 1,8 C 9,7 km/h (2 Bft)
25.02.2018 00:38 1,8 C 1,8 C 1,8 C 55 % 1022,1 hPa 0,0 l/m 6,9 km/h (2 Bft) NO 40 0 min 0,000 mm 0,0 UV-I 12 W/m -6,3 C 1,3 C 14,5 km/h (3 Bft)
25.02.2018 00:36 1,8 C 1,8 C 1,8 C 55 % 1022,0 hPa 0,0 l/m 6,4 km/h (2 Bft) O-SO 111 0 min 0,000 mm 0,0 UV-I 12 W/m -6,3 C 1,8 C 16,1 km/h (3 Bft)
25.02.2018 00:34 1,8 C 1,8 C 1,8 C 55 % 1022,0 hPa 0,0 l/m 4,2 km/h (1 Bft) O-NO 74 0 min 0,000 mm 0,0 UV-I 12 W/m -6,3 C 1,8 C 16,1 km/h (3 Bft)
25.02.2018 00:32 1,8 C 1,8 C 1,8 C 55 % 1022,0 hPa 0,0 l/m 5,5 km/h (2 Bft) O-NO 74 0 min 0,000 mm 0,0 UV-I 12 W/m -6,3 C 1,8 C 12,9 km/h (3 Bft)
25.02.2018 00:30 1,8 C 1,8 C 1,8 C 55 % 1022,1 hPa 0,0 l/m 6,2 km/h (2 Bft) O 101 0 min 0,000 mm 0,0 UV-I 12 W/m -6,3 C 1,8 C 11,3 km/h (2 Bft)
25.02.2018 00:28 1,8 C 1,8 C 1,8 C 55 % 1022,0 hPa 0,0 l/m 2,9 km/h (1 Bft) O-SO 106 0 min 0,000 mm 0,0 UV-I 12 W/m -6,3 C 1,8 C 9,7 km/h (2 Bft)
25.02.2018 00:26 1,8 C 1,8 C 1,8 C 55 % 1022,0 hPa 0,0 l/m 3,4 km/h (1 Bft) O 98 0 min 0,000 mm 0,0 UV-I 12 W/m -6,3 C 1,8 C 9,7 km/h (2 Bft)
25.02.2018 00:24 1,8 C 1,8 C 1,8 C 55 % 1022,0 hPa 0,0 l/m 3,0 km/h (1 Bft) O 79 0 min 0,000 mm 0,0 UV-I 12 W/m -6,3 C 1,8 C 8,0 km/h (2 Bft)
25.02.2018 00:22 1,8 C 1,8 C 1,8 C 55 % 1022,0 hPa 0,0 l/m 6,6 km/h (2 Bft) O 99 0 min 0,000 mm 0,0 UV-I 12 W/m -6,3 C 1,6 C 12,9 km/h (3 Bft)
25.02.2018 00:20 1,8 C 1,8 C 1,8 C 55 % 1021,9 hPa 0,0 l/m 7,9 km/h (2 Bft) O 80 0 min 0,000 mm 0,0 UV-I 12 W/m -6,3 C 0,3 C 14,5 km/h (3 Bft)
25.02.2018 00:18 1,8 C 1,8 C 1,8 C 55 % 1022,1 hPa 0,0 l/m 0,6 km/h (0 Bft) O-SO 110 0 min 0,000 mm 0,0 UV-I 12 W/m -6,3 C 1,8 C 3,2 km/h (1 Bft)
25.02.2018 00:16 1,8 C 1,8 C 1,8 C 55 % 1022,0 hPa 0,0 l/m 3,5 km/h (1 Bft) O-SO 112 0 min 0,000 mm 0,0 UV-I 12 W/m -6,3 C 1,8 C 11,3 km/h (2 Bft)
25.02.2018 00:14 1,8 C 1,8 C 1,8 C 55 % 1022,0 hPa 0,0 l/m 6,0 km/h (2 Bft) O 95 0 min 0,000 mm 0,0 UV-I 12 W/m -6,3 C 1,8 C 12,9 km/h (3 Bft)
25.02.2018 00:12 1,8 C 1,8 C 1,8 C 55 % 1021,9 hPa 0,0 l/m 6,7 km/h (2 Bft) O-SO 111 0 min 0,000 mm 0,0 UV-I 12 W/m -6,3 C 1,5 C 11,3 km/h (2 Bft)
25.02.2018 00:10 1,8 C 1,8 C 1,8 C 55 % 1021,9 hPa 0,0 l/m 5,5 km/h (2 Bft) O-SO 105 0 min 0,000 mm 0,0 UV-I 12 W/m -6,3 C 1,8 C 11,3 km/h (2 Bft)
25.02.2018 00:08 1,8 C 1,8 C 1,8 C 55 % 1022,0 hPa 0,0 l/m 6,4 km/h (2 Bft) O-NO 77 0 min 0,000 mm 0,0 UV-I 12 W/m -6,3 C 1,8 C 11,3 km/h (2 Bft)
25.02.2018 00:06 1,8 C 1,8 C 1,8 C 55 % 1022,0 hPa 0,0 l/m 3,7 km/h (1 Bft) O 96 0 min 0,000 mm 0,0 UV-I 12 W/m -6,3 C 1,8 C 6,4 km/h (2 Bft)
25.02.2018 00:05 1,8 C 1,8 C 1,8 C 55 % 1022,0 hPa 0,0 l/m 5,2 km/h (1 Bft) O 98 0 min 0,000 mm 0,0 UV-I 12 W/m -6,3 C 1,8 C 14,5 km/h (3 Bft)
25.02.2018 00:00 1,8 C 1,8 C 1,8 C 55 % 1021,9 hPa 0,0 l/m 9,0 km/h (2 Bft) O 87 0 min 0,000 mm 0,0 UV-I 12 W/m -6,3 C -0,6 C 17,7 km/h (3 Bft)
24.02.2018 23:58 1,8 C 1,8 C 1,8 C 55 % 1021,9 hPa 0,0 l/m 9,8 km/h (2 Bft) O-NO 66 0 min 0,000 mm 0,0 UV-I 12 W/m -6,3 C -1,3 C 19,3 km/h (3 Bft)
24.02.2018 23:56 1,8 C 1,8 C 1,8 C 55 % 1022,0 hPa 0,0 l/m 7,5 km/h (2 Bft) O 79 0 min 0,000 mm 0,0 UV-I 12 W/m -6,3 C 0,7 C 14,5 km/h (3 Bft)
24.02.2018 23:54 1,8 C 1,8 C 1,8 C 55 % 1021,9 hPa 0,0 l/m 8,1 km/h (2 Bft) NO 37 0 min 0,000 mm 0,0 UV-I 12 W/m -6,3 C 0,2 C 11,3 km/h (2 Bft)
24.02.2018 23:52 1,8 C 1,8 C 1,8 C 55 % 1022,0 hPa 0,0 l/m 6,2 km/h (2 Bft) O-NO 75 0 min 0,000 mm 0,0 UV-I 12 W/m -6,3 C 1,8 C 14,5 km/h (3 Bft)
24.02.2018 23:50 1,8 C 1,8 C 1,8 C 55 % 1022,0 hPa 0,0 l/m 7,0 km/h (2 Bft) O 86 0 min 0,000 mm 0,0 UV-I 12 W/m -6,3 C 1,2 C 12,9 km/h (3 Bft)
24.02.2018 23:48 1,8 C 1,8 C 1,8 C 55 % 1022,0 hPa 0,0 l/m 5,2 km/h (1 Bft) O 83 0 min 0,000 mm 0,0 UV-I 12 W/m -6,3 C 1,8 C 9,7 km/h (2 Bft)
24.02.2018 23:46 1,8 C 1,8 C 1,8 C 55 % 1022,0 hPa 0,0 l/m 4,0 km/h (1 Bft) O-NO 78 0 min 0,000 mm 0,0 UV-I 12 W/m -6,3 C 1,8 C 9,7 km/h (2 Bft)
24.02.2018 23:44 1,8 C 1,8 C 1,8 C 55 % 1021,9 hPa 0,0 l/m 8,7 km/h (2 Bft) O-NO 59 0 min 0,000 mm 0,0 UV-I 12 W/m -6,3 C -0,4 C 14,5 km/h (3 Bft)
24.02.2018 23:42 1,8 C 1,8 C 1,8 C 55 % 1022,0 hPa 0,0 l/m 6,2 km/h (2 Bft) NO 36 0 min 0,000 mm 0,0 UV-I 12 W/m -6,3 C 1,8 C 11,3 km/h (2 Bft)
24.02.2018 23:40 1,8 C 1,8 C 1,8 C 55 % 1022,1 hPa 0,0 l/m 3,6 km/h (1 Bft) O 83 0 min 0,000 mm 0,0 UV-I 12 W/m -6,3 C 1,8 C 9,7 km/h (2 Bft)
24.02.2018 23:38 1,8 C 1,8 C 1,8 C 55 % 1022,0 hPa 0,0 l/m 7,5 km/h (2 Bft) O-SO 118 0 min 0,000 mm 0,0 UV-I 12 W/m -6,3 C 0,7 C 16,1 km/h (3 Bft)
24.02.2018 23:36 1,8 C 1,8 C 1,8 C 55 % 1022,0 hPa 0,0 l/m 9,2 km/h (2 Bft) O-NO 72 0 min 0,000 mm 0,0 UV-I 12 W/m -6,3 C -0,8 C 16,1 km/h (3 Bft)
24.02.2018 23:34 1,8 C 1,8 C 1,8 C 55 % 1022,0 hPa 0,0 l/m 6,9 km/h (2 Bft) O 95 0 min 0,000 mm 0,0 UV-I 12 W/m -6,3 C 1,3 C 14,5 km/h (3 Bft)
24.02.2018 23:32 1,8 C 1,8 C 1,8 C 55 % 1022,1 hPa 0,0 l/m 2,1 km/h (1 Bft) O 96 0 min 0,000 mm 0,0 UV-I 12 W/m -6,3 C 1,8 C 6,4 km/h (2 Bft)
24.02.2018 23:30 1,8 C 1,8 C 1,8 C 55 % 1022,0 hPa 0,0 l/m 5,9 km/h (2 Bft) O 80 0 min 0,000 mm 0,0 UV-I 12 W/m -6,3 C 1,8 C 12,9 km/h (3 Bft)
24.02.2018 23:28 1,8 C 1,8 C 1,8 C 55 % 1022,1 hPa 0,0 l/m 8,6 km/h (2 Bft) O 84 0 min 0,000 mm 0,0 UV-I 12 W/m -6,3 C -0,3 C 14,5 km/h (3 Bft)
24.02.2018 23:26 1,8 C 1,8 C 1,8 C 55 % 1022,0 hPa 0,0 l/m 6,1 km/h (2 Bft) O 92 0 min 0,000 mm 0,0 UV-I 12 W/m -6,3 C 1,8 C 9,7 km/h (2 Bft)
24.02.2018 23:24 1,8 C 1,8 C 1,8 C 55 % 1022,0 hPa 0,0 l/m 6,1 km/h (2 Bft) O-NO 76 0 min 0,000 mm 0,0 UV-I 12 W/m -6,3 C 1,8 C 16,1 km/h (3 Bft)
24.02.2018 23:22 1,8 C 1,8 C 1,8 C 55 % 1022,0 hPa 0,0 l/m 5,0 km/h (1 Bft) O 82 0 min 0,000 mm 0,0 UV-I 12 W/m -6,3 C 1,8 C 11,3 km/h (2 Bft)
24.02.2018 23:20 1,8 C 1,8 C 1,8 C 55 % 1022,0 hPa 0,0 l/m 3,3 km/h (1 Bft) O 80 0 min 0,000 mm 0,0 UV-I 12 W/m -6,3 C 1,8 C 8,0 km/h (2 Bft)
24.02.2018 23:18 1,8 C 1,8 C 1,8 C 55 % 1022,0 hPa 0,0 l/m 6,9 km/h (2 Bft) O 90 0 min 0,000 mm 0,0 UV-I 12 W/m -6,3 C 1,3 C 16,1 km/h (3 Bft)
24.02.2018 23:16 1,8 C 1,8 C 1,8 C 55 % 1022,0 hPa 0,0 l/m 7,2 km/h (2 Bft) O 95 0 min 0,000 mm 0,0 UV-I 12 W/m -6,3 C 1,0 C 16,1 km/h (3 Bft)
24.02.2018 23:14 1,8 C 1,8 C 1,8 C 55 % 1021,9 hPa 0,0 l/m 7,8 km/h (2 Bft) O 79 0 min 0,000 mm 0,0 UV-I 12 W/m -6,3 C 0,4 C 14,5 km/h (3 Bft)
24.02.2018 23:12 1,8 C 1,8 C 1,8 C 55 % 1021,9 hPa 0,0 l/m 7,3 km/h (2 Bft) O 86 0 min 0,000 mm 0,0 UV-I 12 W/m -6,3 C 0,9 C 12,9 km/h (3 Bft)
24.02.2018 23:10 1,8 C 1,8 C 1,8 C 55 % 1021,9 hPa 0,0 l/m 5,1 km/h (1 Bft) O-NO 59 0 min 0,000 mm 0,0 UV-I 12 W/m -6,3 C 1,8 C 11,3 km/h (2 Bft)
24.02.2018 23:08 1,8 C 1,8 C 1,8 C 55 % 1021,9 hPa 0,0 l/m 7,6 km/h (2 Bft) O 92 0 min 0,000 mm 0,0 UV-I 12 W/m -6,3 C 0,6 C 14,5 km/h (3 Bft)
24.02.2018 23:06 1,8 C 1,8 C 1,8 C 55 % 1021,8 hPa 0,0 l/m 7,2 km/h (2 Bft) O 88 0 min 0,000 mm 0,0 UV-I 12 W/m -6,3 C 1,0 C 17,7 km/h (3 Bft)
24.02.2018 23:04 1,8 C 1,8 C 1,8 C 55 % 1021,8 hPa 0,0 l/m 6,8 km/h (2 Bft) O 93 0 min 0,000 mm 0,0 UV-I 12 W/m -6,3 C 1,4 C 9,7 km/h (2 Bft)
24.02.2018 23:02 1,8 C 1,8 C 1,8 C 55 % 1021,8 hPa 0,0 l/m 7,3 km/h (2 Bft) NO 56 0 min 0,000 mm 0,0 UV-I 12 W/m -6,3 C 0,9 C 14,5 km/h (3 Bft)
24.02.2018 23:00 1,8 C 1,8 C 1,8 C 55 % 1021,8 hPa 0,0 l/m 8,0 km/h (2 Bft) O-SO 107 0 min 0,000 mm 0,0 UV-I 12 W/m -6,3 C 0,2 C 16,1 km/h (3 Bft)
24.02.2018 22:58 1,8 C 1,8 C 1,8 C 55 % 1021,8 hPa 0,0 l/m 4,1 km/h (1 Bft) O-NO 76 0 min 0,000 mm 0,0 UV-I 12 W/m -6,3 C 1,8 C 9,7 km/h (2 Bft)
24.02.2018 22:56 1,8 C 1,8 C 1,8 C 55 % 1021,8 hPa 0,0 l/m 8,7 km/h (2 Bft) O-NO 74 0 min 0,000 mm 0,0 UV-I 12 W/m -6,3 C -0,4 C 14,5 km/h (3 Bft)
24.02.2018 22:54 1,8 C 1,8 C 1,8 C 55 % 1021,7 hPa 0,0 l/m 5,0 km/h (1 Bft) O 94 0 min 0,000 mm 0,0 UV-I 12 W/m -6,3 C 1,8 C 14,5 km/h (3 Bft)
24.02.2018 22:52 1,8 C 1,8 C 1,8 C 55 % 1021,7 hPa 0,0 l/m 5,9 km/h (2 Bft) NO 55 0 min 0,000 mm 0,0 UV-I 12 W/m -6,3 C 1,8 C 9,7 km/h (2 Bft)
24.02.2018 22:50 1,8 C 1,8 C 1,8 C 55 % 1021,7 hPa 0,0 l/m 5,9 km/h (2 Bft) O-NO 74 0 min 0,000 mm 0,0 UV-I 12 W/m -6,3 C 1,8 C 14,5 km/h (3 Bft)
24.02.2018 22:48 1,8 C 1,8 C 1,8 C 55 % 1021,7 hPa 0,0 l/m 5,5 km/h (2 Bft) O-NO 57 0 min 0,000 mm 0,0 UV-I 12 W/m -6,3 C 1,8 C 12,9 km/h (3 Bft)
24.02.2018 22:46 1,8 C 1,8 C 1,8 C 55 % 1021,7 hPa 0,0 l/m 9,7 km/h (2 Bft) O 94 0 min 0,000 mm 0,0 UV-I 12 W/m -6,3 C -1,2 C 16,1 km/h (3 Bft)
24.02.2018 22:44 1,8 C 1,8 C 1,8 C 55 % 1021,7 hPa 0,0 l/m 8,5 km/h (2 Bft) O 96 0 min 0,000 mm 0,0 UV-I 12 W/m -6,3 C -0,2 C 19,3 km/h (3 Bft)
24.02.2018 22:42 1,8 C 1,8 C 1,8 C 55 % 1021,6 hPa 0,0 l/m 5,6 km/h (2 Bft) O 87 0 min 0,000 mm 0,0 UV-I 12 W/m -6,3 C 1,8 C 11,3 km/h (2 Bft)
24.02.2018 22:40 1,8 C 1,8 C 1,8 C 55 % 1021,6 hPa 0,0 l/m 10,4 km/h (2 Bft) NO 47 0 min 0,000 mm 0,0 UV-I 12 W/m -6,3 C -1,8 C 24,1 km/h (4 Bft)
24.02.2018 22:38 1,8 C 1,8 C 1,8 C 55 % 1021,5 hPa 0,0 l/m 8,3 km/h (2 Bft) O 96 0 min 0,000 mm 0,0 UV-I 12 W/m -6,3 C -0,0 C 19,3 km/h (3 Bft)
24.02.2018 22:36 1,8 C 1,8 C 1,8 C 55 % 1021,6 hPa 0,0 l/m 5,8 km/h (2 Bft) O 96 0 min 0,000 mm 0,0 UV-I 12 W/m -6,3 C 1,8 C 11,3 km/h (2 Bft)
24.02.2018 22:34 1,8 C 1,8 C 1,8 C 55 % 1021,6 hPa 0,0 l/m 11,0 km/h (2 Bft) O-NO 78 0 min 0,000 mm 0,0 UV-I 12 W/m -6,3 C -2,2 C 22,5 km/h (4 Bft)
24.02.2018 22:32 1,8 C 1,8 C 1,8 C 55 % 1021,6 hPa 0,0 l/m 7,4 km/h (2 Bft) O-NO 67 0 min 0,000 mm 0,0 UV-I 12 W/m -6,3 C 0,8 C 12,9 km/h (3 Bft)
24.02.2018 22:30 1,8 C 1,8 C 1,8 C 55 % 1021,5 hPa 0,0 l/m 10,7 km/h (2 Bft) O 97 0 min 0,000 mm 0,0 UV-I 12 W/m -6,3 C -2,0 C 19,3 km/h (3 Bft)
24.02.2018 22:28 1,8 C 1,8 C 1,8 C 55 % 1021,6 hPa 0,0 l/m 4,1 km/h (1 Bft) O-NO 76 0 min 0,000 mm 0,0 UV-I 12 W/m -6,3 C 1,8 C 9,7 km/h (2 Bft)
24.02.2018 22:26 1,8 C 1,8 C 1,8 C 55 % 1021,5 hPa 0,0 l/m 10,4 km/h (2 Bft) O-SO 109 0 min 0,000 mm 0,0 UV-I 12 W/m -6,3 C -1,8 C 17,7 km/h (3 Bft)
24.02.2018 22:24 1,8 C 1,8 C 1,8 C 55 % 1021,5 hPa 0,0 l/m 3,3 km/h (1 Bft) O-NO 65 0 min 0,000 mm 0,0 UV-I 12 W/m -6,3 C 1,8 C 8,0 km/h (2 Bft)
24.02.2018 22:22 1,8 C 1,8 C 1,8 C 55 % 1021,5 hPa 0,0 l/m 3,9 km/h (1 Bft) O-NO 69 0 min 0,000 mm 0,0 UV-I 12 W/m -6,3 C 1,8 C 9,7 km/h (2 Bft)
24.02.2018 22:20 1,8 C 1,8 C 1,8 C 55 % 1021,4 hPa 0,0 l/m 6,6 km/h (2 Bft) O 100 0 min 0,000 mm 0,0 UV-I 12 W/m -6,3 C 1,6 C 9,7 km/h (2 Bft)
24.02.2018 22:18 1,8 C 1,8 C 1,8 C 55 % 1021,4 hPa 0,0 l/m 4,7 km/h (1 Bft) O 84 0 min 0,000 mm 0,0 UV-I 12 W/m -6,3 C 1,8 C 9,7 km/h (2 Bft)
24.02.2018 22:16 1,8 C 1,8 C 1,8 C 55 % 1021,5 hPa 0,0 l/m 2,8 km/h (1 Bft) O 86 0 min 0,000 mm 0,0 UV-I 12 W/m -6,3 C 1,8 C 6,4 km/h (2 Bft)
24.02.2018 22:14 1,8 C 1,8 C 1,8 C 55 % 1021,5 hPa 0,0 l/m 1,3 km/h (1 Bft) O 96 0 min 0,000 mm 0,0 UV-I 12 W/m -6,3 C 1,8 C 6,4 km/h (2 Bft)
24.02.2018 22:12 1,8 C 1,8 C 1,8 C 55 % 1021,5 hPa 0,0 l/m 2,8 km/h (1 Bft) O 99 0 min 0,000 mm 0,0 UV-I 12 W/m -6,3 C 1,8 C 8,0 km/h (2 Bft)
24.02.2018 22:10 1,8 C 1,8 C 1,8 C 55 % 1021,5 hPa 0,0 l/m 4,0 km/h (1 Bft) O 98 0 min 0,000 mm 0,0 UV-I 12 W/m -6,3 C 1,8 C 8,0 km/h (2 Bft)
24.02.2018 22:08 1,8 C 1,8 C 1,8 C 55 % 1021,4 hPa 0,0 l/m 7,9 km/h (2 Bft) N-NO 27 0 min 0,000 mm 0,0 UV-I 12 W/m -6,3 C 0,3 C 14,5 km/h (3 Bft)
24.02.2018 22:06 1,8 C 1,8 C 1,8 C 55 % 1021,4 hPa 0,0 l/m 7,2 km/h (2 Bft) N-NO 28 0 min 0,000 mm 0,0 UV-I 12 W/m -6,3 C 1,0 C 11,3 km/h (2 Bft)
24.02.2018 22:04 1,8 C 1,8 C 1,8 C 55 % 1021,4 hPa 0,0 l/m 7,4 km/h (2 Bft) O-NO 59 0 min 0,000 mm 0,0 UV-I 12 W/m -6,3 C 0,8 C 11,3 km/h (2 Bft)
24.02.2018 22:02 1,8 C 1,8 C 1,8 C 55 % 1021,4 hPa 0,0 l/m 6,4 km/h (2 Bft) O-NO 62 0 min 0,000 mm 0,0 UV-I 12 W/m -6,3 C 1,8 C 9,7 km/h (2 Bft)
24.02.2018 22:00 1,8 C 1,8 C 1,8 C 55 % 1021,4 hPa 0,0 l/m 9,1 km/h (2 Bft) O-NO 71 0 min 0,000 mm 0,0 UV-I 12 W/m -6,3 C -0,7 C 17,7 km/h (3 Bft)
_ Min-Zeit 08:42 08:42 08:44 15:24 22:00 - 02:58 - - - - - - 17:18 09:16 03:00
Minimum _ -5,9 C -5,9 C -5,7 C 30 % 1021,4 hPa - 0,3 km/h (0 Bft) - - - - - - -14,8 C -12,3 C 1,6 km/h (1 Bft)
_ Max-Zeit 13:46 14:14 13:46 08:42 07:42 10:50 10:28 - - 07:30 14:00 12:22 12:52 22:00 13:40 10:54
Maximum _ 2,5 C 2,5 C 2,5 C 72 % 1024,4 hPa 0,1 l/m 16,6 km/h
O-SO (3 Bft)
- - 2 min 0,254 mm 1,8 UV-I 554 W/m -6,3 C 2,3 C 33,8 km/h
O-SO (5 Bft)
Durchschnitt _ 0,9 C 0,9 C 0,9 C 47 % 1022,7 hPa #0,8 l/m 7,7 km/h (2 Bft) O - #9:02 h #1,499 mm 1,2 UV-I 171 W/m -9,6 C -0,8 C 15,2 km/h (3 Bft)